     2              OBSERVATION DATA    GPS                 RINEX VERSION / TYPE
TRRINEXO-V2.3.1-LH UCLA/SCEC 28-FEB-1994                    PGM / RUN BY / DATE
                                                            COMMENT
Original Marker Name: CALABASAS RE 62 1933                  COMMENT
Campaign Name: Northridge 1994                              COMMENT
4-Character Station Name: CALA                              COMMENT
6-Character Antenna Code: TRMSST                            COMMENT
Vertical Measurement Point: TGP                             COMMENT
Vertical Offset to Rinex Ref. Point: 0.0629                 COMMENT
Radial Measurement Point: NGP                               COMMENT
Radial Offset to Rinex Ref. Point: 0.2334                   COMMENT
Antenna Height from Field Measurement: 1.6430 m             COMMENT
Original XYZ: -2533577.6355 -4638088.6554 3559592.9633      COMMENT
New XYZ position is based on association with SCEC monument COMMENT
E1C7Y9N6+0011. Position of that monument is believed to be  COMMENT
valid to within 1 m horizontally; vertical accuracy         COMMENT
should be no worse than 3-times this value.                 COMMENT
                                                            COMMENT
Revised Rinex header created by UCSD GPS archive for        COMMENT
GSAC on 10-Apr-1999 (1999:100) 00:59:42 GMT                 COMMENT
For assistance contact dagnew@ucsd.edu or hjohnson@ucsd.edu COMMENT
                                                            COMMENT
CALABASAS RE 62 1933                                        MARKER NAME
Z. SHEN UCLA                                                OBSERVER / AGENCY
497 TRIMBLE 4000 SST 4.81                                   REC # / TYPE / VERS
129 TR 4000SST L1/L2 GEO                                    ANT # / TYPE
 -2533555.0000 -4638069.0000  3559574.0000                  APPROX POSITION XYZ
        1.5634        0.0000        0.0000                  ANTENNA: DELTA H/E/N
     1     2     0                                          WAVELENGTH FACT L1/2
     3    C1    L1    L2                                    # / TYPES OF OBSERV
    30                                                      INTERVAL
  1994     1    27     0     1   30.000000                  TIME OF FIRST OBS
  1994     1    27    21    31   60.000000                  TIME OF LAST OBS
     0                                                      # OF SATELLITES
                                                            END OF HEADER
 94  1 27  0  1 30.0000000  0  7 19 27  2 18 29 16 31
  20824819.344          -0.57417
  20780547.977          -0.12317
  22171943.391          -0.65216
  21764789.992          -0.92317
  24498898.469          -0.23813
  23950384.281          -0.81015
  22227918.234          -0.27916
 94  1 27  0  2  0.0000000  0  7 19 27  2 18 29 16 31
  20823089.219       -9090.394 7        -0.43419
  20769647.547      -57279.948 7        -0.37919
  22156898.367      -79058.234 6        -0.28017
  21776687.422       62524.901 7        -0.38317
  24515324.688       86313.226 3
  23945182.164      -27349.427 5
  22230703.781       14614.572 6        -0.39216
 94  1 27  0  2 30.0000000  0  7 19 27  2 18 29 16 31
  20821396.438      -17984.459 7     -6930.861 9
  20758785.688     -114369.970 7    -44486.082 9
  22141911.859     -157817.467 6    -61371.049 7
  21788650.297      125399.101 7     48992.486 7
  24531765.102      172722.167 3        -0.32512
  23940068.648      -54196.518 5        -0.28814
  22233593.484       29823.887 6     11851.046 6
 94  1 27  0  3  0.0000000  0  7 19 27  2 18 29 16 31
  20819745.367      -26661.045 7    -13691.824 9
  20747959.117     -171258.052 7    -88814.441 9
  22126979.406     -236283.452 6   -122513.301 7
  21800682.344      188626.657 7     98260.679 7
  24548220.172      259195.465 3     67381.416 2
  23935057.969      -80543.854 5    -20530.659 3
  22236596.945       45607.358 6     24149.879 6
 94  1 27  0  3 30.0000000  0  7 19 27  2 18 29 16 31
  20818137.695      -35111.673 7    -20276.717 9
  20737174.883     -227932.674 7   -132976.456 9
  22112102.742     -314460.197 6   -183430.184 7
  21812782.844      252216.082 6    147810.845 7
  24564686.906      345727.324 3    134808.772 3
  23930143.797     -106384.809 5    -40666.448 4
  22239707.195       61941.908 6     36878.117 7
 94  1 27  0  4  0.0000000  0  7 19 27  2 18 29 16 31
  20816572.594      -43322.489 7    -26674.747 9
  20726431.227     -284386.162 7   -176966.162 9
  22097280.945     -392356.830 6   -244128.797 7
  21824953.188      316168.829 6    197644.130 7
  24581172.211      432345.515 3    202303.371 1
  23925320.344     -131710.571 5    -60400.802 3
  22242919.953       78819.804 6     50029.745 6
 94  1 27  0  4 30.0000000  0  7 19 27  2 18 29 16 31
  20815062.766      -51266.469 7    -32864.849 9
  20715728.883     -340622.974 7   -220787.028 9
  22082509.492     -469975.790 6   -304611.037 7
  21837192.055      380474.558 7    247752.464 7
  24597669.492      519064.586 3    269876.590 1
  23920606.805     -156512.535 5    -79726.989 3
  22246228.672       96225.754 6     63592.847 7
 94  1 27  0  5  0.0000000  0  7 19 27  2 18 29 16 31
  20813599.406      -58951.667 7    -38853.300 9
  20705067.742     -396647.043 7   -264442.121 9
  22067792.875     -547325.094 6   -364883.160 7
  21849493.688      445124.329 6    298128.880 7
  24614195.953      605890.837 3    337533.347 2
  23915988.297     -180785.678 5    -98641.116 4
  22249642.836      114158.225 6     77566.218 7
 94  1 27  0  5 30.0000000  0  8 19 27  2 18 29 16 31  7
  20812185.180      -66385.117 7    -44645.580 9
  20694447.945     -452458.332 7   -307931.409 9
  22053126.922     -624400.298 6   -424941.694 7
  21861860.859      510114.200 6    348770.313 7
  24630744.094      692857.780 3    405299.710 2
  23911464.164     -204527.924 5   -117141.547 4
  22253161.266      132641.392 6     91968.714 7
  24724189.273     -129199.968 3
 94  1 27  0  6  0.0000000  0  7 19 27  2 18 16 31  7
  20810818.578      -73569.941 7    -50244.133 9
  20683866.273     -508066.324 7   -351262.288 9
  22038508.172     -701212.426 6   -484795.240 7
  21874289.539      575426.801 6    399663.221 7
  23907042.531     -227763.226 5   -135246.988 4
  22256785.039      151685.876 6    106808.590 7
  24699595.094     -258440.167 3        -0.13512
 94  1 27  0  6 30.0000000  0  7 19 27  2 18 16 31  7
  20809494.172      -80524.314 7    -55663.110 9
  20673319.398     -563491.740 7   -394450.898 9
  22023940.961     -777756.008 6   -544439.533 7
  21886778.203      641056.349 6    450803.094 7
  23902716.852     -250498.402 5   -152962.678 4
  22260517.656      171298.083 6    122090.846 7
  24674996.695     -387714.212 3   -100732.985 1
 94  1 27  0  7  0.0000000  0  7 19 27  2 18 16 31  7
  20808213.211      -87261.311 7    -60912.702 9
  20662807.188     -618724.511 7   -437489.390 9
  22009431.813     -854010.739 6   -603858.750 7
  21899329.766      707018.654 6    502202.256 7
  23898489.492     -272735.590 5   -170290.339 4
  22264358.703      191501.220 6    137833.573 6
  24650389.961     -517022.607 3   -201492.602 2
 94  1 27  0  7 30.0000000  0  7 19 27  2 18 16 31  7
  20806973.047      -93771.584 7    -65985.629 9
  20652336.047     -673760.523 7   -480374.555 9
  21994973.992     -929981.557 6   -663056.729 7
  21911945.695      773316.393 6    553862.805 7
  23894349.914     -294490.582 5   -187242.269 4
  22268315.359      212294.360 6    154036.044 6
  24625780.359     -646370.507 3   -302283.016 3
 94  1 27  0  8  0.0000000  0  7 19 27  2 18 16 31  7
  20805778.172     -100058.146 7    -70884.227 9
  20641900.961     -728591.502 7   -523099.963 9
  21980573.727    -1005661.832 6   -722028.320 7
  21924625.719      839947.858 6    605783.399 7
  23890300.570     -315749.021 5   -203807.289 5
  22272382.555      233659.726 6    170684.400 6
  24601154.328     -775750.097 3   -403098.133 2
 94  1 27  0  8 30.0000000  0  7 19 27  2 18 16 31  7
  20804620.891     -106136.215 7    -75620.368 8
  20631507.469     -783214.145 7   -565663.027 9
  21966227.016    -1081052.300 6   -780774.083 7
  21937367.297      906910.164 6    657961.784 7
  23886354.766     -336491.442 5   -219970.187 5
  22276553.898      255587.219 6    187770.782 6
  24576533.953     -905163.043 3   -503939.212 2
 94  1 27  0  9  0.0000000  0  7 19 27  2 18 16 31  7
  20803504.430     -112005.647 7    -80193.935 9
  20621157.906     -837591.951 7   -608035.307 9
  21951934.727    -1156163.798 6   -839302.463 7
  21950172.328      974201.925 6    710396.895 7
  23882501.250     -356721.446 5   -235733.788 5
  22280834.937      278072.636 6    205291.909 6
  24551896.141    -1034612.332 3   -604808.645 3
 94  1 27  0  9 30.0000000  0  7 19 27  2 18 16 31  7
  20802425.742     -117666.702 7    -84605.129 8
  20610859.195     -891720.468 7   -650213.336 9
  21937686.734    -1231016.837 6   -897629.449 7
  21963037.414     1041809.489 6    763078.086 7
  23878755.789     -376425.746 5   -251087.790 4
  22285212.719      301099.056 6    223234.601 6
  24527255.656    -1164082.422 3   -705694.271 1
 94  1 27  0 10  0.0000000  0  7 19 27  2 18 16 31  7
  20801388.852     -123124.895 7    -88858.242 8
  20600603.102     -945602.441 7   -692199.242 9
  21923497.570    -1305598.685 6   -955745.110 7
  21975961.484     1109719.079 6    815994.627 7
  23875109.438     -395581.922 5   -266014.653 4
  22289700.766      324670.061 6    241601.656 6
  24502621.609    -1293557.430 3   -806583.711 2
 94  1 27  0 10 30.0000000  0  7 19 27  2 18 16 31  7
  20800390.836     -128363.821 7    -92940.501 9
  20590400.391     -999231.938 7   -733988.428 9
  21909353.203    -1379908.052 6  -1013648.463 7
  21988942.930     1177939.578 6    869153.422 7
  23871568.391     -414198.495 5   -280521.042 2
  22294290.102      348797.655 6    260402.398 6
  24477984.297    -1423028.686 3   -907470.258 4
 94  1 27  0 11  0.0000000  0  7 19 27  2 18 16 31  7
  20799434.602     -133392.558 7    -96858.977 9
  20580238.852    -1052621.884 7   -775590.943 9
  21895264.148    -1453961.270 6  -1071352.205 7
  22001980.102     1246449.242 6    922537.536 7
  23868120.859     -432315.337 5   -294638.063 2
  22298985.609      373460.777 6    279620.431 6
  24453343.242    -1552498.535 3  -1008355.722 3
 94  1 27  0 11 30.0000000  0  7 19 27  2 18 16 31  7
  20798517.688     -138205.593 7   -100609.376 9
  20570120.602    -1105800.899 7   -817029.109 9
  21881221.680    -1527750.231 6  -1128850.038 7
  22015069.813     1315245.739 6    976145.163 7
  23864767.469     -449935.685 5   -308368.167 2
  22303782.688      398659.444 6    299255.759 6
  24428713.633    -1681957.747 3  -1109232.906 3
 94  1 27  0 12  0.0000000  0  7 19 27  2 18 16 31  7
  20797644.227     -142790.456 7   -104181.985 9
  20560041.727    -1158765.087 7   -858299.880 9
  21867233.555    -1601257.233 6  -1186128.172 7
  22028220.422     1384346.466 6   1029989.846 7
  23861506.109     -467071.729 5   -321720.957 4
  22308677.406      424394.152 6    319308.795 6
  24404078.063    -1811402.811 3  -1210099.060 4
 94  1 27  0 12 30.0000000  0  7 19 27  2 18 16 31  7
  20796817.727     -147135.932 7   -107568.046 9
  20550004.766    -1211503.612 7   -899394.789 9
  21853301.977    -1674481.628 6  -1243186.069 7
  22041434.211     1453772.808 6   1084088.266 7
  23858333.641     -483734.353 5   -334704.815 4
  22313676.414      450659.649 6    339775.443 6
  24379444.523    -1940824.300 3  -1310946.818 4
 94  1 27  0 13  0.0000000  0  7 19 27  2 18 16 31  7
  20796035.289     -151250.998 7   -110774.565 9
  20540010.813    -1264019.598 7   -940316.308 9
  21839420.773    -1747413.624 6  -1300016.131 7
  22054706.344     1523527.728 6   1138442.704 7
  23855255.469     -499918.785 5   -347316.054 3
  22318774.641      477455.204 6    360655.113 6
  24354822.484    -2070217.621 3  -1411772.712 3
 94  1 27  0 13 59.9990000  0  7 19 27  2 18 16 31  7
  20794601.058     -158790.433 7   -116649.419 9
  20520150.808    -1368393.269 7  -1021646.374 9
  21811829.042    -1892402.738 6  -1412994.524 7
  22081443.386     1664035.727 6   1247929.382 7
  23849381.284     -530777.350 5   -371361.665 3
  22329269.011      532608.945 6    403632.101 6
  24305592.206    -2328935.654 4  -1613370.986 4
 94  1 27  0 14 29.9990000  0  7 19 27  2 18 16 31  7
  20793951.456     -162205.412 7   -119310.416 9
  20510284.612    -1420238.985 7  -1062045.594 9
  21798117.464    -1964464.395 6  -1469146.384 7
  22094906.159     1734782.288 6   1303056.541 7
  23846592.761     -545431.459 5   -382780.470 3
  22334668.636      560981.895 6    425740.919 6
  24280977.323    -2458274.240 4  -1714154.200 4
 94  1 27  0 14 59.9990000  0  7 19 27  2 18 16 31  7
  20793345.909     -165376.644 7   -121781.489 9
  20500460.261    -1471864.423 7  -1102273.182 9
  21784459.823    -2036248.654 6  -1525082.113 7
  22108430.401     1805841.561 6   1358427.374 7
  23843900.886     -559569.648 5   -393797.240 4
  22340171.909      589887.807 6    448265.024 6
  24256367.698    -2587614.282 4  -1814938.579 4
 94  1 27  0 15 29.9990000  0  7 19 27  2 18 16 31  7
  20792793.761     -168277.416 7   -124041.815 9
  20490678.534    -1523267.125 7  -1142327.206 9
  21770849.519    -2107764.419 6  -1580808.632 7
  22122010.847     1877206.982 6   1414036.762 6
  23841311.409     -573195.217 5   -404414.537 2
  22345773.144      619330.655 6    471207.517 6
  24231754.034    -2716954.087 4  -1915722.785 3
 94  1 27  0 15 59.9990000  0  7 19 27  2 18 16 31  7
  20792298.339     -170897.466 7   -126083.397 9
  20480938.854    -1574443.747 7  -1182205.061 9
  21757290.940    -2179018.977 6  -1636331.608 7
  22135642.073     1948856.210 6   1469867.302 6
  23838808.800     -586339.458 5   -414656.815 3
  22351477.667      649307.793 6    494566.353 6
  24207136.503    -2846303.898 4  -2016514.798 4
 94  1 27  0 16 29.9990000  0  7 19 27  2 18 16 31  7
  20791852.042     -173245.065 7   -127912.670 9
  20471244.128    -1625387.039 7  -1221901.095 9
  21743780.237    -2250015.213 6  -1691653.278 7
  22149331.081     2020786.220 6   1525916.635 6
  23836399.347     -599024.123 5   -424540.960 3
  22357283.323      679818.086 6    518340.634 6
  24182527.292    -2975660.912 4  -2117312.388 4
 94  1 27  0 16 59.9990000  0  7 19 27  2 18 16 31  7
  20791452.909     -175336.751 7   -129542.539 9
  20461594.433    -1676098.532 7  -1261416.524 9
  21730317.237    -2320767.006 6  -1746784.505 7
  22163071.933     2092980.820 6   1582172.124 6
  23834067.933     -611249.565 5   -434067.286 3
  22363190.136      710851.275 6    542522.353 6
  24157909.581    -3105006.900 3  -2218101.435 5
 94  1 27  0 17 29.9990000  0  7 19 27  2 18 16 31  7
  20791098.644     -177187.944 7   -130984.994 9
  20451989.964    -1726569.712 7  -1300744.680 9
  21716901.862    -2391266.116 6  -1801718.820 7
  22176858.378     2165432.707 6   1638628.116 6
  23831829.683     -623011.032 5   -443232.063 3
  22369192.237      742405.932 6    567110.420 6
  24133301.722    -3234326.470 3  -2318869.865 4
 94  1 27  0 17 59.9990000  0  7 19 27  2 18 16 31  7
  20790788.097     -178824.060 7   -132259.877 9
  20442432.003    -1776801.362 7  -1339886.199 9
  21703535.315    -2461509.080 6  -1856453.550 7
  22190692.183     2238144.716 6   1695286.779 6
  23829680.714     -634301.069 5   -452029.495 4
  22375296.589      774473.501 6    592098.148 6
  24108693.401    -3363617.688 3  -2419616.197 4
 94  1 27  0 18 29.9990000  0  7 19 27  2 18 16 31  7
  20790514.620     -180258.814 7   -133377.849 9
  20432918.331    -1826795.106 7  -1378842.330 9
  21690218.612    -2531487.398 6  -1910982.061 7
  22204583.878     2311139.896 6   1752166.119 6
  23827626.440     -645095.617 5   -460440.804 3
  22381497.284      807064.104 6    617493.440 6
  24084092.292    -3492860.117 3  -2520324.492 5
 94  1 27  0 18 59.9990000  0  7 19 27  2 18 16 31  7
  20790280.745     -181497.410 7   -134342.962 9
  20423445.753    -1876574.227 7  -1417631.227 9
  21676950.151    -2601207.044 6  -1965309.007 7
  22218527.300     2384407.035 6   1809257.369 6
  23825665.737     -655401.422 5   -468471.287 4
  22387793.870      840154.300 6    643278.023 6
  24059523.597    -3622064.254 4  -2621002.970 5
 94  1 27  0 19 29.9990000  0  7 19 27  2 18 16 31  7
  20790085.964     -182519.691 7   -135139.526 9
  20414016.417    -1926129.201 7  -1456245.461 9
  21663735.362    -2670650.690 7  -2019420.891 7
  22232525.112     2457972.571 6   1866581.139 6
  23823802.714     -665209.359 5   -476113.863 3
  22394185.886      873747.815 6    669454.800 7
  24034942.104    -3751234.281 4  -2721654.834 4
 94  1 27  0 19 59.9990000  0  7 19 27  2 18 16 31  7
  20789928.440     -183327.070 7   -135768.627 9
  20404631.784    -1975452.184 7  -1494678.926 9
  21650573.214    -2739814.374 6  -2073314.626 7
  22246580.901     2531841.949 6   1924141.675 6
  23822026.472     -674524.224 5   -483372.167 4
  22400677.136      907850.641 6    696028.440 6
  24010361.323    -3880381.691 3  -2822289.066 4
 94  1 27  0 20 29.9990000  0  7 19 27  2 18 16 31  7
  20789819.940     -183903.942 7   -136218.122 9
  20395290.940    -2024534.596 7  -1532924.924 9
  21637465.464    -2808691.928 7  -2126985.397 7
  22260696.386     2606009.350 6   1981934.425 6
  23820351.573     -683352.141 5   -490251.056 4
  22407266.089      942466.662 6    723001.978 6
  23985792.105    -4009493.638 4  -2922895.648 5
 94  1 27  0 20 59.9990000  0  7 19 27  2 18 16 31  7
  20789755.956     -184240.609 7
  20385998.206    -2073369.717 7  -1570978.238 9
  21624412.933    -2877282.815 6  -2180432.789 8
  22274862.956     2680459.252 6   2039947.309 6
  23818758.284     -691705.858 5   -496760.459 4
  22413948.386      977593.729 6    750373.724 6
  23961225.792    -4138575.892 4  -3023479.082 5
 94  1 27  0 21 29.9990000  0  7 19 27  2 18 16 31  7
  20789740.253     -184338.941 7
  20376751.808    -2121944.763 7  -1608828.891 9
  21611419.097    -2945575.654 7  -2233647.937 8
  22289079.370     2755177.583 6   2098169.349 6
  23817262.558     -699579.237 5   -502895.559 3
  22420733.581     1013240.712 6    778150.601 6
  23936665.487    -4267629.120 4  -3124039.888 5
 94  1 27  0 21 59.9990000  0  7 19 27  2 18 16 31  7
  20789767.753     -184187.575 7
  20367562.378    -2170241.486 7  -1646462.670 9
  21598484.011    -3013553.571 7  -2286617.690 8
  22303350.597     2830155.874 6   2156593.957 6
  23815857.269     -706965.838 5   -508651.352 3
  22427613.503     1049408.241 6    806333.098 6
  23912126.112    -4396628.326 4  -3224558.561 5
 94  1 27  0 22 29.9990000  0  7 19 27  2 18 16 31  7
  20789846.753     -183779.869 7
  20358425.339    -2218267.036 7  -1683885.148 9
  21585604.144    -3081223.571 6  -2339347.509 8
  22317666.690     2905393.477 6   2215220.637 6
  23814540.979     -713870.640 5   -514031.703 4
  22434592.675     1086081.154 6    834909.409 6
  23887582.737    -4525573.109 4  -3325034.846 5
 94  1 27  0 22 59.9990000  0  7 19 27  2 18 16 31  7
  20789968.011     -183123.452 7   -135609.836 9
  20349339.034    -2266015.734 7  -1721091.902 9
  21572783.331    -3148591.860 7  -2391842.227 8
  22332034.597     2980893.224 6   2274051.582 6
  23813319.581     -720290.116 5   -519033.907 2
  22441668.886     1123251.598 6    863873.390 6
  23863059.167    -4654466.827 5  -3425471.310 5
 94  1 27  0 23 29.9990000  0  7 19 27  2 18 16 31  7
  20790141.198     -182223.915 7   -134908.883 9
  20340304.026    -2313489.811 7  -1758084.656 9
  21560021.401    -3215669.590 7  -2444110.538 8
  22346451.409     3056657.529 6   2333088.672 6
  23812192.987     -726231.026 5   -523663.174 4
  22448831.526     1160902.392 6    893211.686 6
  23838541.808    -4783310.138 5  -3525868.498 5
 94  1 27  0 23 59.9990000  0  7 19 27  2 18 16 31  7
  20790358.222     -181089.886 7   -134025.201 9
  20331318.378    -2360703.598 7  -1794874.592 9
  21547306.081    -3282491.510 7  -2496179.517 8
  22360921.526     3132697.201 6   2392340.327 6
  23811148.831     -731706.990 5   -527930.147 4
  22456084.448     1199025.961 6    922918.362 6
  23814036.690    -4912094.628 5  -3626219.849 5
 94  1 27  0 24 29.9990000  0  7 19 27  2 18 16 31  7
  20790616.425     -179723.523 7   -132960.486 9
  20322381.417    -2407681.100 7  -1831480.406 9
  21534632.831    -3349078.785 7  -2548065.656 8
  22375441.651     3209004.728 6   2451800.709 6
  23810191.487     -736724.686 4   -531840.045 2
  22463433.128     1237628.785 6    952998.490 6
  23789539.019    -5040818.199 5  -3726523.746 5
 94  1 27  0 24 59.9990000  0  7 19 27  2 18 16 31  7
  20790921.136     -178117.891 7   -131709.328 9
  20313484.292    -2454428.668 7  -1867907.055 9
  21522008.995    -3415422.424 7  -2599761.945 8
  22390011.487     3285556.846 6   2511451.678 6
  23809322.183     -741279.140 5   -535388.970 2
  22470869.362     1276719.171 6    983458.528 6
  23765056.651    -5169462.537 5  -3826765.879 4
 94  1 27  0 25 29.9990000  0  7 19 27  2 18 16 31  7
  20791275.245     -176269.485 7   -130268.991 9
  20304629.097    -2500953.815 7  -1904160.383 9
  21509432.269    -3481524.777 7  -2651270.225 8
  22404618.550     3362333.971 6   2571277.979 6
  23808545.534     -745370.815 5   -538577.280 4
  22478401.862     1316296.729 6   1014298.198 6
  23740592.206    -5298029.371 5  -3926947.632 5
 94  1 27  0 25 59.9990000  0  7 19 27  2 18 16 31  7
  20791674.050     -174171.798 7   -128634.414 9
  20295818.659    -2547260.996 7  -1940243.871 9
  21496898.019    -3547380.069 7  -2702585.985 8
  22419269.190     3439314.227 6   2631262.562 6
  23807860.550     -748993.497 5   -541400.149 4
  22486026.862     1356374.023 6   1045527.269 6
  23716142.878    -5426515.429 5  -4027066.449 5
 94  1 27  0 26 29.9990000  0  7 19 27  2 18 16 31  7
  20792123.940     -171807.510 7   -126792.096 9
  20287053.284    -2593324.725 7  -1976137.660 9
  21484419.175    -3612952.634 7  -2753681.442 8
  22433954.503     3516492.988 6   2691401.826 6
  23807256.722     -752143.580 4   -543854.760 4
  22493755.104     1396970.157 6   1077160.627 6
  23691705.034    -5554929.417 5  -4127129.116 5
 94  1 27  0 26 59.9990000  0  7 19 27  2 18 16 31  7
  20792622.987     -169189.303 7   -124751.912 9
  20278336.550    -2639122.800 7  -2011824.438 9
  21471998.573    -3678238.361 7  -2804553.385 8
  22448683.112     3593887.189 6   2751708.971 6
  23806750.261     -754824.614 5   -545943.859 2
  22501573.183     1438072.512 6   1109188.446 6
  23667283.706    -5683275.504 5  -4227138.866 5
 94  1 27  0 27 29.9990000  0  7 19 27  2 18 16 31  7
  20793167.753     -166325.763 7   -122520.557 9
  20269674.503    -2684651.304 7  -2047301.164 9
  21459624.347    -3743251.790 7  -2855213.162 8
  22463454.605     3671518.833 6   2812201.128 6
  23806324.651     -757040.938 5   -547670.883 2
  22509489.269     1479674.624 6   1141605.688 6
  23642875.995    -5811556.014 5  -4327097.521 5
 94  1 27  0 27 59.9990000  0  7 19 27  2 18 16 31  7
  20793758.362     -163216.733 7   -120097.923 9
  20261061.581    -2729918.045 7  -2082573.918 9
  21447304.245    -3807988.293 7  -2905657.143 8
  22478280.292     3749415.970 6   2872900.164 6
  23805989.456     -758799.098 5   -549040.880 3
  22517504.729     1521784.789 6   1174418.818 6
  23618474.323    -5939770.419 5  -4427004.688 5
 94  1 27  0 28 29.9990000  0  7 19 27  2 18 16 31  7
  20794395.386     -159870.622 7   -117490.542 9
  20252492.511    -2774934.171 7  -2117651.384 9
  21435041.011    -3872451.731 7  -2955888.346 8
  22493157.620     3827596.094 6   2933819.726 6
  23805742.448     -760109.345 5   -550061.844 4
  22525607.354     1564369.708 6   1207601.890 6
  23594090.347    -6067918.894 5  -4526860.472 5
 94  1 27  0 28 59.9990000  0  7 19 27  2 18 16 31  7
  20795078.073     -156284.954 7   -114696.495 9
  20243973.823    -2819707.846 7  -2152539.928 9
  21422821.628    -3936647.553 7  -3005911.011 8
  22508090.933     3906065.734 6   2994964.879 6
  23805580.026     -760962.041 5   -550726.263 4
  22533796.526     1607401.154 6   1241132.913 6
  23569718.667    -6195973.479 5  -4626643.101 5
 94  1 27  0 29 29.9990000  0  7 19 27  2 18 16 31  7
  20795808.831     -152440.513 7   -111700.809 9
  20235497.292    -2864247.570 7  -2187246.176 9
  21410658.706    -4000571.142 7  -3055721.555 8
  22523072.315     3984809.214 6   3056323.412 6
  23805506.081     -761361.470 5
  22542069.276     1650879.736 6   1275012.342 6
  23545364.097    -6323949.020 5  -4726364.133 5
 94  1 27  0 29 59.9990000  0  7 19 27  2 18 16 31  7
  20796589.503     -148338.641 7   -108504.523 9
  20227070.589    -2908539.638 7  -2221759.442 9
  21398547.831    -4064215.599 7  -3105314.597 8
  22538110.651     4063818.754 6   3117889.263 6
  23805508.979     -761325.112 5
  22550428.292     1694803.280 6   1309238.494 6
  23521027.956    -6451850.268 5  -4826027.271 5
 94  1 27  0 30 29.9990000  0  7 19 27  2 18 16 31  7
  20797418.394     -143982.299 7   -105109.954 9
  20218692.479    -2952563.384 7  -2256063.631 9
  21386486.776    -4127590.472 7  -3154697.572 8
  22553187.495     4143062.861 6   3179637.899 6
  23805598.753     -760863.545 5
  22558868.854     1739154.615 6   1343797.996 6
  23496703.370    -6579668.071 5  -4925625.387 5
 94  1 27  0 30 59.9990000  0  7 19 27  2 18 16 31  7
  20798296.495     -139373.494 7   -101518.657 9
  20210367.214    -2996302.609 7  -2290146.113 9
  21374478.940    -4190705.163 7  -3203877.812 8
  22568309.589     4222524.285 6   3241555.870 6
  23805765.284     -759973.090 5   -549955.692 3
  22567393.659     1783960.605 6   1378711.774 6
  23472396.745    -6707399.483 5  -5025156.197 5
 94  1 27  0 31 29.9990000  0  7 19 27  2 18 16 31  7
  20799222.394     -134503.288 7    -97723.679 9
  20202102.355    -3039747.654 7  -2323999.363 9
  21362515.339    -4253559.213 7  -3252854.948 8
  22583472.206     4302195.645 6   3303637.414 6
  23806022.456     -758649.844 5   -548924.584 4
  22576010.339     1829245.821 6   1413998.964 6
  23448102.433    -6835043.398 5  -5124618.824 5
 94  1 27  0 31 59.9990000  0  7 19 27  2 18 16 31  7
  20800193.198     -129392.339 7    -93741.110 9
  20193887.526    -3082903.925 7  -2357627.600 9
  21350605.253    -4316158.616 7  -3301633.662 8
  22598667.019     4382063.613 6   3365872.167 6
  23806354.261     -756885.943 5   -547550.111 4
  22584722.276     1875011.404 6   1449660.484 6
  23423843.144    -6962572.428 5  -5223991.927 5
 94  1 27  0 32 29.9990000  0  7 19 27  2 18 16 31  7
  20801213.300     -124038.343 7    -89569.149 9
  20185726.284    -3125795.962 7  -2391049.933 9
  21338739.159    -4378504.844 7  -3350215.098 8
  22613899.511     4462106.761 6   3428243.435 6
  23806778.269     -754662.490 5   -545817.540 4
  22593517.987     1921254.413 6   1485694.009 6
  23399590.964    -7089980.579 5  -5323270.855 5
 94  1 27  0 32 59.9990000  0  7 19 27  2 18 16 31  7
  20802278.284     -118436.872 7    -85204.351 9
  20177615.495    -3168427.755 7  -2424269.482 9
  21326924.284    -4440588.830 7  -3398592.199 8
  22629168.175     4542335.134 6   3490759.024 6
  23807289.347     -751977.205 5   -543725.137 4
  22602410.573     1967978.874 6   1522102.692 6
  23375372.347    -7217265.938 5  -5422454.119 5
 94  1 27  0 33 29.9990000  0  7 19 27  2 18 16 31  7
  20803392.276     -112586.576 7    -80645.666 9
  20169548.503    -3210806.997 7  -2457292.238 9
  21315164.190    -4502403.464 7  -3446759.403 8
  22644470.776     4622758.925 6   3553426.878 6
  23807887.979     -748845.349 5   -541284.737 2
  22611391.526     2015168.615 6   1558873.924 6
  23351170.683    -7344429.670 5  -5521542.595 5
 94  1 27  0 33 59.9990000  0  7 19 27  2 18 16 31  7
  20804553.808     -106483.231 7    -75889.801 9
  20161534.144    -3252929.349 7  -2490114.821 9
  21303451.440    -4563940.151 7  -3494710.029 8
  22659815.206     4703387.295 6   3616254.151 6
  23808564.698     -745269.704 5   -538498.549 4
  22620459.784     2062821.315 6   1596005.901 6
  23326997.073    -7471472.623 5  -5620536.973 5
 94  1 27  0 34 29.9990000  0  7 19 27  2 18 16 31  7
  20805763.261     -100124.575 7    -70934.995 8
  20153566.894    -3294795.906 7  -2522738.082 9
  21291793.401    -4625211.538 7  -3542453.927 8
  22675194.081     4784211.726 6   3679234.194 6
  23809325.104     -741275.790 5   -535386.405 2
  22629606.706     2110909.750 6   1633477.415 6
  23302843.745    -7598424.082 5  -5719460.075 5
 94  1 27  0 34 59.9990000  0  7 19 27  2 18 16 31  7
  20807025.331      -93492.837 7    -65767.394 8
  20145654.589    -3336371.025 7  -2555134.252 9
  21280188.144    -4686203.524 7  -3589980.113 8
  22690619.683     4865264.974 6   3742392.535 6
  23810164.886     -736849.349 5   -531937.252 4
  22638844.511     2159437.452 6   1671291.208 6
  23278702.128    -7725268.343 5  -5818299.633 5
 94  1 27  0 35 29.9990000  0  7 19 27  2 18 16 31  7
  20808339.675      -86585.855 7    -60385.325 8
  20137799.495    -3377657.756 7  -2587305.710 9
  21268631.925    -4746913.159 7  -3637286.284 8
  22706086.323     4946542.994 6   3805726.011 6
  23811097.159     -731973.527 5   -528137.916 4
  22648160.253     2208397.457 6   1709441.858 6
  23254585.690    -7852011.581 5  -5917060.471 5
 94  1 27  0 35 59.9990000  0  7 19 27  2 18 16 31  7
  20809704.761      -79410.038 7    -54793.769 8
  20129995.558    -3418656.605 7  -2619252.835 9
  21257135.831    -4807344.921 7  -3684375.914 8
  22721592.956     5028024.856 6   3869218.336 6
  23812109.620     -726651.797 5   -523991.136 2
  22657561.300     2257782.887 6   1747924.019 6
  23230488.089    -7978654.696 5  -6015743.316 5
 94  1 27  0 36 29.9990000  0  7 19 27  2 18 16 31  7
  20811119.480      -71976.446 7    -49001.349 8
  20122251.495    -3459361.380 7  -2650970.817 9
  21245687.425    -4867493.916 7  -3731245.213 8
  22737138.534     5109715.912 6   3932873.673 5
  23813207.378     -720890.485 5   -519501.819 3
  22667038.112     2307593.564 6   1786737.529 6
  23206404.940    -8105182.898 5  -6114336.602 5
 94  1 27  0 36 59.9990000  0  7 19 27  2 18 16 31  7
  20812581.683      -64298.639 7    -43018.631 8
  20114560.034    -3499776.075 7  -2682462.760 9
  21234294.409    -4927358.155 7  -3777892.610 8
  22752719.823     5191613.705 6   3996690.111 6
  23814387.589     -714688.152 5   -514668.814 2
  22676599.409     2357827.492 6   1825880.853 6
  23182353.120    -8231587.182 5  -6212833.322 5
 94  1 27  0 37 29.9990000  0  7 19 27  2 18 16 31  7
  20814084.987      -56393.026 7    -36858.401 8
  20106919.636    -3539916.599 7  -2713741.069 9
  21222958.854    -4986947.894 7  -3824326.118 8
  22768341.128     5273701.082 6   4060654.267 5
  23815647.479     -708070.556 5   -509512.252 2
  22686237.604     2408489.364 6   1865357.621 6
  23158321.808    -8357864.135 5  -6311230.844 5
 94  1 27  0 37 59.9990000  0  7 19 27  2 18 16 31  7
  20815631.308      -48271.371 7    -30529.831 8
  20099337.331    -3579776.710 7  -2744800.875 9
  21211665.331    -5046276.734 7  -3870556.330 8
  22784001.972     5355980.367 6   4124767.971 6
  23816977.808     -701056.215 5   -504046.566 2
  22695960.972     2459581.474 6   1905169.652 6
  23134322.487    -8483993.974 5  -6409513.731 5
 94  1 27  0 38 29.9990000  0  7 19 27  2 18 16 31  7
  20817218.034      -39931.574 7    -24031.281 8
  20091805.386    -3619351.602 7  -2775638.429 9
  21200422.612    -5105360.663 7  -3916595.699 8
  22799692.925     5438454.816 6   4189033.741 5
  23818393.925     -693631.494 5   -498261.084 3
  22705765.933     2511089.896 6   1945306.075 6
  23110345.604    -8609965.725 5  -6507673.422 5
 94  1 27  0 38 59.9990000  0  7 19 27  2 18 16 31  7
  20818850.144      -31355.061 7    -17348.270 8
  20084326.894    -3658645.644 7  -2806257.134 9
  21189226.378    -5164213.869 7  -3962455.279 8
  22815422.761     5521112.798 6   4253442.537 5
  23819882.050     -685795.746 5   -492155.320 4
  22715642.644     2563013.041 6   1985765.659 6
  23086407.675    -8735779.482 5  -6605709.997 5
 94  1 27  0 39 29.9990000  0  7 19 27  2 18 16 31  7
  20820531.354      -22520.652 7    -10464.301 8
  20076905.847    -3697660.020 7  -2836657.922 9
  21178067.675    -5222837.074 7  -4008135.635 8
  22831188.581     5603963.143 6   4318001.229 5
  23821454.276     -677549.557 5   -485729.720 3
  22725605.261     2615371.031 6   2026564.081 6
  23062497.347    -8861428.915 5  -6703618.523 5
 94  1 27  0 39 59.9990000  0  7 19 27  2 18 16 31  7
  20822263.323      -13417.155 7     -3370.657 9
  20069535.190    -3736392.697 7  -2866839.203 9
  21166953.190    -5281235.836 7  -4053641.106 8
  22846986.550     5686994.665 6   4382701.090 5
  23823099.472     -668885.631 5   -478978.587 4
  22735654.745     2668157.834 6   2067696.651 6
  23038616.245    -8986923.190 5  -6801406.161 5
 94  1 27  0 40 29.9990000  0  7 19 27  2 18 16 31  7
  20824051.362       -4017.840 7      3953.495 9
  20062217.519    -3774843.729 7  -2896801.015 9
  21155887.847    -5339395.316 7  -4098960.120 8
  22862825.729     5770205.210 6   4447540.457 5
  23824830.823     -659793.469 5   -471893.794 1
  22745779.308     2721387.266 6   2109174.116 6
  23014758.722    -9112277.966 5  -6899085.074 5
 94  1 27  0 40 59.9990000  0  7 19 27  2 18 16 31  7
  20825896.925        5679.143 7
  20054950.519    -3813018.748 7  -2926547.760 9
  21144872.964    -5397291.057 7  -4144073.631 8
  22878692.276     5853598.890 6   4512522.536 5
  23826640.425     -650277.415 5
  22755999.347     2775072.090 6   2151006.441 6
  22990931.464    -9237498.017 5  -6996659.000 6
 94  1 27  0 41 29.9990000  0  7 19 27  2 18 16 31  7
  20827794.425       15649.194 7
  20047737.714    -3850922.823 7  -2956083.381 9
  21133904.276    -5454927.240 7  -4188984.893 8
  22894594.175     5937159.804 6   4577634.911 5
  23828531.862     -640343.632 5
  22766294.808     2829194.192 6   2193179.498 6
  22967124.745    -9362603.681 5  -7094143.793 6
 94  1 27  0 41 59.9990000  0  7 19 27  2 18 16 31  7
  20829743.003       25887.305 7
  20040582.800    -3888530.337 7  -2985387.909 9
  21122985.964    -5512291.099 7  -4233683.955 8
  22910524.448     6020881.694 5   4642872.728 5
  23830500.034     -629992.921 5
  22776673.151     2883737.646 6   2235680.886 6
  22943340.003    -9487600.639 5  -7191543.869 6
 94  1 27  0 42 29.9990000  0  7 19 27  2 18 16 31  7
  20831740.409       36389.362 7     35439.686 9
  20033484.097    -3925841.317 7  -3014461.374 9
  21112123.714    -5569371.891 7  -4278162.455 8
  22926495.237     6104778.149 6   4708246.584 5
  23832548.628     -619232.658 5
  22787131.628     2938688.433 6   2278499.670 5
  22919574.972    -9612480.138 5  -7288852.418 6
 94  1 27  0 42 59.9990000  0  7 19 27  2 18 16 31  7
  20833788.042       47147.311 7     43822.517 9
  20026441.394    -3962843.935 7  -3043294.556 9
  21101316.433    -5626169.546 7  -4322420.323 8
  22942489.151     6188853.087 5   4773759.504 5
  23834673.620     -608076.751 5        -0.07213
  22797665.972     2994038.834 6   2321629.849 6
  22895838.683    -9737223.030 5  -7386054.520 6
 94  1 27  0 43 29.9990000  0  7 19 27  2 18 16 31  7
  20835885.183       58169.605 7     52411.332 9
  20019461.292    -3999523.827 7  -3071876.263 9
  21090558.964    -5682693.309 7  -4366464.772 8
  22958521.792     6273100.986 5   4839407.208 5
  23836866.433     -596531.052 5      8996.577 3
  22808273.644     3049782.454 6   2365066.430 6
  22872125.417    -9861824.891 5  -7483146.727 6
 94  1 27  0 43 59.9990000  0  7 19 27  2 18 16 31  7
  20838034.940       69463.537 7     61211.810 8
  20012541.901    -4035884.850 7  -3100209.500 9
  21079854.472    -5738948.844 7  -4410300.217 8
  22974587.026     6357519.572 6   4905187.923 5
  23839141.409     -584593.776 5     18298.351 3
  22818954.347     3105918.665 6   2408808.928 6
  22848449.565    -9986259.621 5  -7580108.707 6
 94  1 27  0 44 29.9990000  0  7 19 27  2 18 16 31  7
  20840233.542       81017.930 7     70215.254 8
  20005677.003    -4071952.269 7  -3128313.962 9
  21069197.331    -5794957.130 7  -4453943.010 8
  22990679.190     6442093.961 5   4971090.046 5
  23841488.769     -572266.995 5     27903.624 3
  22829708.706     3162436.646 6   2452848.904 5
  22824800.940   -10110506.425 5  -7676924.253 6
 94  1 27  0 44 59.9990000  0  7 19 27  2 18 16 31  7
  20842480.136       92827.230 7     79417.320 8
  19998871.831    -4107715.515 7  -3156181.393 9
  21058584.737    -5850726.814 7  -4497399.873 9
  23006801.308     6526802.789 5   5037096.905 5
  23843903.815     -559554.310 5     37809.597 4
  22840538.433     3219345.473 6   2497193.437 6
  22801194.190   -10234556.457 5  -7773586.472 6
 94  1 27  0 45 29.9990000  0  7 19 27  2 18 16 31  7
  20844774.769      104879.232 7     88808.500 8
  19992123.690    -4143178.895 7  -3183815.170 9
  21048016.847    -5906261.933 7  -4540673.962 8
  23022941.081     6611630.137 5   5103196.117 5
  23846399.769     -546448.923 4     48021.582 3
  22851439.753     3276641.519 6   2541839.692 6
  22777628.284   -10358408.263 5  -7870094.219 6
 94  1 27  0 45 59.9990000  0  7 19 27  2 18 16 31  7
  20847110.042      117156.421 7     98375.153 8
  19985428.620    -4178357.450 7  -3211227.007 9
  21037493.565    -5961561.441 7  -4583764.459 9
  23039110.073     6696578.250 5   5169389.451 5
  23848969.917     -532961.349 5     58531.375 2
  22862416.870     3334312.417 6   2586778.049 6
  22754098.386   -10482059.656 5  -7966445.827 6
 94  1 27  0 46 29.9990000  0  7 19 27  2 18 16 31  7
  20849491.886      129666.595 7    108123.354 8
  19978792.612    -4213236.079 7  -3238405.137 9
  21027017.964    -6016603.693 7  -4626654.492 9
  23055297.550     6781666.653 5   5235692.082 5
  23851603.378     -519094.195 4     69336.934 2
  22873463.550     3392369.769 6   2632017.538 5
  22730604.425   -10605513.582 6  -8062643.555 6
 94  1 27  0 46 59.9990000  0  7 19 27  2 18 16 31  7
  20851917.636      142415.718 7    118057.749 8
  19972213.862    -4247814.630 7  -3265349.435 9
  21016594.112    -6071377.968 7  -4669335.715 9
  23071518.425     6866902.069 5   5302109.252 5
  23854318.089     -504846.749 4     80438.823 2
  22884585.823     3450819.869 5   2677563.056 6
  22707148.612   -10728799.531 6  -8158710.392 6
 94  1 27  0 47 29.9990000  0  8 19 27  2 18 26 16 31  7
  20854393.901      155427.397 7    128196.736 9
  19965690.651    -4282097.077 7  -3292062.998 9
  21006223.690    -6125875.746 7  -4711801.485 9
  23087771.995     6952310.564 5   5368661.299 5
  24518464.144          -0.88513
  23857104.808     -490202.843 4     91849.665 2
  22895783.370     3509657.397 5   2723410.471 5
  22683719.581   -10851917.968 6  -8254646.712 6
 94  1 27  0 47 59.9990000  0  8 19 27  2 18 26 16 31  7
  20856924.831      168727.375 7    138560.368 9
  19959222.253    -4316079.752 7  -3318542.980 9
  20995905.979    -6180101.238 7  -4754055.074 9
  23104056.167     7037897.468 5   5435352.382 5
  24496130.745     -117368.742 3        -0.47612
  23859965.128     -475164.672 5    103567.722 2
  22907052.534     3568878.829 6   2769557.046 5
  22660317.706   -10974870.123 6  -8350453.453 6
 94  1 27  0 48 29.9990000  0  8 19 27  2 18 26 16 31  7
  20859511.175      182322.534 7    149154.009 9
  19952814.651    -4349747.143 7  -3344777.290 9
  20985637.136    -6234067.863 7  -4796106.951 9
  23120378.644     7123641.760 5   5502166.098 5
  24473825.034     -234571.044 3    -91326.819 1
  23862902.729     -459732.986 5    115592.377 2
  22918397.292     3628496.468 6   2816012.338 5
  22636953.862   -11097668.621 6  -8446140.467 6
 94  1 27  0 49 29.9980000  0  8 19 27  2 18 26 16 31  7
  20864855.186      210408.766 7    171039.419 9
  19940191.232    -4416094.995 7  -3396476.869 9
  20965236.178    -6341264.477 7  -4879636.716 9
  23153090.975     7295552.543 5   5636122.505 5
  24429329.959     -468424.356 3   -273549.959 1
  23868997.920     -427717.775 5    140539.245 2
  22941311.748     3748902.203 5   2909834.985 5
  22590320.857   -11342732.832 6  -8637099.318 6
 94  1 27  0 49 59.9980000  0  8 19 27  2 18 26 16 31  7
  20867607.990      224875.271 7    182312.029 9
  19933973.725    -4448759.673 7  -3421929.846 9
  20955108.436    -6394497.265 7  -4921116.776 9
  23169479.967     7381699.211 5   5703249.745 5
  24407134.326     -585065.233 3   -364438.814 3
  23872141.896     -411175.455 5    153429.365 2
  22952876.482     3809686.778 5   2957199.583 5
  22567058.357   -11464978.119 6  -8732355.249 6
 94  1 27  0 50 29.9980000  0  8 19 27  2 18 26 16 31  7
  20870409.568      239590.097 7    193778.143 9
  19927819.162    -4481097.747 7  -3447128.318 9
  20945026.061    -6447484.593 7  -4962405.560 9
  23185897.670     7467969.788 5   5770473.527 5
  24384972.740     -701522.976 3   -455184.967 2
  23875352.428     -394303.035 5    166576.686 2
  22964513.904     3870853.946 5   3004862.318 5
  22543828.232   -11587032.684 6  -8827462.554 6
 94  1 27  0 50 59.9980000  0  8 19 27  2 18 26 16 31  7
  20873255.053      254555.998 7    205439.892 9
  19921726.639    -4513124.621 7  -3472084.301 9
  20934989.467    -6500216.966 7  -5003495.682 9
  23202346.342     7554385.466 5   5837810.389 5
  24362842.576     -817812.154 4   -545799.792 3
  23878627.428     -377104.355 4    179978.238 2
  22976225.545     3932379.794 5   3052804.549 5
  22520642.889   -11708880.094 6  -8922408.437 6
 94  1 27  0 51 29.9980000  0  8 19 27  2 18 26 16 31  7
  20876150.834      269766.404 7    217292.170 9
  19915686.045    -4544849.093 7  -3496804.641 9
  20925005.943    -6552687.120 7  -5044381.473 9
  23218818.381     7640952.603 5   5905265.273 5
  24340741.311     -933935.148 3   -636285.114 2
  23881958.334     -359574.796 5    193637.621 1
  22988004.076     3994256.648 5   3101020.274 6
  22497495.264   -11830531.937 6  -9017201.940 6
 94  1 27  0 51 59.9980000  0  8 19 27  2 18 26 16 31  7
  20879095.443      285239.550 7    229349.173 8
  19909711.232    -4576269.459 7  -3521288.023 9
  20915069.482    -6604891.503 7  -5085060.172 9
  23235319.326     7727678.620 5   5972843.957 5
  24318675.084    -1049893.417 3   -726642.061 3
  23885365.772     -341691.382 5    207572.710 1
  22999841.803     4056498.856 5   3149520.685 6
  22474382.482   -11951978.953 6  -9111835.828 6
 94  1 27  0 52 29.9980000  0  8 19 27  2 18 26 16 31  7
  20882091.771      300981.875 7    241615.924 8
  19903784.787    -4607396.270 7  -3545542.656 9
  20905187.279    -6656834.947 7  -5125535.542 9
  23251848.326     7814553.663 5   6040538.763 5
  24296651.225    -1165674.539 3   -816860.992 1
  23888845.029     -323434.096 5    221799.178 3
  23011754.170     4119086.233 5   3198290.072 5
  22451307.756   -12073215.636 6  -9206305.831 6
 94  1 27  0 52 59.9980000  0  8 19 27  2 18 26 16 31  7
  20885138.061      317000.831 7    254098.230 9
  19897922.912    -4638217.864 7  -3569559.459 9
  20895351.373    -6708515.666 7  -5165806.188 9
  23268403.873     7901552.117 5   6108329.723 5
  24274646.459    -1281261.263 4   -906928.437 2
  23892386.529     -304785.652 4    236330.391 3
  23023727.701     4182022.181 5   3247331.056 6
  22428280.686   -12194241.085 6  -9300611.243 6
 94  1 27  0 53 29.9980000  0  8 19 27  2 18 26 16 31  7
  20888240.256      333292.246 7    266792.841 9
  19892113.240    -4668738.383 7  -3593341.662 9
  20885564.342    -6759949.509 7  -5205884.462 9
  23284976.998     7988635.719 5   6176187.034 5
  24252693.568    -1396644.541 4   -996837.357 2
  23896010.826     -285752.933 5    251161.081 2
  23035774.420     4245306.530 5   3296643.538 5
  22405290.568   -12315057.511 6  -9394753.773 6
 94  1 27  0 53 59.9980000  0  8 19 27  2 18 26 16 31  7
  20891391.553      349854.261 7    279698.320 9
  19886360.693    -4698966.321 7  -3616895.878 9
  20875824.295    -6811143.272 7  -5245775.661 9
  23301561.084     8075783.979 5   6244094.737 5
  24230773.756    -1511828.958 4  -1086591.315 1
  23899700.615     -266350.431 4    266279.896 2
  23047882.061     4308937.658 5   3346226.224 5
  22382341.264   -12435658.882 6  -9488728.729 6
 94  1 27  0 54 29.9980000  0  8 19 27  2 18 26 16 31  7
  20894593.311      366684.546 7    292812.826 8
  19880669.600    -4728886.317 7  -3640210.132 9
  20866126.006    -6862090.775 7  -5285474.975 9
  23318157.904     8162996.132 5   6312052.233 5
  24208896.811    -1626807.184 4  -1176184.640 2
  23903460.811     -246585.965 4    281680.759 1
  23060057.498     4372916.768 5   3396080.081 5
  22359431.311   -12556041.694 6  -9582533.393 6
 94  1 27  0 54 59.9980000  0  8 19 27  2 18 26 16 31  7
  20897848.209      383790.151 7    306141.879 8
  19875034.607    -4758483.486 7  -3663272.835 9
  20856479.826    -6912786.852 7  -5324978.371 9
  23334765.998     8250283.863 5   6380068.608 5
  24187055.256    -1741579.061 4  -1265617.157 2
  23907292.412     -226479.178 5    297348.351 2
  23072300.139     4437249.095 5   3446209.158 5
  22336568.443   -12676199.524 6  -9676162.752 6
 94  1 27  0 55 29.9980000  0  8 19 27  2 18 26 16 31  7
  20901156.545      401174.830 7    319688.392 8
  19869463.248    -4787754.254 7  -3686081.203 9
  20846881.076    -6963239.958 7  -5364292.435 9
  23351396.131     8337666.255 5   6448158.753 5
  24165249.951    -1856145.178 3  -1354889.349 2
  23911178.826     -206049.602 4    313267.516 1
  23084606.279     4501921.139 5   3496602.943 6
  22313742.897   -12796127.822 6  -9769613.259 6
 94  1 27  0 55 59.9980000  0  8 19 27  2 18 26 16 31  7
  20904518.318      418842.665 7    333455.545 8
  19863960.420    -4816688.141 7  -3708627.059 9
  20837326.201    -7013447.618 7  -5403415.248 9
  23368045.795     8425165.411 5   6516339.893 5
  24143490.178    -1970510.986 3  -1444005.413 2
  23915128.287     -185285.244 3    329447.508 2
  23096976.975     4566928.197 5   3547257.790 6
  22290966.342   -12915827.546 6  -9862885.648 6
 94  1 27  0 56 29.9980000  0  8 19 27  2 18 26 16 31  7
  20907935.561      436796.352 7    347445.435 8
  19858520.975    -4845274.160 7  -3730901.853 9
  20827815.373    -7063420.375 7  -5442355.018 9
  23384717.943     8512786.806 5   6584616.276 5
  24121758.912    -2084673.348 3  -1532962.990 2
  23919146.295     -164182.596 4    345891.116 2
  23109406.271     4632258.827 5   3598164.769 5
  22268230.381   -13035304.482 6  -9955984.441 6
 94  1 27  0 56 59.9980000  0  8 19 27  2 18 26 16 31  7
  20911408.076      455042.426 7    361663.173 8
  19853146.725    -4873511.272 7  -3752904.772 9
  20818347.842    -7113167.290 7  -5481118.812 9
  23401415.436     8600533.716 5   6652990.452 5
  24100077.725    -2198625.793 4  -1621756.961 2
  23923224.459     -142745.361 4    362595.450 2
  23121898.928     4697910.619 5   3649322.001 6
  22245542.209   -13154544.496 6 -10048898.633 6
 94  1 27  0 57 29.9980000  0  8 19 27  2 18 26 16 31  7
  20914934.193      473571.154 7    376101.158 8
  19847840.818    -4901400.102 7  -3774636.298 9
  20808921.686    -7162706.606 7  -5519720.836 9
  23418137.975     8688396.011 5   6721454.557 5
  24078429.279    -2312386.909 4  -1710401.871 1
  23927367.342     -120959.036 4    379571.799 1
  23134454.584     4763888.719 5   3700733.505 6
  22222894.998   -13273554.008 6 -10141633.212 6
 94  1 27  0 57 59.9980000  0  8 19 27  2 18 26 16 31  7
  20918510.678      492367.355 7    390747.559 8
  19842596.717    -4928945.932 7  -3796100.558 9
  20799537.506    -7212026.306 7  -5558151.735 9
  23434876.865     8776358.113 5   6789996.427 4
  24056818.568    -2425957.345 4  -1798898.196 2
  23931579.873      -98823.612 4    396820.145 2
  23147072.279     4830200.012 5   3752404.634 5
  22200291.592   -13392334.893 6 -10234189.652 6
 94  1 27  0 58 29.9980000  0  8 19 27  2 18 26 16 31  7
  20922134.998      511417.030 7    405591.481 8
  19837420.186    -4956141.349 7  -3817291.773 9
  20790196.318    -7261118.170 7  -5596405.100 9
  23451630.084     8864406.990 5   6858605.905 4
  24035251.920    -2539312.438 4  -1887226.713 3
  23935855.279      -76353.564 4    414329.261 2
  23159756.256     4896852.997 5   3804342.016 6
  22177730.803   -13510884.232 6 -10326565.666 6
 94  1 27  0 58 59.9980000  0  8 19 27  2 18 26 16 31  7
  20925808.100      530717.789 7    420631.051 8
  19832314.201    -4982990.319 7  -3838213.023 9
  20780897.756    -7309968.964 7  -5634470.630 9
  23468401.217     8952542.077 5   6927282.578 3
  24013720.576    -2652442.800 4  -1975380.109 2
  23940199.334      -53547.942 4    432099.850 2
  23172507.576     4963849.861 5   3856547.363 5
  22155214.748   -13629200.160 6 -10418759.803 6
 94  1 27  0 59 29.9980000  0  8 19 27  2 18 26 16 31  7
  20929529.209      550267.236 7    435864.406 8
  19827268.006    -5009502.753 7  -3858872.036 9
  20771652.834    -7358553.307 7  -5672328.523 9
  23485191.506     9040753.652 5   6996018.853 3
  23992238.303    -2765330.653 4  -2063344.547 4
  23944599.162      -30410.366 4    450129.090 3
  23185321.279     5031183.741 5   3909015.328 5
  22132743.764   -13747299.687 6 -10510785.320 6
 94  1 27  0 59 59.9980000  0  8 19 27  2 18 26 16 31  7
  20933295.646      570064.311 7    451290.712 8
  19822281.771    -5035690.260 7  -3879277.861 9
  20762461.326    -7406864.604 7  -5709973.657 9
  23501989.201     9129034.789 5   7064809.306 4
  23970802.522    -2877950.279 4  -2151099.986 3
  23949062.881       -6958.306 4    468403.409 3
  23198193.514     5098837.206 5   3961732.306 5
  22110309.568   -13865182.672 6 -10602642.114 6
 94  1 27  1  0 29.9980000  0  8 19 27  2 18 26 16 31  7
  20937116.232      590142.906 7    466936.393 8
  19817365.365    -5061546.256 7  -3899425.366 9
  20753316.693    -7454906.735 7  -5747409.051 9
  23518801.006     9217401.213 5   7133666.241 3
  23949426.982    -2990290.946 4  -2238638.057 3
  23953593.225       16820.849 4    486932.602 3
  23211131.647     5166815.536 5   4014702.429 5
  22087919.045   -13982832.269 6 -10694317.038 6
 94  1 27  1  0 59.9980000  0  8 19 27  2 18 26 16 31  7
  20940993.037      610515.801 7    482811.393 8
  19812503.178    -5087090.282 7  -3919329.780 9
  20744227.514    -7502678.906 7  -5784634.084 9
  23535638.998     9305856.229 5   7202592.190 4
  23928101.686    -3102373.074 4  -2325974.678 2
  23958170.514       40917.518 4    505709.209 2
  23224120.068     5235099.765 5   4067910.913 5
  22065578.529   -14100249.600 6 -10785810.979 6
 94  1 27  1  1 29.9980000  0  8 19 27  2 18 26 16 31  7
  20944927.428      631184.569 7    498916.943 8
  19807702.889    -5112319.678 7  -3938989.024 9
  20735183.537    -7550194.176 7  -5821658.942 9
  23552484.709     9394394.407 5   7271582.944 4
  23906822.303    -3214202.024 4  -2413114.022 3
  23962819.326       65327.972 4    524730.321 3
  23237176.881     5303684.304 5   4121353.408 5
  22043281.646   -14217418.700 6 -10877111.500 6
 94  1 27  1  1 59.9980000  0  8 19 27  2 18 26 16 31  7
  20948916.193      652146.383 7    515250.835 8
  19802959.998    -5137235.826 7  -3958404.187 9
  20726188.748    -7597478.080 7  -5858503.499 9
  23569344.904     9483015.390 5   7340638.211 2
  23885587.170    -3325807.805 4  -2500079.435 3
  23967521.217       90050.091 3    543994.282 2
  23250282.717     5372571.708 5   4175031.906 5
  22021035.482   -14334325.657 6 -10968207.752 6
 94  1 27  1  2 29.9980000  0  8 19 27  2 18 26 16 31  7
  20952960.381      673404.332 7    531815.486 8
  19798281.951    -5161830.834 7  -3977569.106 9
  20717231.709    -7644531.625 7  -5895168.563 9
  23586227.162     9571707.905 5   7409749.233 4
  23864383.857    -3437212.060 4  -2586887.854 3
  23972281.803      115076.022 3    563494.995 2
  23263448.709     5441751.589 5   4228938.304 5
  21998839.068   -14450966.819 6 -11059096.885 6
 94  1 27  1  2 59.9980000  0  8 19 27  2 18 26 16 31  7
  20957061.553      694957.592 7    548610.243 8
  19793665.615    -5186077.059 7  -3996462.248 9
  20708327.842    -7691335.335 7  -5931638.944 9
  23603118.014     9660476.553 5   7478919.578 3
  23843222.123    -3548405.039 4  -2673531.605 4
  23977106.709      140410.174 4    583235.864 2
  23276667.896     5511222.000 5   4283071.088 5
  21976695.686   -14567326.033 6 -11149766.327 6
 94  1 27  1  3 29.9980000  0  8 19 27  2 18 26 16 31  7
  20961216.732      716787.281 7    565620.407 8
  19789121.498    -5209959.492 7  -4015071.918 9
  20699464.897    -7737909.706 7  -5967930.621 9
  23620024.693     9749307.597 5   7548138.531 4
  23822107.904    -3659378.557 5  -2760004.396 3
  23981981.529      166047.012 3    603212.600 2
  23289944.037     5580990.405 5   4337436.079 5
  21954608.029   -14683406.845 6 -11240218.834 6
 94  1 27  1  3 59.9980000  0  8 19 27  2 18 26 16 31  7
  20965421.857      738888.357 7    582842.032 8
  19784648.795    -5233468.045 7  -4033390.257 9
  20690644.256    -7784249.243 7  -6004039.305 9
  23636937.357     9838200.423 5   7617405.626 3
  23801035.600    -3770118.955 5  -2846295.497 2
  23986918.146      191978.798 3    623419.208 1
  23303282.920     5651059.676 5   4392035.519 5
  21932565.467   -14799221.416 6 -11330463.872 7
 94  1 27  1  4 29.9980000  0  8 19 27  2 18 26 16 31  7
  20969674.834      761240.066 7    600258.966 8
  19780247.451    -5256604.767 7  -4051418.848 9
  20681868.701    -7830366.131 7  -6039974.495 9
  23653859.857     9927139.566 5   7686708.807 4
  23780009.920    -3880612.765 5  -2932394.452 4
  23991905.748      218182.215 3    643837.402 2
  23316669.436     5721410.428 5   4446854.294 5
  21910574.826   -14914786.545 6 -11420514.540 7
 94  1 27  1  4 59.9980000  0  8 19 27  2 18 26 16 31  7
  20973976.131      783840.532 7    617869.729 8
  19775916.373    -5279361.444 7  -4069151.306 9
  20673134.607    -7876262.868 7  -6075738.144 9
  23670796.420    10016149.890 5   7756067.454 4
  23759033.404    -3990826.166 5  -3018274.936 3
  23996947.107      244668.872 3    664476.321 2
  23330107.631     5792070.887 5   4501914.402 5
  21888633.061   -15030092.673 6 -11510363.395 7
 94  1 27  1  5 29.9980000  0  8 19 27  2 18 26 16 31  7
  20978323.826      806692.351 7    635676.351 8
  19771655.131    -5301748.621 7  -4086595.838 9
  20664442.686    -7921950.439 7  -6111338.804 9
  23687751.451    10105228.898 5   7825479.612 4
  23738119.076    -4100754.946 5  -3103933.592 3
  24002038.131      271435.239 3    685333.195 2
  23343619.272     5863045.176 5   4557219.039 5
  21866740.498   -15145139.613 6 -11600010.275 7
 94  1 27  1  5 59.9980000  0  8 19 27  2 18 26 16 31  7
  20982721.389      829794.892 7    653678.339 8
  19767458.045    -5323793.674 7  -4103773.780 9
  20655789.764    -7967427.333 7  -6146775.307 9
  23704713.514    10194365.141 5   7894936.381 3
  23717242.326    -4210426.275 5  -3189391.653 2
  24007181.217      298464.039 4    706394.602 2
  23357175.248     5934304.725 5   4612745.971 5
  21844896.818   -15259931.021 6 -11689458.038 7
 94  1 27  1  6 29.9980000  0  8 19 27  2 18 26 16 31  7
  20987170.045      853176.113 7    671897.483 8
  19763329.404    -5345490.515 7  -4120680.386 9
  20647178.279    -8012671.332 7  -6182030.338 9
  23721690.256    10283572.023 5   7964448.200 3
  23696423.834    -4319837.840 5  -3274647.316 3
  24012378.162      325776.177 3    727676.779 3
  23370797.943     6005854.663 5   4668499.153 5
  21823107.545   -15374438.055 6 -11778684.210 7
 94  1 27  1  6 59.9980000  0  8 19 27  2 18 26 16 31  7
  20991678.303      876859.718 7    690352.249 8
  19759269.404    -5366843.926 7  -4137319.382 9
  20638613.100    -8057675.084 7  -6217098.157 9
  23738679.568    10372845.147 5   8034011.611 3
  23675648.865    -4428996.879 5  -3359706.182 4
  24017632.084      353381.948 4    749187.747 2
  23384463.264     6077684.054 5   4724470.098 5
  21801372.209   -15488653.671 6 -11867683.300 7
 94  1 27  1  7 29.9980000  0  8 19 27  2 18 26 16 31  7
  20996243.842      900860.761 7    709054.372 8
  19755269.084    -5387849.031 7  -4153686.968 9
  20630099.990    -8102422.388 7  -6251966.154 9
  23755677.873    10462172.664 5   8103617.423 3
  23654928.061    -4537914.314 5  -3444576.797 4
  24022941.662      381269.069 4    770917.954 2
  23398182.397     6149779.835 5   4780648.632 5
  21779693.576   -15602575.105 6 -11956453.157 7
 94  1 27  1  7 59.9980000  0  8 19 27  2 18 26 16 31  7
  21000871.826      925178.636 7    728003.373 8
  19751342.920    -5408499.480 7  -4169778.206 9
  20621633.404    -8146904.696 7  -6286627.661 9
  23772686.326    10551548.155 5   8173260.619 2
  23634247.404    -4646584.489 5  -3529254.740 4
  24028302.576      409433.832 4    792864.510 2
  23411955.373     6222144.387 5   4837036.604 5
  21758070.014   -15716200.230 6 -12044992.125 7
 94  1 27  1  8 29.9980000  0  8 19 27  2 18 26 16 31  7
  21005559.225      949816.507 7    747201.724 8
  19747478.795    -5428784.979 7  -4185585.068 9
  20613219.693    -8191134.013 7  -6321092.028 9
  23789697.545    10640963.246 5   8242934.657 3
  23613623.303    -4754982.623 5  -3613720.710 3
  24033716.373      437886.815 3    815035.664 2
  23425772.889     6294784.651 5   4893639.412 5
  21736506.037   -15829532.463 6 -12133302.864 7
 94  1 27  1  8 59.9980000  0  8 19 27  2 18 26 16 31  7
  21010305.217      974752.230 7    766632.170 8
  19743689.756    -5448708.965 7  -4201110.231 9
  20604845.279    -8235130.541 7  -6355375.004 9
  23806719.170    10730404.571 5   8312629.150 2
  23593044.607    -4863104.444 5  -3697971.367 3
  24039177.787      466611.757 3    837418.718 2
  23439649.287     6367698.765 5   4950455.590 5
  21714992.600   -15942580.934 6 -12221392.491 7
 94  1 27  1  9 29.9980000  0  8 19 27  2 18 26 16 31  7
  21015104.061      999971.692 7    786283.708 8
  19739969.521    -5468257.296 7  -4216342.674 9
  20596517.045    -8278892.249 7  -6389475.007 9
  23823746.170    10819882.193 5   8382351.937 2
  23572525.826    -4970932.960 5  -3781993.466 4
  24044697.826      495613.840 3    860017.718 1
  23453584.959     6440907.125 5   5007501.074 5
  21693537.420   -16055338.358 6 -12309255.323 7
 94  1 27  1  9 59.9980000  0  8 19 27  2 18 26 16 31  7
  21019949.756     1025436.905 7    806126.735 8
  19736311.990    -5487472.251 7  -4231315.344 9
  20588229.209    -8322452.479 7  -6423418.010 9
  23840776.139    10909368.452 5   8452081.440 3
  23552059.498    -5078484.763 5  -3865799.974 3
  24050270.615      524895.457 3    882834.515 1
  23467562.701     6514377.923 5   5064751.049 5
  21672130.373   -16167829.003 6 -12396910.287 7
 94  1 27  1 10 29.9980000  0  8 19 27  2 18 26 16 31  7
  21024842.779     1051146.613 7    826160.285 8
  19732715.990    -5506359.094 7  -4246032.339 9
  20579980.607    -8365808.261 7  -6457201.706 9
  23857806.318    10998874.515 5   8521826.377 2
  23531647.772    -5185756.930 5  -3949388.557 4
  24055897.639      554465.666 3    905876.205 2
  23481588.232     6588095.691 5   5122193.448 5
  21650777.162   -16280040.820 6 -12484347.973 7
 94  1 27  1 10 59.9980000  0  8 19 27  2 18 26 16 31  7
  21029782.115     1077100.906 7    846384.416 8
  19729185.615    -5524910.762 7  -4260488.162 9
  20571771.686    -8408945.075 7  -6490814.769 9
  23874847.404    11088419.585 5   8591601.739 4
  23511289.967    -5292754.114 5  -4032762.877 4
  24061578.357      584319.545 4    929138.923 2
  23495666.881     6662055.090 5   5179824.150 5
  21629478.732   -16391961.164 6 -12571558.551 7
 94  1 27  1 11 29.9980000  0  8 19 27  2 18 26 16 31  7
  21034768.115     1103303.724 7    866802.212 8
  19725718.537    -5543133.896 7  -4274687.990 9
  20563606.271    -8451850.574 7  -6524247.588 9
  23891896.928    11177998.174 5   8661403.192 2
  23490973.803    -5399487.161 5  -4115931.373 5
  24067314.389      614453.622 3    952620.011 2
  23509785.568     6736244.423 5   5237634.020 5
  21608238.381   -16503584.770 6 -12658537.902 7
 94  1 27  1 11 59.9980000  0  8 19 27  2 18 26 16 31  7
  21039806.725     1129780.692 7    887433.631 8
  19722318.771    -5561009.046 7  -4288616.653 9
  20555490.709    -8494495.410 7  -6557477.292 9
  23908949.350    11267620.499 5   8731238.709 2
  23470714.943    -5505954.654 5  -4198892.969 5
  24073102.740      644874.989 3    976324.928 1
  23523949.326     6810679.624 5   5295635.456 5
  21587055.240   -16614889.452 6 -12745268.746 7
 94  1 27  1 12 29.9980000  0  8 19 27  2 18 26 16 31  7
  21044901.568     1156556.151 7    908297.635 8
  19718990.084    -5578506.026 7  -4302250.650 9
  20547422.756    -8536881.811 7  -6590505.615 9
  23926012.428    11357288.886 4   8801110.146 2
  23450506.639    -5612151.715 5  -4281643.817 5
  24078943.271      675553.069 3   1000229.906 2
  23538161.287     6885370.625 5   5353836.229 5
  21565940.561   -16725855.350 6 -12831735.601 7
 94  1 27  1 12 59.9980000  0  8 19 27  2 18 26 16 31  7
  21050054.170     1183632.588 6    929396.173 8
  19715733.686    -5595622.458 7  -4315588.101 9
  20539404.967    -8579015.849 7  -6623337.300 9
  23943079.467    11446980.646 4   8870999.802 2
  23430351.545    -5718075.143 5  -4364181.461 4
  24084821.482      706472.587 3   1024323.038 3
  23552424.943     6960331.699 5   5412247.460 5
  21544886.592   -16836494.227 6 -12917947.643 7
 94  1 27  1 13 29.9980000  0  8 19 27  2 18 26 16 31  7
  21055262.756     1211013.374 7    950731.864 8
  19712545.896    -5612364.617 7  -4328633.926 9
  20531434.373    -8620910.366 7  -6655982.339 9
  23960149.686    11536679.918 4   8940895.297 2
  23410244.061    -5823714.751 5  -4446497.949 5
  24090751.717      737631.945 3   1048603.010 2
  23566742.678     7035568.976 5   5470873.920 5
  21523894.662   -16946807.085 6 -13003905.649 7
 94  1 27  1 13 59.9980000  0  8 19 27  2 18 26 16 31  7
  21060533.959     1238704.708 6    972309.537 8
  19709434.701    -5628724.375 7  -4341381.771 9
  20523503.365    -8662584.542 7  -6688455.684 9
  23977218.139    11626391.168 3   9010800.120 2
  23390198.514    -5929050.835 5  -4528577.925 4
  24096725.326      769021.186 3   1073062.138 1
  23581112.982     7111078.865 5   5529712.781 5
  21502961.584   -17056802.232 6 -13089616.087 7
 94  1 27  1 14 29.9980000  0  8 19 27  2 18 26 16 31  7
  21065861.467     1266703.250 6    994126.592 8
  19706390.646    -5644706.187 7  -4353835.111 9
  20515615.209    -8704046.354 7  -6720763.556 9
  23994292.100    11716115.541 3   9080715.187 3
  23370215.623    -6034056.615 5  -4610400.525 4
  24102744.068      800641.087 3   1097701.024 1
  23595531.764     7186844.246 5   5588750.738 5
  21482094.779   -17166475.908 6 -13175076.028 7
 94  1 27  1 14 59.9980000  0  8 19 27  2 18 26 15 31  7
  21071241.951     1294978.747 6   1016159.452 7
  19703422.068    -5660320.570 7  -4366002.143 9
  20507762.998    -8745295.419 7  -6752905.640 9
  24011365.889    11805851.776 3   9150639.463 2
  23350295.732    -6138739.720 5  -4691971.692 4
  24049214.201          -0.24913
  23609988.373     7262842.586 4   5647970.225 5
  21461278.779   -17275854.633 6 -13260306.137 8
 94  1 27  1 15 29.9980000  0  8 19 27  2 18 26 15 31  7
  21076675.537     1323530.797 6   1038407.812 8
  19700521.131    -5675562.265 7  -4377878.772 9
  20499954.662    -8786335.116 7  -6784884.595 9
  24028449.021    11895609.270 3   9220580.343 2
  23330437.646    -6243101.386 5  -4773292.386 5
  24033935.600      -80275.965 3
  23624496.029     7339053.225 5   5707355.132 5
  21440519.951   -17384938.392 6 -13345306.407 8
 94  1 27  1 15 59.9980000  0  8 19 27  2 18 26 15 31  7
  21082158.873     1352349.415 6   1060863.890 8
  19697691.240    -5690424.853 7  -4389459.994 9
  20492185.662    -8827163.013 7  -6816698.500 9
  24045530.170    11985391.091 3   9290540.156 2
  23310641.318    -6347140.819 5  -4854361.981 4
  24018708.107     -160288.681 3        -0.31312
  23639037.443     7415468.452 5   5766899.466 5
  21419819.240   -17493726.544 6 -13430076.333 8
 94  1 27  1 16 29.9980000  0  8 19 27  2 18 26 15 31  7
  21087691.990     1381431.309 6   1083525.108 7
  19694934.061    -5704912.242 7  -4400748.842 9
  20484457.678    -8867772.736 7  -6848342.404 9
  24062626.404    12075189.270 3   9360512.700 2
  23290904.561    -6450862.888 5  -4935184.277 4
  24003542.740     -240031.559 3    -62137.537 2
  23653615.123     7492093.132 5   5826606.999 5
  21399173.756   -17602211.632 6 -13514610.105 8
 94  1 27  1 16 59.9980000  0  8 19 27  2 18 26 15 31  7
  21093276.646     1410774.084 6   1106389.622 7
  19692247.975    -5719029.048 7  -4411748.934 9
  20476768.732    -8908176.717 7  -6879825.987 9
  24079715.693    12164993.831 3   9430490.229 1
  23271221.787    -6554287.242 5  -5015774.588 5
  23988415.076     -319507.766 3   -124066.968 2
  23668235.693     7568925.490 5   5886476.359 5
  21378588.889   -17710394.052 6 -13598908.034 8
 94  1 27  1 17 29.9980000  0  8 19 27  2 18 26 15 31  7
  21098913.029     1440395.899 6   1129471.565 7
  19689632.295    -5732782.701 7  -4422466.045 9
  20469118.545    -8948375.469 7  -6911149.660 9
  24096802.873    12254800.224 3   9500469.210 1
  23251602.037    -6657401.619 5  -5096123.353 5
  23973342.498     -398708.992 3   -185782.118 2
  23682902.115     7645987.855 5   5946524.954 5
  21358063.412   -17818246.953 6 -13682949.192 8
 94  1 27  1 17 59.9980000  0  8 19 27  2 18 26 15 31  7
  21104604.717     1470303.463 6   1152776.163 7
  19687086.420    -5746164.955 7  -4432893.763 9
  20461509.693    -8988356.986 7  -6942304.049 9
  24113890.787    12344604.821 3   9570446.774 2
  23232041.717    -6760193.518 5  -5176220.849 5
  23958323.842     -477623.491 3   -247273.834 1
  23697608.998     7723289.890 5   6006760.320 5
  21337608.490   -17925745.182 6 -13766713.987 8
 94  1 27  1 18 29.9980000  0  8 19 27  2 18 26 15 31  7
  21110346.029     1500476.296 6   1176287.471 7
  19684603.865    -5759190.086 7  -4443043.198 9
  20453942.967    -9028136.447 7  -6973300.990 9
  24130975.936    12434370.642 3   9640394.106 2
  23212534.350    -6862692.017 5  -5256089.720 5
  23943360.178     -556271.426 3   -308557.861 2
  23712354.084     7800795.036 5   6067153.922 5
  21317214.951   -18032907.332 6 -13850216.900 8
 94  1 27  1 18 59.9980000  0  8 19 27  2 18 26 15 31  7
  21116139.865     1530922.235 6   1200011.586 7
  19682199.670    -5771840.043 7  -4452900.292 9
  20446411.912    -9067692.046 7  -7004123.503 9
  24148053.420    12524110.041 3   9710320.860 1
  23193086.506    -6964878.689 5  -5335715.591 5
  23928446.014     -634644.180 3   -369627.452 2
  23727151.139     7878507.008 5   6127708.721 5
  21296891.256   -18139720.537 6 -13933447.907 8
 94  1 27  1 19 29.9980000  0  8 19 27  2 18 26 15 31  7
  21121988.014     1561644.447 6   1223950.977 8
  19679862.795    -5784102.639 7  -4462455.538 9
  20438933.373    -9107007.680 7  -7034759.025 9
  24165124.389    12613825.914 4   9780229.317 2
  23173703.561    -7066737.744 5  -5415086.187 5
  23913579.623     -712736.423 3   -430478.457 1
  23741976.342     7956428.090 5   6188426.445 5
  21276628.068   -18246195.326 6 -14016415.221 8
 94  1 27  1 19 59.9980000  0  8 19 27  2 18 26 15 31  7
  21127884.107     1592642.681 6   1248105.444 7
  19677610.592    -5795957.838 7  -4471693.327 9
  20431499.912    -9146064.761 7  -7065193.078 9
  24182190.631    12703524.803 4   9850124.536 2
  23154386.693    -7168268.719 5  -5494201.133 5
  23898773.732     -790541.314 3   -491105.550 2
  23756840.420     8034546.670 5   6249298.067 5
  21256430.756   -18352334.321 6 -14099120.873 8
 94  1 27  1 20 29.9980000  0  8 19 27  2 18 26 15 31  7
  21133836.928     1623918.341 6   1272476.097 8
  19675432.865    -5807407.490 7  -4480615.115 9
  20424115.748    -9184862.321 7  -7095424.907 9
  24199259.521    12793217.360 3   9920014.783 2
  23135124.639    -7269478.578 5  -5573065.862 5
  23884031.990     -868059.215 3   -551509.007 1
  23771748.256     8112868.714 5   6310328.219 5
  21236296.420   -18458141.360 6 -14181567.856 8
 94  1 27  1 20 59.9980000  0  8 19 27  2 18 26 15 31  7
  21139844.451     1655488.853 6   1297076.504 7
  19673326.568    -5818466.107 7  -4489232.205 9
  20416781.365    -9223408.355 7  -7125460.742 9
  24216327.701    12882915.168 3   9989909.144 2
  23115929.928    -7370358.356 5  -5651673.385 5
  23869336.748     -945279.652 3   -611680.699 2
  23786696.889     8191411.818 5   6371530.649 5
  21216225.272   -18563612.337 6 -14263752.970 8
 94  1 27  1 21 29.9980000  0  8 19 27  2 18 26 15 31  7
  21145909.795     1687365.747 6   1321915.652 7
  19671294.506    -5829140.723 7  -4497550.073 9
  20409491.639    -9261722.320 7  -7155315.738 9
  24233395.834    12972611.268 3  10059802.160 2
  23096793.865    -7470915.893 5  -5730029.817 5
  23854697.350    -1022197.054 3   -671616.241 2
  23801676.397     8270173.924 4   6432903.719 5
  21196220.107   -18668740.108 6 -14345670.640 8
 94  1 27  1 21 59.9980000  0  8 19 27  2 18 26 15 31  7
  21152035.326     1719545.903 6   1346991.105 7
  19669332.217    -5839453.012 7  -4505585.600 9
  20402237.232    -9299834.892 7  -7185013.808 9
  24250457.225    13062278.223 3  10129672.471 2
  23077719.420    -7571169.182 5  -5808149.162 5
  23840110.842    -1098822.264 3   -731324.078 2
  23816707.123     8349140.383 4   6494436.015 4
  21176280.865   -18773523.651 6 -14427320.089 8
 94  1 27  1 22 29.9980000  0  8 19 27  2 18 26 15 31  7
  21158218.639     1752043.655 6   1372314.038 8
  19667439.084    -5849407.012 7  -4513341.945 9
  20395019.881    -9337763.683 7  -7214568.674 9
  24267511.045    13151913.419 2  10199518.016 2
  23058700.912    -7671102.837 5  -5886019.438 5
  23825591.490    -1175145.440 3   -790796.594 3
  23831774.818     8428313.613 4   6556129.443 2
  21156408.943   -18877954.372 6 -14508694.612 8
 94  1 27  1 22 59.9980000  0  7 19 27  2 26 15 31  7
  21164460.834     1784855.516 6   1397881.729 7
  19665611.803    -5859007.678 7  -4520822.970 9
  20387837.420    -9375516.029 7  -7243986.045 9
  23039746.045    -7770703.052 5  -5963629.908 5
  23811123.311    -1251162.782 3   -850030.808 2
  23846872.857     8507678.216 4   6617972.004 4
  21136601.397   -18982035.721 6 -14589796.892 8
 94  1 27  1 23 59.9970000  0  7 19 27  2 26 15 31  7
  21177115.946     1851351.249 6   1449696.597 7
  19662172.642    -5877084.803 7  -4534909.003 9
  20373579.290    -9450437.833 7  -7302366.597 9
  23002037.524    -7968870.521 5  -6118045.932 5
  23782372.587    -1402262.369 4   -967770.537 2
  23877188.321     8666960.692 4   6742088.228 4
  21097194.649   -19189121.840 6 -14751162.560 8
 94  1 27  1 24 29.9970000  0  7 19 27  2 26 15 31  7
  21183519.157     1885000.154 6   1475916.521 7
  19660558.040    -5885559.029 7  -4541512.284 9
  20366512.774    -9487574.267 7  -7331304.039 9
  22983279.735    -8067424.049 5  -6194840.793 5
  23768086.267    -1477340.512 4  -1026272.903 1
  23892392.579     8746871.253 4   6804356.216 4
  21077592.774   -19292126.126 6 -14831425.575 9
 94  1 27  1 24 59.9970000  0  7 19 27  2 26 15 31  7
  21189970.212     1918895.830 6   1502328.738 7
  19659015.603    -5893657.747 7  -4547822.952 9
  20359491.064    -9524483.547 7  -7360064.482 9
  22964591.712    -8165619.022 5  -6271356.268 5
  23753856.720    -1552106.388 4  -1084531.935 2
  23907632.157     8826952.366 4   6866757.086 2
  21058060.603   -19394776.210 7 -14911412.595 8
 94  1 27  1 25 29.9970000  0  7 19 27  2 26 15 31  7
  21196468.142     1953048.392 6   1528941.132 7
  19657550.751    -5901362.108 7  -4553826.338 9
  20352511.306    -9561154.251 7  -7388639.020 9
  22945977.024    -8263456.158 5  -6347592.900 5
  23739693.485    -1626552.029 4  -1142541.419 1
  23922906.017     8907211.113 4   6929296.384 5
  21038596.048   -19497065.953 6 -14991118.827 8
 94  1 27  1 25 59.9970000  0  7 19 27  2 26 15 31  7
  21203018.571     1987467.822 6   1555761.466 7
  19656161.923    -5908668.359 7  -4559519.506 9
  20345576.415    -9597598.589 7  -7417037.171 9
  22927431.829    -8360923.527 5  -6423541.423 5
  23725581.564    -1700670.182 3  -1200295.721 3
  23938213.009     8987647.594 4   6991974.176 4
  21019199.056   -19598993.471 7 -15070542.799 9
 94  1 27  1 26 29.9970000  0  7 19 27  2 26 15 31  7
  21209622.345     2022168.463 6   1582800.930 7
  19654847.235    -5915562.175 7  -4564891.287 9
  20338678.571    -9633846.435 7  -7445282.211 9
  22908954.634    -8458012.376 5  -6499194.988 5
  23711550.360    -1774458.953 3  -1257793.372 2
  23953548.259     9068264.013 4   7054792.189 3
  20999871.353   -19700561.539 7 -15149686.688 9
 94  1 27  1 26 59.9970000  0  7 19 27  2 26 15 31  7
  21216279.884     2057159.011 6   1610066.294 7
  19653614.884    -5922042.329 7  -4569940.739 9
  20331816.829    -9669907.610 7  -7473381.804 9
  22890549.056    -8554743.295 5  -6574569.648 5
  23697567.657    -1847922.752 4  -1315037.789 2
  23968923.853     9149062.533 4   7117752.100 4
  20980609.345   -19801779.386 7 -15228557.675 9
 94  1 27  1 27 29.9970000  0  7 19 27  2 26 15 31  7
  21222994.189     2092440.284 6   1637558.200 7
  19652459.478    -5928115.966 7  -4574673.432 9
  20324986.821    -9705794.139 7  -7501345.298 9
  22872203.337    -8651131.262 5  -6649677.057 5
  23683643.696    -1921062.001 3  -1372029.327 2
  23984334.829     9230038.513 4   7180850.294 4
  20961417.282   -19902637.560 7 -15307148.408 8
 94  1 27  1 27 59.9970000  0  7 19 27  2 26 15 31  7
  21229764.681     2128025.494 6   1665286.938 7
  19651380.149    -5933792.963 7  -4579097.050 9
  20318192.540    -9741496.800 7  -7529165.527 9
  22853928.095    -8747164.226 5  -6724507.857 5
  23669787.243    -1993864.632 3  -1428758.564 3
  23999783.517     9311194.998 4   7244089.139 3
  20942296.634   -20003113.529 7 -15385441.304 9
 94  1 27  1 28 29.9970000  0  7 19 27  2 26 15 31  7
  21236596.337     2163927.046 6   1693262.183 7
  19650374.267    -5939086.564 7  -4583221.913 9
  20311435.954    -9776990.249 7  -7556822.730 9
  22835721.595    -8842845.056 5  -6799064.260 5
  23656003.470    -2066328.880 4  -1485224.145 2
  24015253.290     9392521.698 4   7307460.601 3
  20923251.189   -20103201.356 7 -15463431.762 9
 94  1 27  1 28 59.9970000  0  7 19 27  2 26 15 31  7
  21243486.813     2200125.077 6   1721468.447 7
  19649435.173    -5944009.757 7  -4587058.149 9
  20304728.056    -9812255.260 7  -7584301.935 9
  22817579.345    -8938184.717 5  -6873354.820 5
  23642278.970    -2138451.945 4  -1541423.863 2
  24030756.845     9473997.012 4   7370947.871 2
  20904280.673   -20202897.317 7 -15541116.868 9
 94  1 27  1 29 29.9970000  0  6 19 27  2 26 15  7
  21250426.767     2236602.749 6   1749892.620 7
  19648565.665    -5948573.393 7  -4590614.212 9
  20298059.189    -9847307.164 7  -7611615.084 9
  22799504.415    -9033176.942 5  -6947374.659 5
  23628619.360    -2210237.858 4  -1597360.857 2
  20885383.970   -20302199.186 7 -15618494.890 9
 94  1 27  1 29 59.9970000  0  6 19 27  2 26 15  7
  21257419.470     2273352.015 6   1778528.427 7
  19647771.571    -5952757.397 7  -4593874.456 9
  20291432.353    -9882125.595 7  -7638746.297 9
  22781496.189    -9127797.457 5  -7021104.852 5
  23615021.814    -2281676.286 4  -1653027.107 3
  20866562.095   -20401105.026 7 -15695564.318 9
 94  1 27  1 30 29.9970000  0  6 19 27  2 26 15  7
  21264462.524     2310357.230 6   1807363.676 7
  19647052.884    -5956529.918 7  -4596814.063 9
  20284850.884    -9916711.635 7  -7665696.435 9
  22763566.681    -9222035.503 5  -7094537.008 5
  23601496.735    -2352759.693 4  -1708416.688 2
  20847815.032   -20499618.859 7 -15772328.289 8
 94  1 27  1 30 59.9970000  0  6 19 27  2 26 15  7
  21271548.181     2347597.209 6   1836381.857 7
  19646412.603    -5959886.777 7  -4599429.769 9
  20278309.563    -9951083.445 7  -7692479.631 9
  22745703.782    -9315900.316 5  -7167678.339 5
  23588041.321    -2423490.061 4  -1763531.173 3
  20829142.282   -20597745.612 7 -15848790.632 9
 94  1 27  1 31 29.9970000  0  6 19 27  2 26 15  7
  21278684.024     2385087.962 6   1865595.429 7
  19645855.149    -5962817.101 7  -4601713.133 9
  20271808.696    -9985240.684 7  -7719095.645 9
  22727913.993    -9409378.235 5  -7240518.209 5
  23574650.235    -2493868.217 5  -1818371.269 3
  20810542.181   -20695492.020 7 -15924956.612 9
 94  1 27  1 31 59.9970000  0  6 19 27  2 26 15  7
  21285866.899     2422845.881 6   1895017.202 7
  19645381.243    -5965309.254 7  -4603655.055 9
  20265353.376   -10019168.921 7  -7745533.202 9
  22710198.079    -9502467.277 5  -7313055.045 5
  23561323.399    -2563884.116 4  -1872929.026 1
  20792012.735   -20792868.117 7 -16000834.031 9
 94  1 27  1 32 29.9970000  0  6 19 27  2 26 15  7
  21293107.907     2460900.182 6   1924669.921 7
  19644989.368    -5967376.532 7  -4605265.909 9
  20258936.954   -10052884.834 7  -7771805.305 9
  22692559.868    -9595174.540 5  -7385294.394 5
  23548062.923    -2633534.446 4  -1927201.920 3
  20773552.282   -20889873.583 7 -16076422.649 9
 94  1 27  1 32 59.9970000  0  6 19 27  2 26 15  7
  21300412.228     2499275.093 6   1954572.462 7
  19644671.892    -5969042.966 7  -4606564.415 9
  20252561.071   -10086398.128 7  -7797919.530 9
  22674989.681    -9687505.107 5  -7457240.219 5
  23534879.095    -2702822.823 4  -1981192.802 2
  20755163.985   -20986503.281 7 -16151718.462 9
 94  1 27  1 33 29.9970000  0  6 19 27  2 26 15  7
  21307775.665     2537976.911 6   1984729.728 7
  19644429.485    -5970309.878 7  -4607551.607 9
  20246218.298   -10119723.202 7  -7823887.091 9
  22657494.384    -9779447.950 6  -7528883.921 5
  23521756.360    -2771749.704 3  -2034901.989 3
  20736847.728   -21082755.624 7 -16226720.240 9
 94  1 27  1 33 59.9970000  0  6 19 27  2 26 15  7
  21315200.978     2577004.678 6   2015140.971 7
  19644267.860    -5971182.335 7  -4608231.437 9
  20239911.063   -10152868.690 7  -7849714.709 9
  22640072.009    -9870991.533 6  -7600216.515 5
  23508720.548    -2840304.275 4  -2088321.086 3
  20718609.095   -21178608.648 7 -16301410.856 9
 94  1 27  1 34 29.9970000  0  6 19 27  2 26 15  7
  21322690.282     2616351.825 6   2045801.100 7
  19644171.681    -5971661.090 7
  20233636.821   -10185843.677 7  -7875409.468 9
  22622731.267    -9962120.379 6  -7671225.937 5
  23495744.071    -2908486.327 4  -2141449.881 3
  20700446.517   -21274045.419 7 -16375777.121 9
 94  1 27  1 34 59.9970000  0  6 19 27  2 26 15  7
  21330232.556     2655984.785 6   2076683.935 7
  19644159.056    -5971736.538 7
  20227395.759   -10218642.155 7  -7900966.683 9
  22605469.478   -10052827.593 5  -7741906.825 5
  23482835.431    -2976298.775 4  -2194290.687 3
  20682362.517   -21369074.726 7 -16449825.880 9
 94  1 27  1 35 29.9970000  0  6 19 27  2 26 15  7
  21337824.329     2695885.151 6   2107775.135 7
  19644226.306    -5971395.750 7
  20221189.337   -10251248.881 7  -7926374.500 9
  22588289.321   -10143114.247 6  -7812260.003 5
  23469999.720    -3043735.105 4  -2246838.412 1
  20664357.157   -21463695.824 7 -16523556.551 9
 94  1 27  1 35 59.9970000  0  6 19 27  2 26 15  7
  21345467.782     2736057.212 6   2139078.043 7
  19644367.110    -5970644.187 7  -4607812.040 9
  20215025.790   -10283650.167 7  -7951622.220 9
  22571184.946   -10232991.844 6  -7882294.426 5
  23457246.899    -3110792.974 5  -2299091.248 3
  20646428.571   -21557909.756 7 -16596969.945 9
 94  1 27  1 36 29.9970000  0  6 19 27  2 26 15  7
  21353165.267     2776502.150 6   2170593.578 7
  19644591.681    -5969477.000 7  -4606902.527 9
  20208899.282   -10315828.807 7  -7976696.463 9
  22554157.587   -10322475.722 5  -7952022.055 5
  23444558.759    -3177466.587 5  -2351044.638 3
  20628579.970   -21651714.258 7 -16670064.314 9
 94  1 27  1 36 59.9970000  0  6 19 27  2 26 15  7
  21360914.978     2817218.518 6   2202320.623 7
  19644890.196    -5967906.756 7  -4605678.952 9
  20202818.056   -10347787.290 7  -8001599.148 9
  22537197.696   -10411593.313 5  -8021464.266 5
  23431948.993    -3243756.303 5  -2402698.915 2
  20610804.782   -21745112.786 7 -16742842.333 9
 94  1 27  1 37 29.9970000  0  6 19 27  2 26 15  7
  21368714.446     2858220.228 6   2234270.021 7
  19645261.126    -5965947.551 7  -4604152.282 9
  20196778.056   -10379537.099 7  -8026339.232 9
  22520309.478   -10500346.831 5  -8090622.808 5
  23419402.329    -3309662.291 5  -2454054.176 2
  20593111.376   -21838093.298 7 -16815294.625 9
 94  1 27  1 37 59.9970000  0  6 19 27  2 26 15  7
  21376575.056     2899512.100 6   2266445.506 7
  19645705.642    -5963604.696 7  -4602326.666 9
  20190771.782   -10411093.019 7  -8050928.229 9
  22503490.907   -10588722.997 5  -8159487.279 5
  23406937.938    -3375184.530 5  -2505110.431 3
  20575495.774   -21930662.413 7 -16887426.346 9
 94  1 27  1 38 29.9970000  0  6 19 27  2 26 15  7
  21384488.345     2941094.304 6   2298847.224 6
  19646229.704    -5960864.259 7  -4600191.240 9
  20184803.329   -10442452.976 7  -8075364.534 9
  22486749.759   -10676706.026 5  -8228045.423 5
  23394544.821    -3440317.015 5  -2555862.957 2
  20557960.603   -22022811.640 7 -16959230.881 9
 94  1 27  1 38 59.9970000  0  6 19 27  2 26 15  7
  21392453.892     2982970.976 6   2331478.395 7
  19646827.243    -5957719.519 7  -4597740.782 9
  20178872.423   -10473626.900 7  -8099655.876 9
  22470088.126   -10764270.208 6  -8296277.180 6
  23382217.587    -3505057.272 4  -2606309.862 2
  20540501.728   -22114549.763 7 -17030715.075 9
 94  1 27  1 39 29.9970000  0  6 19 27  2 26 15  7
  21400478.563     3025136.929 6   2364334.991 7
  19647502.431    -5954158.767 7  -4594966.154 9
  20172977.829   -10504605.348 7  -8123794.901 9
  22453509.462   -10851389.350 6  -8364162.179 6
  23369980.439    -3569398.998 4  -2656446.222 5
  20523124.899   -22205876.448 7 -17101878.673 9
 94  1 27  1 39 59.9970000  0  6 19 27  2 26 15  7
  21408555.103     3067575.079 6   2397403.679 6
  19648261.212    -5950189.339 7  -4591873.078 9
  20167118.360   -10535390.773 7  -8147783.518 9
  22437011.228   -10938075.874 6  -8431710.053 5
  23357806.282    -3633345.200 4  -2706274.374 4
  20505821.610   -22296801.906 7 -17172729.627 9
 94  1 27  1 40 29.9970000  0  6 19 27  2 26 15  7
  21416681.188     3110281.667 6   2430681.546 7
  19649095.024    -5945805.745 7  -4588457.279 9
  20161298.032   -10565973.251 7  -8171613.999 9
  22420597.587   -11024331.043 6  -8498921.813 5
  23345720.767    -3696890.544 4  -2755790.183 3
  20488595.907   -22387322.215 7 -17243264.873 9
 94  1 27  1 40 59.9970000  0  6 19 27  2 26 15  7
  21424854.306     3153236.452 6   2464152.798 6
  19650003.540    -5941023.766 7  -4584731.043 8
  20155514.978   -10596368.179 7  -8195298.334 9
  22404266.204   -11110157.289 6  -8565799.348 5
  23333695.790    -3760037.701 4  -2804995.736 3
  20471445.048   -22477450.395 7 -17313494.575 8
 94  1 27  1 41 29.9970000  0  6 19 27  2 26 15  7
  21433079.540     3196445.467 6   2497822.155 6
  19650987.673    -5935842.923 7  -4580694.003 9
  20149770.345   -10626559.256 7  -8218823.824 9
  22388017.462   -11195557.827 6  -8632345.169 5
  23321754.853    -3822776.711 5  -2853883.222 3
  20454371.696   -22567167.680 7 -17383404.091 9
 94  1 27  1 41 59.9970000  0  6 19 27  2 26 15  7
  21441350.001     3239917.357 6   2531696.356 6
  19652052.134    -5930259.297 7  -4576343.110 9
  20144063.524   -10656543.500 7  -8242188.148 9
  22371844.603   -11280545.764 6  -8698569.473 6
  23309900.056    -3885109.400 5  -2902454.078 4
  20437378.907   -22656469.228 7 -17452989.660 9
 94  1 27  1 42 29.9970000  0  6 19 27  2 26 15  7
  21449675.845     3283656.661 6   2565778.930 6
  19653195.712    -5924252.446 7  -4571662.428 9
  20138397.845   -10686316.912 7  -8265388.184 9
  22355748.517   -11365105.793 6  -8764460.349 6
  23298120.071    -3947029.368 5  -2950703.346 4
  20420467.892   -22745340.106 7 -17522239.642 9
 94  1 27  1 42 59.9970000  0  6 19 27  2 26 15  7
  21458047.587     3327667.640 6   2600073.193 6
  19654419.181    -5917823.623 7  -4566652.945 9
  20132774.032   -10715879.422 7  -8288423.889 9
  22339737.259   -11449250.742 6  -8830027.771 6
  23286412.001    -4008536.492 5  -2998630.936 4
  20403643.399   -22833757.078 7 -17591135.933 9
 94  1 27  1 43 29.9970000  0  6 19 27  2 26 15  7
  21466478.728     3371972.777 6   2634596.677 6
  19655726.321    -5910955.436 7  -4561301.091 9
  20127188.696   -10745221.588 7  -8311287.893 9
  22323805.915   -11532983.129 6  -8895273.741 6
  23274784.493    -4069623.139 5  -3046230.864 4
  20386906.298   -22921704.333 7 -17659666.213 9
 94  1 27  1 43 59.9970000  0  6 19 27  2 26 15  7
  21474964.384     3416559.296 6   2669339.429 6
  19657115.228    -5903639.750 7  -4555600.539 9
  20121644.712   -10774360.720 7  -8333993.682 9
  22307951.884   -11616301.306 6  -8960196.945 6
  23263241.884    -4130289.412 4  -3093503.244 3
  20370258.040   -23009189.510 7 -17727836.432 9
 94  1 27  1 44 29.9970000  0  6 19 27  2 26 15  7
  21483502.173     3461428.929 6   2704302.771 6
  19658590.478    -5895891.041 7  -4549562.573 8
  20116134.704   -10803317.628 7  -8356557.482 9
  22292171.923   -11699206.167 6  -9024798.080 5
  23251779.329    -4190532.640 5  -3140445.965 3
  20353695.290   -23096224.508 7 -17795655.857 9
 94  1 27  1 44 59.9970000  0  6 19 27  2 26 15  7
  21492098.704     3506592.924 6   2739495.493 6
  19660144.048    -5887727.417 7  -4543201.289 9
  20110658.860   -10832100.847 7  -8378985.939 9
  22276475.095   -11781700.951 6  -9089079.666 6
  23240391.478    -4250353.806 5  -3187059.831 4
  20337216.532   -23182829.794 7 -17863140.449 9
 94  1 27  1 45 29.9970000  0  6 19 27  2 26 15  7
  21500746.954     3552045.900 6   2774913.398 6
  19661774.813    -5879154.632 7  -4536521.179 9
  20105211.821   -10860718.447 7  -8401285.350 9
  22260858.626   -11863770.014 6  -9153029.539 6
  23229090.767    -4309755.252 5  -3233346.614 3
  20320811.681   -23269028.195 7 -17930307.984 9
 94  1 27  1 45 59.9970000  0  6 19 27  2 26 15  7
  21509452.790     3597790.764 6   2810558.744 6
  19663485.790    -5870170.520 7  -4529520.557 9
  20099798.103   -10889158.111 7  -8423446.104 9
  22245324.517   -11945395.350 6  -9216633.640 6
  23217871.103    -4368726.672 5  -3279298.334 4
  20304490.540   -23354802.228 7 -17997144.848 9
 94  1 27  1 46 29.9970000  0  6 19 27  2 26 15  7
  21518213.978     3643841.815 6   2846442.688 6
  19665273.321    -5860777.533 7  -4522201.333 9
  20094423.556   -10917410.614 7  -8445461.021 9
  22229879.564   -12026557.744 6  -9279877.015 6
  23206730.681    -4427265.045 5  -3324912.625 5
  20288251.353   -23440145.001 7 -18063645.657 9
 94  1 27  1 46 59.9970000  0  6 19 27  2 26 15  7
  21527033.157     3690190.441 6   2882558.512 6
  19667142.259    -5850967.171 7  -4514556.883 9
  20089083.993   -10945462.339 7  -8467319.481 9
  22214530.603   -12107237.977 6  -9342744.672 6
  23195672.728    -4485366.975 5  -3370186.823 4
  20272094.774   -23525036.419 7 -18129794.767 9
 94  1 27  1 47 29.9970000  0  6 19 27  2 26 15  7
  21535908.813     3736813.029 6   2918887.792 6
  19669085.923    -5840738.706 7  -4506586.628 9
  20083787.087   -10973304.843 7  -8489014.914 9
  22199267.118   -12187436.833 6  -9405237.242 6
  23184698.407    -4543033.985 5  -3415122.116 3
  20256030.470   -23609457.961 7 -18195577.735 9
 94  1 27  1 47 59.9970000  0  6 19 27  2 26 15  7
  21544829.204     3783704.821 6   2955426.838 6
  19671112.493    -5830095.455 7  -4498293.176 9
  20078527.189   -11000949.082 7  -8510555.855 9
  22184093.040   -12267165.578 6  -9467363.473 6
  23173807.079    -4600264.718 5  -3459717.457 4
  20240052.821   -23693417.109 7 -18261000.400 9
 94  1 27  1 48 29.9970000  0  6 19 27  2 26 15  7
  21553809.517     3830877.589 6   2992184.823 6
  19673215.470    -5819039.044 7  -4489677.777 9
  20073303.618   -11028399.514 7  -8531945.774 9
  22169010.767   -12346425.873 6  -9529124.689 6
  23163005.626    -4657053.274 5  -3503968.239 4
  20224162.665   -23776925.872 7 -18326072.119 9
 94  1 27  1 48 59.9970000  0  6 19 27  2 26 15  7
  21562833.048     3878315.880 6   3029149.713 6
  19675397.103    -5807583.241 7  -4480751.156 9
  20068114.720   -11055661.461 7  -8553188.821 9
  22154012.454   -12425246.073 6  -9590542.988 6
  23152276.665    -4713403.947 5  -3547877.822 3
  20208354.985   -23859988.614 7 -18390796.290 9
 94  1 27  1 49 29.9970000  0  6 19 27  2 26 15  7
  21571910.181     3926021.655 6   3066323.036 6
  19677655.173    -5795719.341 7  -4471506.547 8
  20062962.478   -11082730.884 7  -8574281.844 9
  22139094.313   -12503638.222 6  -9651627.718 5
  23141637.845    -4769308.895 5  -3591440.095 4
  20192632.806   -23942614.854 7 -18455180.327 9
 94  1 27  1 49 59.9970000  0  6 19 27  2 26 15  7
  21581045.595     3974009.461 6   3103716.114 6
  19679986.595    -5783450.963 7  -4461946.762 9
  20057845.235   -11109625.047 7  -8595238.311 9
  22124256.735   -12581615.015 6  -9712388.813 6
  23131087.079    -4824767.966 5  -3634654.927 4
  20176991.798   -24024808.838 7 -18519227.547 9
 94  1 27  1 50 29.9970000  0  6 19 27  2 26 15  7
  21590229.915     4022277.114 6   3141327.270 6
  19682399.563    -5770778.674 7  -4452072.240 9
  20052761.524   -11136336.863 7  -8616052.684 9
  22109497.399   -12659169.166 6  -9772820.574 6
  23120618.657    -4879779.719 5  -3677521.188 4
  20161436.103   -24106562.472 7 -18582931.631 9
 94  1 27  1 50 59.9970000  0  6 19 27  2 26 15  7
  21599464.798     4070810.257 6   3179145.288 6
  19684891.259    -5757680.973 7  -4441866.223 9
  20047716.610   -11162855.881 7  -8636716.827 9
  22094824.157   -12736286.073 6  -9832911.621 6
  23110235.985    -4934335.405 5  -3720032.077 4
  20145962.478   -24187863.566 7 -18646283.090 9
 94  1 27  1 51 29.9970000  0  6 19 27  2 26 15  7
  21608753.532     4119607.488 6   3217169.100 6
  19687467.235    -5744150.675 7  -4431323.120 9
  20042702.618   -11189203.062 7  -8657247.077 9
  22080232.001   -12812957.787 6  -9892655.759 6
  23099944.431    -4988438.038 5  -3762189.949 4
  20130577.595   -24268717.420 7 -18709286.045 9
 94  1 27  1 51 59.9970000  0  6 19 27  2 26 15  7
  21618088.368     4168675.184 6   3255403.670 6
  19690124.806    -5730183.141 7  -4420439.311 9
  20037721.017   -11215382.192 7  -8677646.374 9
  22065732.743   -12889156.190 6  -9952031.088 6
  23089731.353    -5042084.648 5  -3803992.446 4
  20115278.478   -24349121.357 7 -18771938.417 9
 94  1 27  1 52 29.9970000  0  6 19 27  2 26 15  7
  21627472.774     4217995.193 6   3293834.848 6
  19692868.962    -5715766.234 7  -4409205.356 9
  20032772.485   -11241379.758 7  -8697904.198 9
  22051328.040   -12964866.241 6 -10011025.889 5
  23079608.915    -5095273.840 5  -3845438.545 3
  20100060.657   -24429077.372 7 -18834241.768 9
 94  1 27  1 52 59.9970000  0  6 19 27  2 26 15  7
  21636907.071     4267572.734 6   3332466.683 6
  19695697.571    -5700900.277 7  -4397621.483 9
  20027860.087   -11267200.536 7  -8718024.261 9
  22037012.181   -13040093.379 6 -10069644.391 6
  23069574.993    -5148003.476 5  -3886526.531 4
  20084933.360   -24508572.866 7 -18896186.265 9
 94  1 27  1 53 29.9970000  0  6 19 27  2 26 15  7
  21646393.032     4317418.399 6   3371307.457 6
  19698608.009    -5685606.973 7  -4385704.611 9
  20022979.235   -11292843.414 7  -8738005.700 9
  22022787.454   -13114836.295 6 -10127885.585 6
  23059625.485    -5200272.839 5  -3927255.869 4
  20069897.485   -24587591.902 7 -18957759.501 9
 94  1 27  1 53 59.9970000  0  6 19 27  2 26 15  7
  21655928.470     4367533.387 6   3410358.085 6
  19701596.720    -5669893.247 7  -4373460.137 9
  20018139.782   -11318283.768 7  -8757829.329 9
  22008655.181   -13189093.718 6 -10185748.463 6
  23049773.743    -5252077.612 5  -3967623.179 4
  20054952.978   -24666131.625 7 -19018959.246 9
 94  1 27  1 54 29.9970000  0  6 19 27  2 26 15  7
  21665521.134     4417922.225 6   3449622.102 6
  19704666.110    -5653767.666 7  -4360894.745 9
  20013336.681   -11343521.797 7  -8777495.304 9
  21994612.587   -13262891.772 6 -10243253.397 6
  23039998.392    -5303415.360 5  -4007626.602 5
  20040098.587   -24744190.566 7 -19079784.357 9
 94  1 27  1 54 59.9970000  0  6 19 27  2 26 15  7
  21675161.345     4468594.954 6   3489107.334 6
  19707811.478    -5637240.486 7  -4348016.414 9
  20008568.923   -11368573.263 7  -8797015.912 9
  21980660.024   -13336228.022 6 -10300398.487 6
  23030319.556    -5354290.123 5  -4047269.255 4
  20025332.673   -24821782.862 7 -19140245.849 9
 94  1 27  1 55 29.9970000  0  6 19 27  2 26 15  7
  21684856.571     4519549.954 6   3528812.508 6
  19711033.282    -5620301.508 7  -4334817.199 9
  20003840.071   -11393421.465 7  -8816378.127 9
  21966789.868   -13409096.477 6 -10357179.063 6
  23020727.134    -5404700.220 5  -4086549.831 3
  20010652.134   -24898922.426 7 -19200354.564 9
 94  1 27  1 55 59.9970000  0  7 19 27  2 13 26 15  7
  21694609.438     4570793.867 6   3568742.823 6
  19714339.470    -5602935.135 7  -4321284.947 9
  19999150.134   -11418068.959 7  -8835583.938 9
  23796540.095          -0.78413
  21953012.064   -13481500.880 6 -10413598.039 6
  23011230.868    -5454641.585 5  -4125465.124 4
  19996059.063   -24975619.285 7 -19260118.309 9
 94  1 27  1 56 29.9970000  0  7 19 27  2 13 26 15  7
  21704416.985     4622332.386 6   3608902.698 6
  19717726.782    -5585135.882 7  -4307415.382 9
  19994495.774   -11442528.233 7  -8854643.095 9
  23769256.017     -143360.300 3
  21939323.212   -13553435.853 6 -10469651.228 6
  23001813.556    -5504109.465 5  -4164011.491 4
  19981550.821   -25051863.483 7 -19319529.345 9
 94  1 27  1 56 59.9970000  0  7 19 27  2 13 26 15  7
  21714276.845     4674159.509 6   3649287.462 6
  19721198.657    -5566891.940 7  -4293199.322 9
  19989877.845   -11466794.427 7  -8873551.800 9
  23741983.735     -286674.527 3        -0.43811
  21925730.493   -13624872.299 6 -10525315.952 6
  22992493.376    -5553095.091 5  -4202182.072 4
  19967131.509   -25127629.257 7 -19378567.572 9
 94  1 27  1 57 29.9970000  0  7 19 27  2 13 26 15  7
  21724190.485     4726253.808 6   3689880.405 6
  19724752.345    -5548217.051 7  -4278647.449 9
  19985294.595   -11490877.718 7  -8892318.004 9
  23714725.126     -429947.325 3   -111641.475 1
  21912230.329   -13695827.516 6 -10580605.696 6
  22983264.774    -5601603.617 5  -4239980.880 4
  19952804.985   -25202914.707 7 -19437231.522 9
 94  1 27  1 58 29.9960000  0  7 19 27  2 13 26 15  7
  21744163.723     4831219.188 6   3771671.569 5
  19732100.277    -5509607.515 7  -4248562.086 9
  19976219.598   -11538568.370 7  -8929479.496 9
  23660225.356     -716345.378 3   -334808.618 1
  21885504.543   -13836256.014 6 -10690030.437 6
  22965073.488    -5697173.966 5  -4314451.225 3
  19924427.824   -25352039.068 7 -19553432.257 9
 94  1 27  1 58 59.9960000  0  7 19 27  2 13 26 15  7
  21754225.106     4884069.816 6   3812853.870 6
  19735891.152    -5489683.100 7  -4233036.556 9
  19971728.691   -11562168.597 7  -8947869.263 9
  23632984.012     -859473.742 3   -446337.102 1
  21872280.363   -13905736.418 6 -10744170.982 6
  22956119.106    -5744237.873 5  -4351124.344 4
  19910372.676   -25425902.533 7 -19610988.176 9
 94  1 27  1 59 29.9960000  0  7 19 27  2 13 26 15  7
  21764326.660     4937175.137 6   3854234.607 6
  19739758.770    -5469351.989 7  -4217194.129 9
  19967272.145   -11585594.360 7  -8966123.084 9
  23605755.613    -1002547.324 4   -557822.925 1
  21859151.410   -13974735.667 6 -10797936.594 6
  22947254.402    -5790815.976 5  -4387418.929 4
  19896403.988   -25499310.277 7 -19668188.983 9
 94  1 27  1 59 59.9960000  0  7 19 27  2 13 26 15  7
  21774483.277     4990538.581 6   3895816.484 6
  19743707.723    -5448608.909 7  -4201030.677 9
  19962847.863   -11608838.147 7  -8984235.117 9
  23578543.879    -1145562.492 4   -669263.249 1
  21846114.152   -14043261.486 6 -10851333.305 6
  22938489.113    -5836905.891 5  -4423333.114 5
  19882521.254   -25572256.430 7 -19725030.110 9
 94  1 27  2  0 29.9960000  0  7 19 27  2 13 26 15  7
  21784688.066     5044157.746 6   3937597.646 6
  19747733.551    -5427445.170 7  -4184539.446 9
  19958462.301   -11631887.248 7  -9002195.433 9
  23551342.051    -1288514.748 4   -780654.502 1
  21833163.348   -14111319.133 6 -10904365.208 6
  22929806.199    -5882504.170 5  -4458864.206 5
  19868730.965   -25644723.650 7 -19781498.041 9
 94  1 27  2  0 59.9960000  0  7 19 27  2 13 26 15  7
  21794938.410     5098037.690 6   3979581.998 6
  19751841.285    -5405860.982 7  -4167720.595 9
  19954112.746   -11654746.669 7  -9020007.948 9
  23524146.254    -1431399.505 4   -891993.174 2
  21820305.387   -14178892.056 6 -10957019.395 6
  22921223.981    -5927608.123 5  -4494010.112 5
  19855035.598   -25716691.815 7 -19837577.093 9
 94  1 27  2  1 29.9960000  0  7 19 27  2 13 26 15  7
  21805240.090     5152175.387 6   4021767.208 6
  19756029.004    -5383848.234 7  -4150567.802 9
  19949797.270   -11677418.476 7  -9037674.272 9
  23496977.168    -1574210.596 5  -1003274.403 1
  21807538.934   -14245972.960 6 -11009290.193 6
  22912737.363    -5972212.312 5  -4528766.591 5
  19841438.668   -25788149.489 7 -19893258.359 9
 94  1 27  2  1 59.9960000  0  7 19 27  2 13 26 15  7
  21815592.145     5206566.331 6   4064149.746 6
  19760300.551    -5361398.447 7  -4133074.458 9
  19945518.645   -11699908.253 7  -9055198.748 9
  23469814.254    -1716948.499 5  -1114498.592 1
  21794866.090   -14312553.119 6 -11061170.814 6
  22904341.871    -6016318.513 5  -4563135.003 4
  19827937.113   -25859099.756 7 -19948544.247 9
 94  1 27  2  2 29.9960000  0  7 19 27  2 13 26 15  7
  21825987.621     5261208.158 6   4106727.779 5
  19764656.512    -5338519.110 7  -4115246.409 9
  19941270.074   -11722228.171 7  -9072590.872 9
  23442666.480    -1859616.846 5  -1225668.623 1
  21782293.910   -14378628.174 6 -11112657.846 6
  22896042.082    -6059931.950 5  -4597119.476 5
  19814529.129   -25929556.939 7 -20003445.919 9
 94  1 27  2  2 59.9960000  0  7 19 27  2 13 26 15  7
  21836437.496     5316114.249 6   4149511.726 6
  19769091.551    -5315205.313 7  -4097079.812 9
  19937056.871   -11744370.549 7  -9089844.652 9
  23415527.121    -2002209.387 4  -1336779.511 1
  21769818.816   -14444192.137 6 -11163746.620 6
  22887837.934    -6103048.369 5  -4630716.638 5
  19801212.652   -25999540.785 7 -20057978.746 9
 94  1 27  2  3 29.9960000  0  7 19 27  2 13 26 15  7
  21846936.207     5371286.397 6   4192502.999 6
  19773610.988    -5291458.544 7  -4078575.831 9
  19932877.121   -11766336.913 7  -9106961.288 9
  23388411.035    -2144726.331 4  -1447831.536 1
  21757437.981   -14509265.733 6 -11214453.290 6
  22879727.856    -6145668.680 5  -4663927.246 5
  19787983.324   -26069059.701 7 -20112149.301 9
 94  1 27  2  3 59.9960000  0  7 19 27  2 13 26 15  7
  21857489.301     5426735.231 6   4235709.870 5
  19778209.543    -5267289.481 7  -4059742.790 8
  19928730.231   -11788131.914 7  -9123944.384 9
  23361300.504    -2287168.496 4  -1558825.268 1
  21745145.129   -14573858.707 6 -11264785.449 6
  22871711.348    -6187794.890 5  -4696752.818 5
  19774840.879   -26138119.438 7 -20165962.050 9
 94  1 27  2  4 29.9960000  0  7 19 27  2 13 26 15  7
  21868093.520     5482462.078 6   4279133.371 5
  19782889.207    -5242704.134 7  -4040585.375 8
  19924614.832   -11809753.794 7  -9140792.587 9
  23334215.059    -2429527.884 4  -1669754.461 1
  21732944.043   -14637972.959 6 -11314744.576 6
  22863794.012    -6229420.657 5  -4729188.455 5
  19761788.535   -26206710.768 7 -20219409.809 9
 94  1 27  2  4 59.9960000  0  7 19 27  2 13 26 15  7
  21878750.809     5538473.642 6   4322778.722 6
  19787644.871    -5217701.348 7  -4021102.686 8
  19920534.598   -11831197.941 7  -9157502.297 9
  23307137.871    -2571800.222 5  -1780615.908 1
  21720837.191   -14701603.846 6 -11364327.050 6
  22855961.871    -6270543.360 5  -4761232.090 5
  19748828.129   -26274817.680 7 -20272480.098 9
 94  1 27  2  5 29.9960000  0  7 19 27  2 13 26 15  7
  21889464.316     5594774.658 6   4366649.655 5
  19792484.004    -5192286.878 7  -4001299.207 8
  19916486.699   -11852467.282 7  -9174075.792 9
  23280082.090    -2713977.386 4  -1891403.106 1
  21708818.621   -14764751.376 6 -11413532.888 6
  22848235.840    -6311156.234 5  -4792878.444 5
  19735963.848   -26342416.099 7 -20325154.163 9
 94  1 27  2  5 59.9960000  0  7 19 27  2 13 26 15  7
  21900229.402     5651352.036 5   4410735.911 5
  19797397.910    -5166463.439 7  -3981177.044 8
  19912469.777   -11873570.328 7  -9190519.713 9
  23253048.121    -2856062.564 5  -2002118.683 1
  21696896.934   -14827399.121 6 -11462349.291 6
  22840597.535    -6351264.132 5  -4824131.311 5
  19723196.731   -26409515.422 7 -20377439.310 9
 94  1 27  2  6 29.9960000  0  7 19 27  2 13 26 15  7
  21911049.981     5708192.454 5   4455027.140 5
  19802388.231    -5140230.003 7  -3960735.410 8
  19908486.973   -11894510.289 7  -9206836.546 9
  23226027.684    -2998060.324 5  -2112766.114 2
  21685071.949   -14889533.186 6 -11510765.412 6
  22833071.301    -6390873.139 5  -4854995.464 5
  19710521.356   -26476121.753 7 -20429340.316 9
 94  1 27  2  6 59.9960000  0  7 19 27  2 13 26 15  7
  21921919.793     5765311.473 5   4499535.439 5
  19807463.090    -5113563.502 7  -3939956.312 8
  19904537.035   -11915268.109 7  -9223011.455 9
  23199022.988    -3139952.263 4  -2223331.122 1
  21673347.785   -14951134.191 6 -11558766.177 6
  22825624.598    -6429966.549 5  -4885457.818 5
  19697942.270   -26542226.205 7 -20480850.241 9
 94  1 27  2  7 29.9960000  0  7 19 27  2 13 26 15  7
  21932834.715     5822684.147 5   4544241.409 5
  19812617.316    -5086477.186 7  -3918850.097 8
  19900618.668   -11935857.034 7  -9239054.756 9
  23172037.152    -3281746.902 4  -2333820.313 1
  21661725.582   -15012213.948 6 -11606360.749 6
  22818288.340    -6468554.096 5  -4915526.021 4
  19685453.207   -26607850.390 7 -20531985.945 9
 94  1 27  2  7 59.9960000  0  7 19 27  2 13 26 15  7
  21943800.699     5880302.636 5   4589138.931 6
  19817855.660    -5058951.989 7  -3897401.888 8
  19896735.590   -11956264.779 7  -9254956.884 9
  23145079.832    -3423437.690 5  -2444228.531 2
  21650206.207   -15072755.551 6 -11653535.993 6
  22811037.965    -6506630.950 5  -4945196.264 5
  19673057.957   -26672994.190 7 -20582747.314 9
 94  1 27  2  8 29.9960000  0  7 19 27  2 13 26 15  7
  21954813.973     5938172.092 5   4634231.990 6
  19823178.871    -5030975.956 7  -3875602.390 8
  19892888.496   -11976478.155 7  -9270707.556 9
  23118137.848    -3565011.626 5  -2554545.769 1
  21638785.293   -15132765.297 6 -11700296.806 6
  22803893.777    -6544185.598 5  -4974459.590 5
  19660755.324   -26737642.674 7 -20633122.725 9
 94  1 27  2  8 59.9960000  0  7 19 27  2 13 26 15  7
  21965865.684     5996272.935 5   4679505.351 5
  19828585.535    -5002568.688 7  -3853466.861 8
  19889075.590   -11996514.603 7  -9286320.353 9
  23091214.254    -3706472.414 5  -2664774.805 2
  21627461.121   -15192271.647 6 -11746665.367 6
  22796850.020    -6581223.628 5  -5003320.365 4
  19648547.996   -26801801.765 7 -20683116.792 9
 94  1 27  2  9 29.9960000  0  7 19 27  2 13 26 15  7
  21976966.301     6054594.861 5   4724950.987 5
  19834069.215    -4973744.159 7  -3831006.185 8
  19885296.480   -12016376.702 7  -9301797.300 9
  23064315.934    -3847818.801 5  -2774914.715 1
  21616234.637   -15251269.718 6 -11792637.857 6
  22789896.535    -6617745.586 5  -5031779.010 5
  19636432.973   -26865465.569 7 -20732724.918 9
 94  1 27  2  9 59.9960000  0  7 19 27  2 13 26 15  7
  21988107.098     6113136.480 5   4770567.805 5
  19839634.762    -4944496.327 7  -3808215.672 9
  19881548.926   -12036067.646 7  -9317140.873 9
  23037442.301    -3989047.068 5  -2884962.605 1
  21605106.066   -15309759.375 6 -11838214.193 6
  22783040.832    -6653749.610 5  -5059834.067 4
  19624410.910   -26928638.046 7 -20781950.197 9
 94  1 27  2 10 29.9960000  0  7 19 27  2 13 26 15  7
  21999291.410     6171903.805 5   4816360.509 5
  19845276.785    -4914843.746 7  -3785109.765 9
  19877832.059   -12055602.187 7  -9332362.580 9
  23010589.957    -4130158.303 5  -2994919.260 1
  21594068.988   -15367751.215 6 -11883402.613 6
  22776291.129    -6689237.992 5  -5087487.332 5
  19612480.996   -26991330.879 7 -20830801.728 9
 94  1 27  2 10 59.9960000  0  7 19 27  2 13 26 15  7
  22010520.285     6230914.156 5   4862342.583 6
  19850997.957    -4884783.780 7  -3761686.423 9
  19874146.949   -12074966.681 7  -9347451.778 9
  22983764.051    -4271143.028 5  -3104777.353 2
  21583131.480   -15425232.131 6 -11928192.910 6
  22769630.652    -6724203.179 5  -5114732.897 4
  19600642.840   -27053535.385 7 -20879272.743 9
 94  1 27  2 11 29.9960000  0  7 19 27  2 13 26 15  7
  22021796.856     6290182.552 5   4908525.718 5
  19856800.207    -4854295.847 7  -3737929.597 9
  19870494.949   -12094151.729 7  -9362401.154 9
  22956963.270    -4411999.890 5  -3214535.839 1
  21572294.660   -15482194.722 6 -11972579.323 6
  22763084.457    -6758645.449 5  -5141571.013 5
  19588898.824   -27115256.999 7 -20927367.475 9
 94  1 27  2 11 59.9960000  0  7 19 27  2 13 26 15  7
  22033129.520     6349717.620 5   4954916.643 5
  19862684.449    -4823365.914 7  -3713828.354 9
  19866879.973   -12113161.266 7  -9377213.775 9
  22930181.762    -4552722.238 5  -3324189.526 2
  21561551.863   -15538641.882 6 -12016564.104 6
  22756630.098    -6792560.309 5  -5167998.135 5
  19577244.676   -27176489.060 7 -20975080.745 9
 94  1 27  2 12 29.9960000  0  7 19 27  2 13 26 15  7
  22044506.816     6409523.525 5   5001518.613 5
  19868653.027    -4792012.633 7  -3689397.230 9
  19863295.918   -12131988.207 7  -9391884.103 9
  22903428.934    -4693310.167 5  -3433738.415 2
  21550909.082   -15594574.388 6 -12060147.855 6
  22750277.512    -6825949.216 5  -5194015.437 4
  19565687.957   -27237222.082 7 -21022405.151 9
 94  1 27  2 12 59.9960000  0  7 19 27  2 13 26 15  7
  22055937.488     6469584.037 5   5048318.985 5
  19874699.535    -4760234.321 7  -3664634.901 9
  19859747.824   -12150627.768 7  -9406408.421 9
  22876699.707    -4833761.188 5  -3543180.653 2
  21540360.582   -15650002.755 6 -12103338.763 6
  22744019.184    -6858811.912 5  -5219622.685 5
  19554227.871   -27297446.750 7 -21069333.435 9
 94  1 27  2 13 29.9960000  0  7 19 27  2 13 26 15  7
  22067411.598     6529881.723 5   5095304.149 5
  19880824.340    -4728050.027 7  -3639556.238 9
  19856232.199   -12169104.475 7  -9420805.850 9
  22849998.488    -4974078.890 5  -3652519.019 3
  21529908.090   -15704934.417 6 -12146142.641 6
  22737863.793    -6891153.845 5  -5244824.177 5
  19542861.059   -27357180.961 7 -21115879.557 9
 94  1 27  2 13 59.9960000  0  7 19 27  2 13 26 15  7
  22078929.981     6590421.427 5   5142477.903 5
  19887024.637    -4695472.429 7  -3614171.089 9
  19852748.590   -12187412.361 7  -9435071.716 9
  22823326.809    -5114252.078 5  -3761744.747 1
  21519549.356   -15759355.416 6 -12188548.592 6
  22731814.527    -6922965.456 5  -5269612.404 5
  19531590.449   -27416413.232 7 -21162034.543 9
 94  1 27  2 14 29.9960000  0  7 19 27  2 13 26 15  7
  22090499.332     6651209.666 5   5189845.334 5
  19893298.160    -4662496.544 7  -3588475.594 9
  19849298.980   -12205546.423 7  -9449202.146 9
  22796680.582    -5254275.242 5  -3870853.576 1
  21509291.574   -15813262.701 6 -12230554.253 6
  22725862.199    -6954243.488 5  -5293984.881 4
  19520411.887   -27475151.413 7 -21207804.531 9
 94  1 27  2 14 59.9960000  0  7 19 27  2 13 26 15  7
  22102109.566     6712239.897 5   5237401.320 5
  19899651.621    -4629114.796 7  -3562463.840 9
  19845876.699   -12223527.778 7  -9463213.583 9
  22770057.379    -5394148.578 5  -3979845.668 2
  21499132.848   -15866646.951 6 -12272152.344 6
  22720011.707    -6984989.837 5  -5317943.047 5
  19509327.387   -27533402.960 7 -21253195.325 9
 94  1 27  2 15 29.9960000  0  7 19 27  2 13 26 15  7
  22113772.856     6773520.910 5   5285152.737 5
  19906079.191    -4595326.732 7  -3536135.478 9
  19842483.566   -12241358.113 7  -9477107.336 9
  22743470.285    -5533869.061 5  -4088718.672 2
  21489080.012   -15919483.934 6 -12313323.998 6
  22714259.020    -7015203.397 5  -5341486.055 4
  19498333.637   -27591168.116 7 -21298207.115 9
 94  1 27  2 15 59.9960000  0  7 19 27  2 13 26 15  7
  22125484.363     6835057.111 5   5333102.993 5
  19912591.231    -4561115.584 7  -3509477.449 8
  19839122.340   -12259016.567 7  -9490867.161 9
  22716911.973    -5673430.379 5  -4197467.612 3
  21479133.598   -15971767.172 6 -12354064.165 6
  22708611.277    -7044879.840 5  -5364610.509 5
  19487437.746   -27648422.950 7 -21342821.239 9
 94  1 27  2 16 29.9960000  0  7 19 27  2 13 26 15  7
  22137237.512     6896828.363 5   5381236.398 5
  19919183.410    -4526481.165 7  -3482489.603 8
  19835792.840   -12276507.927 7  -9504496.785 9
  22690393.707    -5812833.859 5  -4306093.576 2
  21469282.238   -16023510.680 6 -12394383.760 6
  22703069.301    -7074022.874 5  -5387319.353 5
  19476643.137   -27705168.293 7 -21387038.370 9
 94  1 27  2 16 59.9960000  0  7 19 27  2 13 26 15  7
  22149038.520     6958823.459 5   5429544.228 5
  19925852.309    -4491426.803 7  -3455174.522 8
  19832498.199   -12293829.902 7  -9517994.417 9
  22663897.184    -5952077.297 5  -4414594.854 1
  21459539.566   -16074713.192 6 -12434281.808 6
  22697623.934    -7102631.873 5  -5409612.047 5
  19465942.043   -27761400.668 7 -21430855.784 9
 94  1 27  2 17 29.9960000  0  7 19 27  2 13 26 15  7
  22160875.582     7021052.507 5   5478034.369 5
  19932605.902    -4455941.332 7  -3427523.516 8
  19829236.043   -12310963.631 7  -9531345.368 9
  22637426.254    -6091154.607 5  -4522966.665 3
  21449899.676   -16125390.414 6 -12473770.533 6
  22692279.816    -7130702.980 5  -5431485.611 5
  19455336.074   -27817117.710 7 -21474271.635 9
 94  1 27  2 17 59.9960000  0  7 19 27  2 13 26 15  7
  22172763.481     7083513.974 5   5526705.619 5
  19939440.215    -4420023.426 7  -3399535.543 8
  19826010.434   -12327917.580 7  -9544556.228 9
  22610992.816    -6230069.019 5  -4631211.556 2
  21440349.785   -16175562.632 6 -12512865.748 6
  22687046.574    -7158241.287 5  -5452944.002 5
  19444831.863   -27872329.182 7 -21517293.544 9
 94  1 27  2 18 29.9960000  0  7 19 27  2 13 26 15  7
  22184693.066     7146208.849 5   5575558.743 5
  19946357.231    -4383668.867 7  -3371207.322 8
  19822818.480   -12344696.321 7  -9557630.566 9
  22584586.715    -6368816.549 5  -4739326.416 2
  21430897.598   -16225229.714 6 -12551567.348 6
  22681899.973    -7185244.880 5  -5473985.723 5
  19434417.910   -27927051.749 7 -21559934.486 9
 94  1 27  2 18 59.9960000  0  7 19 27  2 13 26 15  7
  22196671.410     7209163.402 5   5624614.212 5
  19953362.238    -4346862.690 7  -3342527.196 8
  19819660.277   -12361286.314 7  -9570557.824 9
  22558220.004    -6507381.216 5  -4847298.782 2
  21421549.504   -16274364.261 6 -12589853.983 6
  22676867.660    -7211700.121 5  -5494600.166 5
  19424101.566   -27981268.678 7 -21602181.424 9
 94  1 27  2 19 29.9960000  0  7 19 27  2 13 26 15  7
  22208703.090     7272376.292 5   5673870.968 5
  19960449.809    -4309617.577 7  -3313505.044 8
  19816539.027   -12377696.678 7  -9583345.114 9
  22531886.723    -6645765.293 5  -4955130.437 2
  21412301.652   -16322967.835 6 -12627726.882 6
  22671935.020    -7237611.249 5  -5514790.617 4
  19413880.051   -28034978.005 7 -21644032.832 9
 94  1 27  2 19 59.9960000  0  7 19 27  2 13 26 15  7
  22220774.441     7335819.917 5   5723307.528 5
  19967616.004    -4271958.628 7  -3284160.418 8
  19813447.481   -12393942.288 7  -9596004.023 9
  22505587.402    -6783971.660 5  -5062823.633 3
  21403151.027   -16371032.856 6 -12665180.121 6
  22667104.066    -7262983.429 5  -5534561.133 5
  19403758.387   -28088175.688 7 -21685485.541 9
 94  1 27  2 20 29.9960000  0  7 19 27  2 13 26 15  7
  22232892.988     7399490.960 5   5772921.315 5
  19974859.246    -4233890.735 7  -3254497.136 8
  19810385.910   -12410016.115 7  -9608529.074 9
  22479319.871    -6921989.828 5  -5170370.176 3
  21394112.699   -16418545.224 6 -12702202.730 6
  22662383.137    -7287808.011 5  -5553904.928 5
  19393734.371   -28140850.189 7 -21726530.585 9
 94  1 27  2 20 59.9960000  0  7 19 27  2 13 26 15  7
  22245048.262     7463385.529 5   5822709.254 5
  19982179.371    -4195432.255 7  -3224529.493 8
  19807358.918   -12425940.350 7  -9620937.558 9
  22453092.004    -7059822.194 5  -5277771.939 2
  21385176.012   -16465510.832 6 -12738799.286 6
  22657763.488    -7312089.930 5  -5572825.866 5
  19383806.957   -28193002.093 7 -21767168.407 9
 94  1 27  2 21 29.9960000  0  7 19 27  2 13 26 15  7
  22257253.566     7527501.827 5   5872669.967 5
  19989570.863    -4156586.216 7  -3194259.859 8
  19804355.879   -12441717.624 7  -9633231.530 9
  22426903.395    -7197462.037 5  -5385023.683 2
  21376336.645   -16511940.096 6 -12774977.907 6
  22653247.199    -7335824.913 5  -5591320.646 5
  19373985.395   -28244631.705 7 -21807399.257 9
 94  1 27  2 21 59.9960000  0  7 19 27  2 13 26 15  7
  22269495.660     7591840.243 5   5922803.768 5
  19997036.051    -4117351.914 7  -3163687.682 8
  19801381.410   -12457344.464 7  -9645408.279 9
  22400750.168    -7334910.085 5  -5492125.999 3
  21367605.184   -16557843.756 6 -12810746.972 6
  22648834.809    -7359015.608 5  -5609391.278 5
  19364256.668   -28295754.382 7 -21847235.095 9
 94  1 27  2 22 29.9960000  0  7 19 27  2 13 26 15  7
  22281779.457     7656404.922 5   5973113.866 5
  20004576.074    -4077727.722 7  -3132811.696 8
  19798435.981   -12472825.046 7  -9657471.062 9
  22374624.996    -7472170.446 5  -5599082.047 3
  21358964.793   -16603236.683 6 -12846118.069 6
  22644526.871    -7381668.591 5  -5627042.919 5
  19354618.121   -28346403.421 7 -21886701.864 9
 94  1 27  2 22 59.9960000  0  7 19 27  2 13 26 15  7
  22294109.816     7721201.357 5   6023604.558 5
  20012192.566    -4037704.811 6  -3101625.018 8
  19795519.535   -12488156.313 7  -9669417.491 9
  22348545.301    -7609238.522 5  -5705888.258 3
  21350423.738   -16648119.724 6 -12881091.842 6
  22640313.230    -7403781.438 5  -5644273.691 5
  19345066.973   -28396585.685 7 -21925804.902 9
 94  1 27  2 23 29.9960000  0  7 19 27  2 13 26 15  7
  22306484.902     7786232.963 5   6074278.501 5
  20019887.004    -3997269.458 7  -3070116.962 8
  19792635.160   -12503311.709 7  -9681226.883 9
  22322499.199    -7746105.478 5  -5812537.759 5
  21341981.551   -16692481.022 6 -12915659.068 6
  22636215.137    -7425347.800 5  -5661078.617 5
  19335609.856   -28446296.157 7 -21964540.321 9
 94  1 27  2 23 59.9960000  0  7 19 27  2 13 26 15  7
  22318904.457     7851490.907 5   6125128.805 5
  20027660.996    -3956421.017 6  -3038287.018 8
  19789781.691   -12518292.324 7  -9692900.079 9
  22296491.856    -7882772.386 5  -5919031.372 4
  21333642.816   -16736311.827 6 -12949812.931 6
  22632213.035    -7446371.290 5  -5677460.536 5
  19326239.488   -28495534.952 7 -22002908.193 9
 94  1 27  2 24 29.9960000  0  7 19 27  2 13 26 15  7
  22331367.004     7916975.703 5   6176155.892 5
  20035512.668    -3915149.547 6  -3006127.439 8
  19786966.074   -12533101.918 7  -9704440.012 9
  22270522.723    -8019231.366 5  -6025362.959 5
  21325404.441   -16779597.497 6 -12983542.011 6
  22628314.121    -7466846.329 5  -5693415.082 5
  19316964.035   -28544279.851 7 -22040891.208 9
 94  1 27  2 24 59.9960000  0  7 19 27  2 13 26 15  7
  22343870.934     7982678.558 5   6227352.885 5
  20043448.574    -3873458.929 7  -2973641.250 8
  19784178.988   -12547736.831 7  -9715843.835 9
  22244593.168    -8155487.855 5  -6131536.783 3
  21317273.004   -16822338.975 6 -13016847.034 6
  22624516.762    -7486780.131 5  -5708947.901 5
  19307785.441   -28592509.910 7 -22078473.054 9
 94  1 27  2 25 29.9960000  0  7 19 27  2 13 26 15  7
  22356413.809     8048613.147 5   6278730.454 4
  20051461.676    -3831342.080 6  -2940822.938 8
  19781432.605   -12562180.219 7  -9727098.415 9
  22218712.918    -8291522.365 5  -6237537.629 3
  21309243.051   -16864518.240 6 -13049713.977 6
  22620837.168    -7506155.761 5  -5724045.767 4
  19298708.449   -28640196.797 7 -22115631.650 9
 94  1 27  2 25 59.9960000  0  7 19 27  2 13 26 15  7
  22369005.137     8114771.274 5   6330282.228 5
  20059556.316    -3788808.192 6  -2907679.665 8
  19778716.652   -12576449.255 7  -9738217.141 9
  22192862.707    -8427338.668 5  -6343368.434 4
  21301323.934   -16906147.152 6 -13082152.074 6
  22617254.316    -7524979.868 5  -5738713.874 4
  19289738.856   -28687341.619 7 -22152367.861 9
 94  1 27  2 26 29.9960000  0  7 19 27  2 13 26 15  7
  22381637.621     8181154.042 5   6382009.033 5
  20067728.754    -3745861.703 6  -2874214.881 8
  19776033.473   -12590542.302 7  -9749198.718 9
  22167060.145    -8562933.213 5  -6449026.448 4
  21293503.090   -16947231.442 6 -13114165.788 6
  22613773.285    -7543251.065 5  -5752951.151 4
  19280869.215   -28733958.936 7 -22188693.027 9
 94  1 27  2 26 59.9960000  0  7 19 27  2 13 26 15  7
  22394310.004     8247761.867 5   6433911.198 4
  20075978.059    -3702509.988 6  -2840434.336 8
  19773385.941   -12604464.714 7  -9760047.351 9
  22141299.230    -8698300.276 5  -6554507.208 4
  21285788.879   -16987775.900 6 -13145758.859 6
  22610406.746    -7560965.620 5  -5766754.671 4
  19272095.496   -28780064.789 7 -22224619.652 9
 94  1 27  2 27 29.9960000  0  7 19 27  2 13 26 15  7
  22407028.012     8314588.990 5   6485984.252 4
  20084302.988    -3658762.648 6  -2806345.512 8
  19770768.020   -12618236.012 7  -9770778.228 9
  22115585.145    -8833436.175 5  -6659807.843 4
  21278176.668   -17027780.235 6 -13176931.059 6
  22607142.191    -7578123.118 5  -5780124.122 4
  19263415.090   -28825667.314 7 -22260154.068 9
 94  1 27  2 27 59.9960000  0  7 19 27  2 13 26 15  7
  22419786.535     8381624.978 5   6538220.070 4
  20092703.035    -3614618.877 6  -2771947.779 8
  19768172.551   -12631857.456 7  -9781392.334 9
  22089908.356    -8968344.454 5  -6764931.100 2
  21270665.223   -17067246.173 6 -13207683.717 6
  22603979.707    -7594729.693 5  -5793064.287 4
  19254835.254   -28870785.572 7 -22295311.136 9
 94  1 27  2 28 29.9960000  0  7 19 27  2 13 26 15  7
  22432583.176     8448869.675 5   6590618.475 4
  20101180.434    -3570078.274 6  -2737240.820 8
  19765609.848   -12645327.822 7  -9791888.717 9
  22064284.527    -9103020.312 5  -6869873.267 4
  21263260.481   -17106174.647 6 -13238017.578 6
  22600927.785    -7610782.700 5  -5805573.089 5
  19246335.379   -28915431.532 7 -22330100.186 9
 94  1 27  2 28 59.9960000  0  7 19 27  2 13 26 15  7
  22445416.629     8516310.656 5   6643169.855 4
  20109729.340    -3525149.086 6  -2702231.089 8
  19763074.723   -12658646.634 7  -9802267.017 9
  22038697.621    -9237465.224 5  -6974635.479 5
  21255953.824   -17144573.172 6 -13267938.503 6
  22597972.356    -7626286.129 5  -5817653.667 4
  19237930.035   -28959592.543 7 -22364511.354 9
 94  1 27  2 29 29.9960000  0  7 19 27  2 13 26 15  7
  22458284.590     8583946.242 5   6695872.923 2
  20118353.652    -3479829.685 6  -2666917.266 7
  19760572.777   -12671784.604 7  -9812504.369 8
  22013162.629    -9371673.698 5  -7079213.420 3
  21248745.270   -17182440.765 6 -13297445.698 6
  22595127.949    -7641236.882 5  -5829303.558 2
  19229622.895   -29003256.034 7 -22398534.825 8
 94  1 27  2 29 59.9960000  0  7 19 27  2 13 26 15  7
  22471194.262     8651786.402 5   6748735.352 3
  20127050.340    -3434115.431 6  -2631295.798 8
  19758111.629   -12684733.342 7  -9822594.311 9
  21987670.051    -9505641.156 5  -7183603.595 5
  21241638.332   -17219789.641 6 -13326548.733 6
  22592394.340    -7655633.316 5  -5840521.546 5
  19221410.035   -29046423.263 7 -22432171.619 9
 94  1 27  2 30 29.9960000  0  7 19 27  2 13 26 15  7
  22484146.504     8719834.790 5   6801760.070 3
  20135823.129    -3388017.448 6  -2595375.282 7
  19755680.777   -12697501.499 7  -9832543.504 8
  21962219.793    -9639362.638 5  -7287802.061 4
  21234625.621   -17256632.902 6 -13355257.737 6
  22589762.863    -7669472.931 5  -5851305.642 3
  19213292.098   -29089082.641 7 -22465412.663 8
 94  1 27  2 30 59.9960000  0  7 19 27  2 13 26 15  7
  22497135.746     8788100.847 5   6854954.370 5
  20144671.988    -3341533.530 6  -2559154.082 8
  19753284.676   -12710094.264 7  -9842356.059 9
  21936822.934    -9772836.010 5  -7391807.256 4
  21227718.191   -17292960.174 6 -13383564.709 6
  22587231.441    -7682756.593 5  -5861656.509 5
  19205269.809   -29131224.479 7 -22498250.461 9
 94  1 27  2 31 29.9960000  0  7 19 27  2 13 26 15  7
  22510171.793     8856608.287 5   6908336.776 3
  20153589.168    -3294660.526 6  -2522629.662 7
  19750919.223   -12722522.408 7
  21911471.371    -9906057.242 5  -7495615.946 3
  21220902.684   -17328762.239 6 -13411462.401 6
  22584801.410    -7695482.818 5
  19197348.059   -29172855.504 7 -22530690.189 8
 94  1 27  2 31 59.9960000  0  7 19 27  2 13 26 15  7
  22523256.137     8925361.116 5   6961910.368 4
  20162583.137    -3247394.385 6  -2485798.920 7
  19748576.973   -12734814.305 7  -9861618.420 9
  21886167.879   -10039024.881 5  -7599227.044 4
  21214189.270   -17364033.252 6 -13438946.316 6
  22582492.863    -7707652.560 5
  19189524.496   -29213981.529 7 -22562736.440 9
 94  1 27  2 32 59.9950000  0  7 19 27  2 13 26 15  7
  22549558.655     9063578.644 4   7069612.269 5
  20180801.788    -3151657.916 6  -2411199.096 7
  19743981.062   -12758990.133 7  -9880456.715 9
  21835707.444   -10304185.572 6  -7805845.657 4
  21201084.101   -17432913.470 6 -13492619.186 6
  22578172.874    -7730324.608 5        -0.41315
  19174160.499   -29294711.115 7 -22625642.586 9
 94  1 27  2 33 29.9950000  0  7 19 27  2 13 26 15  7
  22562771.280     9133024.040 4   7123725.573 5
  20190025.452    -3103186.629 6  -2373429.268 7
  19741723.530   -12770853.949 7  -9889701.233 9
  21810552.101   -10436374.130 6  -7908849.690 4
  21194685.585   -17466524.319 6 -13518809.450 6
  22576179.288    -7740823.324 5     -8181.211 4
  19166624.773   -29334303.787 7 -22656494.000 9
 94  1 27  2 33 59.9950000  0  7 19 27  2 13 26 15  7
  22576022.608     9202660.373 4   7177987.624 5
  20199325.343    -3054307.615 6  -2335341.722 7
  19739496.804   -12782552.137 7  -9898816.691 9
  21785452.390   -10568296.296 6  -8011646.123 5
  21188399.147   -17499576.965 6 -13544564.750 7
  22574288.093    -7750763.984 5    -15927.126 5
  19159186.921   -29373378.266 7 -22686941.621 9
 94  1 27  2 34 29.9950000  0  7 19 27  2 13 26 15  7
  22589307.671     9272466.985 4   7232382.376 4
  20208703.249    -3005035.215 6  -2296947.657 7
  19737304.171   -12794066.557 7  -9907788.959 9
  21760396.554   -10699957.552 6  -8114239.257 5
  21182212.437   -17532084.065 6 -13569894.950 6
  22572496.413    -7760154.468 5    -23244.356 4
  19151853.491   -29411938.166 7 -22716988.286 9
 94  1 27  2 34 59.9950000  0  7 19 27  2 13 26 15  7
  22602627.007     9342447.904 4   7286912.911 4
  20218152.710    -2955369.566 6  -2258247.176 7
  19735153.952   -12805373.759 7  -9916599.765 9
  21735397.085   -10831345.726 6  -8216619.619 5
  21176131.640   -17564043.358 6 -13594798.312 6
  22570821.718    -7768985.926 5    -30125.993 5
  19144611.390   -29449978.759 7 -22746630.310 9
 94  1 27  2 35 29.9950000  0  7 19 27  2 13 26 15  7
  22615974.124     9412601.920 4   7341578.348 4
  20227683.897    -2905292.891 6  -2219226.400 7
  19733042.444   -12816478.746 7  -9925252.990 9
  21710452.491   -10962459.059 6  -8318785.804 5
  21170156.304   -17595437.117 6 -13619260.970 6
  22569247.937    -7777258.679 5    -36572.286 5
  19137469.851   -29487509.174 7 -22775874.778 9
 94  1 27  2 35 59.9950000  0  7 19 27  2 13 26 15  7
  22629352.437     9482931.631 4   7396380.728 3
  20237293.757    -2854787.593 6  -2179871.622 7
  19730965.124   -12827382.952 7  -9933749.760 9
  21685549.679   -11093293.452 6  -8420734.615 5
  21164290.421   -17626267.792 6 -13643284.856 6
  22567776.905    -7784971.749 5    -42582.407 5
  19130421.929   -29524537.605 7 -22804728.079 8
 94  1 27  2 36 29.9950000  0  7 19 27  2 13 26 15  7
  22642776.272     9553445.698 4   7451326.696 4
  20246985.624    -2803872.646 6  -2140197.661 7
  19728923.062   -12838108.961 7  -9942107.693 9
  21660701.523   -11223848.514 6  -8522465.794 5
  21158527.030   -17656558.064 6 -13666887.675 6
  22566411.429    -7792127.878 5    -48158.611 4
  19123471.898   -29561070.624 7 -22833195.365 9
 94  1 27  2 36 59.9950000  0  7 19 27  2 13 26 15  7
  22656227.476     9624148.751 4   7506419.951 4
  20256750.726    -2752542.963 6  -2100200.514 7
  19726908.898   -12848697.283 7  -9950358.314 9
  21635915.780   -11354122.670 6  -8623978.090 5
  21152862.444   -17686308.613 6 -13690069.896 6
  22565161.655    -7798728.351 5    -53301.801 5
  19116616.077   -29597107.741 7 -22861276.217 9
 94  1 27  2 37 29.9950000  0  7 19 27  2 13 26 15  7
  22669721.437     9695050.345 4   7561667.926 3
  20266597.233    -2700806.889 6  -2059886.696 7
  19724917.460   -12859167.898 7  -9958517.217 9
  21611180.671   -11484109.698 6  -8725266.629 5
  21147301.648   -17715521.836 6 -13712833.434 6
  22564007.374    -7804769.762 5    -58009.367 5
  19109854.444   -29632652.500 7 -22888973.412 9
 94  1 27  2 37 59.9950000  0  7 19 27  2 13 26 15  7
  22683251.280     9766152.582 4   7617072.237 3
  20276510.710    -2648707.038 6  -2019289.417 7
  19722946.015   -12869520.658 7  -9966584.284 9
  21586497.624   -11613808.959 6  -8826330.930 5
  21141840.210   -17744214.559 6 -13735191.388 6
  22562961.835    -7810253.999 5    -62282.763 5
  19103181.210   -29667711.468 7 -22916292.066 8
 94  1 27  2 38 29.9950000  0  7 19 27  2 13 26 15  7
  22696820.655     9837470.227 4   7672644.390 4
  20286488.335    -2596267.059 6  -1978427.116 7
  19720997.335   -12879756.189 7  -9974560.017 9
  21561867.562   -11743220.771 6  -8927171.272 5
  21136482.304   -17772385.172 6 -13757142.513 6
  22562026.265    -7815184.685 5    -66124.842 4
  19096604.171   -29702281.058 7 -22943229.405 9
 94  1 27  2 38 59.9950000  0  7 19 27  2 13 26 15  7
  22710441.897     9909011.261 4   7728390.643 4
  20296533.312    -2543478.107 6  -1937292.890 7
  19719081.085   -12889844.961 7  -9982421.393 9
  21537299.257   -11872336.101 6  -9027780.585 5
  21131223.312   -17800015.163 6 -13778672.378 6
  22561200.390    -7819555.776 5    -69530.863 5
  19090116.288   -29736351.035 7 -22969777.425 9
 94  1 27  2 39 29.9950000  0  7 19 27  2 13 26 15  7
  22724099.601     9980778.205 4   7784312.905 4
  20306643.898    -2490347.933 6  -1895892.766 7
  19717194.421   -12899745.931 7  -9990136.422 9
  21512787.960   -12001152.704 6  -9128157.118 5
  21126069.624   -17827110.429 6 -13799785.557 6
  22560474.023    -7823367.908 5    -72501.313 4
  19083731.140   -29769926.543 7 -22995940.151 8
 94  1 27  2 39 59.9950000  0  7 19 27  2 13 26 15  7
  22737794.218    10052763.241 4   7840405.100 3
  20316821.921    -2436859.407 6  -1854213.400 7
  19715349.515   -12909439.713 7  -9997690.021 9
  21488329.983   -12129671.444 6  -9228301.560 5
  21121012.179   -17853678.157 6 -13820487.678 6
  22559849.843    -7826625.120 5    -75039.366 5
  19077438.905   -29802992.853 7 -23021706.095 8
 94  1 27  2 40 29.9950000  0  7 19 27  2 13 26 15  7
  22751536.601    10124957.151 4   7896660.094 4
  20327076.976    -2382979.290 6  -1812228.914 7
  19713545.233   -12918923.308 7 -10005079.818 9
  21463932.358   -12257883.898 6  -9328207.335 5
  21116056.929   -17879707.551 6 -13840770.318 6
  22559328.241    -7829321.577 5    -77140.485 5
  19071245.812   -29835541.291 7 -23047068.500 8
 94  1 27  2 40 59.9950000  0  7 19 27  2 13 26 15  7
  22765301.093    10197328.702 4   7953053.490 3
  20337406.663    -2328699.015 6  -1769932.624 7
  19711779.351   -12928201.238 7 -10012309.366 9
  21439592.968   -12385789.177 6  -9427873.759 5
  21111210.194   -17905197.531 6 -13860632.639 6
  22558930.569    -7831459.975 5    -78806.732 5
  19065147.249   -29867578.940 7 -23072032.894 8
 94  1 27  2 41 29.9950000  0  7 19 27  2 13 26 15  7
  22779108.733    10269862.848 4   8009573.583 3
  20347809.882    -2274017.412 6  -1727323.596 7
  19710051.241   -12937285.348 7 -10019387.891 9
  21415311.937   -12513386.098 6  -9527299.887 5
  21106463.366   -17930150.506 6 -13880076.521 6
  22558635.499    -7833041.805 5    -80039.300 5
  19059142.569   -29899112.123 7 -23096604.185 8
 94  1 27  2 41 59.9950000  0  7 19 27  2 13 26 15  7
  22792938.898    10342557.048 3   8066218.371 3
  20358290.257    -2218938.252 6  -1684404.797 7
  19708356.952   -12946195.903 7 -10026331.176 9
  21391090.515   -12640669.529 6  -9626481.743 5
  21101817.444   -17954555.332 6 -13899093.266 6
  22558439.585    -7834065.293 5    -80836.785 5
  19053240.038   -29930145.852 7 -23120786.305 8
 94  1 27  2 42 29.9950000  0  7 19 27  2 13 26 15  7
  22806801.398    10415400.721 3   8122979.672 2
  20368844.741    -2163478.264 6  -1641189.242 7
  19706685.944   -12954960.095 7 -10033160.413 9
  21366929.483   -12767645.071 6  -9725423.694 5
  21097279.608   -17978404.338 6 -13917676.907 6
  22558345.233    -7834538.876 5
  19047427.507   -29960704.656 7 -23144598.350 8
 94  1 27  2 42 59.9950000  0  7 19 27  2 13 26 15  7
  22820696.937    10488418.425 3   8179876.568 3
  20379470.319    -2107646.298 6  -1597683.836 7
  19705048.702   -12963577.254 7 -10039875.073 9
  21342822.757   -12894307.387 6  -9824121.567 5
  21092845.358   -18001701.306 6 -13935830.387 6
  22558357.624    -7834460.441 5
  19041700.702   -29990790.720 7 -23168042.024 8
 94  1 27  2 43 29.9950000  0  7 19 27  2 13 26 15  7
  22834631.210    10561632.635 3   8236926.567 3
  20390167.069    -2051439.421 6  -1553886.283 7
  19703437.694   -12972046.106 7 -10046474.173 9
  21318781.890   -13020651.424 6  -9922571.443 5
  21088517.233   -18024450.865 6 -13953557.315 6
  22558477.694    -7833827.743 5    -80651.619 5
  19036062.210   -30020408.456 7 -23191120.766 8
 94  1 27  2 43 59.9950000  0  7 19 27  2 13 26 15  7
  22848604.655    10635052.624 3   8294136.916 1
  20400933.640    -1994856.478 6  -1509795.717 7
  19701853.569   -12980360.609 7 -10052953.008 9
  21294799.491   -13146670.338 6 -10020767.985 5
  21084296.804   -18046651.451 6 -13970856.483 6
  22558706.218    -7832637.059 5    -79723.789 5
  19030519.843   -30049546.204 7 -23213825.512 8
 94  1 27  2 44 29.9950000  0  7 19 27  2 13 26 15  7
  22862611.233    10708664.521 3   8351496.835 1
  20411773.726    -1937898.137 6  -1465412.617 7
  19700304.757   -12988516.884 7 -10059308.545 9
  21270884.429   -13272365.271 6 -10118712.046 5
  21080167.632   -18068311.325 6 -13987734.305 6
  22559035.780    -7830892.613 5    -78364.459 5
  19025065.718   -30078195.617 7 -23236149.719 8
 94  1 27  2 44 59.9950000  0  7 19 27  2 13 26 15  7
  22876649.843    10782464.588 3   8409003.358 1
  20422678.585    -1880580.433 6  -1420749.501 6
  19698782.624   -12996512.602 7 -10065538.965 9
  21247028.616   -13397735.124 6 -10216402.812 5
  21076150.507   -18089450.349 6 -14004206.269 6
  22559469.530    -7828596.982 5    -76575.624 5
  19019707.444   -30106349.721 7 -23258087.970 8
 94  1 27  2 45 29.9950000  0  8 19 27  2 13 26 15  4  7
  22890726.757    10856435.982 3   8466643.384 1
  20433656.140    -1822902.087 6  -1375805.360 7
  19697292.233   -13004349.287 7 -10071645.467 9
  21223233.804   -13522774.179 6 -10313835.827 5
  21072222.929   -18110058.616 6 -14020264.664 6
  22560015.890    -7825747.055 5    -74354.883 5
  23268546.163     -122216.570 3
  19014447.429   -30134000.548 7 -23279634.055 8
 94  1 27  2 45 59.9950000  0  8 19 27  2 13 26 15  4  7
  22904831.858    10930568.829 3   8524409.250 1
  20444696.968    -1764870.588 6  -1330586.041 7
  19695827.538   -13012036.718 7 -10077635.668 9
  21199502.023   -13647481.057 6 -10411009.994 5
  21068403.796   -18130133.263 6 -14035907.241 7
  22560663.038    -7822344.626 5    -71703.599 5
  23245276.413     -244495.316 3        -0.29312
  19009285.858   -30161141.789 7 -23300783.064 8
 94  1 27  2 46 29.9950000  0  8 19 27  2 13 26 15  4  7
  22918974.671    11004863.571 3   8582301.248 3
  20455809.015    -1706489.123 6  -1285094.022 6
  19694392.663   -13019575.959 7 -10083510.391 9
  21175834.741   -13771849.729 6 -10507920.626 5
  21064686.405   -18149676.650 6 -14051135.848 6
  22561424.983    -7818387.072 5    -68619.754 5
  23222002.710     -366819.601 3    -95317.887 2
  19004211.148   -30187783.225 7 -23321542.616 8
 94  1 27  2 46 59.9950000  0  8 19 27  2 13 26 15  4  7
  22933139.733    11079319.973 3   8640319.195 3
  20466986.007    -1647751.311 6  -1239324.321 6
  19692987.476   -13026966.169 7 -10089268.990 9
  21152233.952   -13895876.436 6 -10604564.810 5
  21061068.866   -18168694.042 6 -14065954.597 6
  22562282.023    -7813874.184 5    -65103.204 5
  23198711.171     -489194.556 3   -190674.922 2
  18999236.046   -30213935.670 7 -23341921.132 8
 94  1 27  2 47 29.9950000  0  8 19 27  2 13 26 15  4  7
  22947343.530    11153942.190 3   8698466.355 2
  20478235.007    -1588638.937 6  -1193262.759 6
  19691611.413   -13034193.559 7 -10094900.709 9
  21128698.929   -14019558.635 6 -10700940.546 5
  21057550.655   -18187186.483 6 -14080364.289 7
  22563238.788    -7808806.181 5    -61154.082 5
  23175414.944     -611637.520 3   -286084.926 1
  18994350.648   -30239601.479 7 -23361920.452 8
 94  1 27  2 47 59.9950000  0  8 19 27  2 13 26 15  4  7
  22961578.101    11228732.015 3   8756744.113 3
  20489554.569    -1529150.010 6  -1146907.781 6
  19690270.218   -13041241.839 7 -10100392.863 9
  21105227.999   -14142896.806 6 -10797048.180 5
  21054127.710   -18205166.646 6 -14094374.806 6
  22564311.890    -7803186.931 5    -56775.407 5
  23152092.577     -734160.136 3   -381557.076 2
  18989558.773   -30264784.053 7 -23381543.221 8
 94  1 27  2 48 29.9950000  0  8 19 27  2 13 26 15  4  7
  22975840.687    11303684.899 3   8815148.937 2
  20500947.827    -1469283.955 6  -1100258.931 6
  19688964.171   -13048095.635 7 -10105733.478 9
  21081824.733   -14265887.778 6
  21050801.780   -18222636.877 6 -14107987.969 6
  22565486.702    -7797016.612 5    -51967.347 5
  23128762.991     -856766.089 3
  18984863.616   -30289482.306 7 -23400788.603 8
 94  1 27  2 48 59.9950000  0  8 19 27  2 13 26 15  4  7
  22990129.749    11378807.992 3   8873686.425 1
  20512411.030    -1409041.414 6  -1053316.709 6
  19687698.624   -13054753.913 7 -10110921.740 9
  21058485.030   -14388529.068 6 -10988449.914 5
  21047578.819   -18239588.333 6 -14121196.893 6
  22566760.343    -7790295.905 5    -46730.399 5
  23105415.608     -979458.472 3   -572698.519 2
  18980255.062   -30313685.020 7 -23419647.848 8
 94  1 27  2 49 29.9950000  0  8 19 27  2 13 26 15  4  7
  23004460.937    11454112.555 3   8932365.272 3
  20523945.077    -1348428.487 6  -1006085.885 6
  19686469.296   -13061221.888 7 -10115961.712 9
  21035216.194   -14510817.411 6 -11083739.517 5
  21044453.632   -18256010.629 6 -14133993.485 6
  22568152.749    -7783025.086 5    -41064.796 5
  23082058.444    -1102226.279 3   -668361.719 2
  18975742.288   -30337386.204 7 -23438116.289 8
 94  1 27  2 49 59.9950000  0  8 19 27  2 13 26 15  4  7
  23018818.616    11529592.217 3   8991180.581 2
  20535548.726    -1287455.506 6   -958574.501 6
  19685272.937   -13067511.792 7 -10120862.927 9
  21012010.858   -14632749.455 6 -11178751.485 5
  21041426.913   -18271891.364 6 -14146368.093 6
  22569632.671    -7775204.142 5    -34970.504 5
  23058678.843    -1225061.085 3   -764077.065 3
  18971327.523   -30360588.672 7 -23456196.132 8
 94  1 27  2 50 29.9950000  0  8 19 27  2 13 26 15  4  7
  23033221.710    11605241.558 3   9050128.073 3
  20547216.952    -1226135.369 6   -910792.595 6
  19684104.319   -13073641.030 7 -10125638.949 9
  20988876.866   -14754322.943 6 -11273484.065 5
  21038509.804   -18287226.009 6 -14158317.165 6
  22571221.812    -7766833.977 5    -28448.266 5
  23035298.694    -1347955.450 3   -859838.858 4
  18967009.476   -30383299.415 7 -23473892.805 8
 94  1 27  2 50 59.9950000  0  8 19 27  2 13 26 15  4  7
  23047648.015    11681069.259 3   9109214.578 1
  20558952.304    -1164459.736 6   -862733.691 6
  19682967.937   -13079612.580 7 -10130292.100 9
  20965811.054   -14875528.927 6 -11367930.268 5
  21035699.054   -18302014.322 6 -14169840.510 6
  22572933.343    -7757908.812 5    -21493.549 5
  23011901.741    -1470898.203 3   -955638.350 2
  18962781.710   -30405517.684 7 -23491205.727 8
 94  1 27  2 51 29.9950000  0  8 19 27  2 13 26 15  4  7
  23062110.890    11757050.000 3   9168420.298 1
  20570756.976    -1102430.838 6   -814399.503 6
  19681858.835   -13085435.272 7 -10134829.254 9
  20942814.851   -14996375.652 6 -11462096.545 5
  21032984.312   -18316280.459 6 -14180956.986 6
  22574727.983    -7748440.134 5    -14115.335 5
  22988495.140    -1593898.404 3  -1051482.620 3
  18958642.499   -30427267.817 7 -23508153.874 8
 94  1 27  2 51 59.9950000  0  8 19 27  2 13 26 15  4  7
  23076597.741    11833178.003 3   9227740.795 2
  20582627.632    -1040047.748 6   -765789.331 6
  19680783.007   -13091094.073 7 -10139238.705 9
  20919892.413   -15116847.792 6 -11555970.918 5
  21030371.562   -18330020.572 6 -14191663.570 6
  22576639.999    -7738416.448 5     -6304.652 5
  22965080.444    -1716941.643 4  -1147360.426 2
  18954592.726   -30448536.828 7 -23524727.120 8
 94  1 27  2 52 29.9950000  0  8 19 27  2 13 26 15  4  7
  23091112.679    11909442.020 3   9287167.234 1
  20594564.507     -977321.094 6   -716911.441 6
  19679735.507   -13096584.947 7 -10143517.304 9
  20897039.827   -15236940.179 6 -11649549.382 5
  21027856.397   -18343237.369 6 -14201962.362 6
  22578650.960    -7727835.835 5      1940.021 5
  22941662.749    -1840021.935 4  -1243267.087 3
  18950638.116   -30469321.835 7 -23540923.220 8
 94  1 27  2 52 59.9950000  0  8 19 27  2 13 26 15  4  7
  23105648.304    11985828.043 3   9346688.803 2
  20606565.288     -914258.693 6   -667771.944 6
  19678720.413   -13101924.894 7 -10147678.290 9
  20874254.640   -15356667.532 6 -11742843.396 6
  21025438.827   -18355943.177 6 -14211862.990 6
  22580768.655    -7716716.397 5     10604.534 5
  22918227.562    -1963154.627 4  -1339214.598 2
  18946772.937   -30489640.686 7 -23556756.077 8
 94  1 27  2 53 29.9950000  0  8 19 27  2 13 26 15  4  7
  23120201.476    12062338.756 3   9406307.520 2
  20618627.773     -850863.639 6   -618373.232 6
  19677736.366   -13107108.365 7 -10151717.354 9
  20851540.554   -15476025.959 6 -11835849.947 5
  21023115.812   -18368126.588 6 -14221356.556 6
  22582981.937    -7705057.419 5     19689.467 5
  22894791.757    -2086328.586 4  -1435194.255 2
  18942991.608   -30509495.794 7 -23572227.582 8
 94  1 27  2 53 59.9950000  0  8 19 27  2 13 26 15  4  7
  23134789.241    12138992.328 3   9466037.537 1
  20630754.343     -787147.696 6   -568724.475 6
  19676779.351   -13112132.035 7 -10155631.895 9
  20828899.515   -15595009.120 6 -11928564.066 6
  21020903.171   -18379767.227 6 -14230427.180 6
  22585303.187    -7692856.124 5     29196.991 5
  22871341.546    -2209532.580 4  -1531197.325 4
  18939305.585   -30528873.770 7 -23587327.296 8
 94  1 27  2 54 29.9950000  0  8 19 27  2 13 26 15  4  7
  23149409.608    12215822.041 3   9525904.877 2
  20642945.944     -723080.344 6   -518801.894 6
  19675852.835   -13116990.530 7 -10159417.726 9
  20806330.929   -15713606.981 6 -12020977.964 5
  21018793.812   -18390854.684 6 -14239066.760 6
  22587734.015    -7680105.805 5     39132.340 5
  22847897.444    -2332752.862 5  -1627213.060 3
  18935709.905   -30547774.896 7 -23602055.435 8
 94  1 27  2 54 59.9950000  0  8 19 27  2 13 26 15  4  7
  23164070.452    12292844.950 3   9585922.670 1
  20655204.413     -658650.790 6   -468597.080 6
  19674963.202   -13121682.499 7 -10163073.801 9
  20783835.960   -15831819.563 6 -12113091.642 6
  21016785.843   -18401398.263 6 -14247282.531 6
  22590267.483    -7666809.761 5     49492.915 5
  22824444.968    -2455978.598 4  -1723233.049 3
  18932203.405   -30566200.864 7 -23616413.317 8
 94  1 27  2 55 29.9950000  0  8 19 27  2 13 26 15  4  7
  23178757.819    12370056.140 3   9646087.235 1
  20667534.288     -593871.829 6   -418120.003 6
  19674102.452   -13126199.429 7 -10166593.481 9
  20761415.804   -15949644.049 6 -12204902.921 5
  21014883.741   -18411408.236 6 -14255082.514 7
  22592891.960    -7652968.895 5     60278.038 5
  22800997.210    -2579205.824 5  -1819254.197 4
  18928788.663   -30584139.271 7 -23630391.291 8
 94  1 27  2 55 59.9950000  0  8 19 27  2 13 26 15  4  7
  23193485.335    12447446.319 3   9706391.198 1
  20679926.515     -528748.138 6   -367374.300 6
  19673276.140   -13130544.379 7 -10169979.152 9
  20739067.327   -16067080.158 6 -12296411.560 6
  21013072.085   -18420899.859 6 -14262478.589 7
  22595628.601    -7638586.781 5     71484.914 5
  22777542.015    -2702448.086 4  -1915287.053 4
  18925472.343   -30601590.456 7 -23643989.603 8
 94  1 27  2 56 29.9950000  0  8 19 27  2 13 26 15  4  7
  23208244.093    12524989.698 3   9766814.574 2
  20692382.983     -463277.967 6   -316358.621 6
  19672480.718   -13134723.760 7 -10173235.804 9
  20716793.358   -16184132.174 6 -12387620.904 6
  21011358.538   -18429898.694 6 -14269490.660 7
  22598470.577    -7623670.353 5     83108.127 5
  22754083.577    -2825718.472 4  -2011341.839 3
  18922237.124   -30618568.240 7 -23657219.033 8
 94  1 27  2 56 59.9950000  0  8  9 27  2 13 26 15  4  7
  23144554.585          -0.73013
  20704907.952     -397468.302 6   -265078.387 6
  19671720.694   -13138721.605 7 -10176350.996 9
  20694594.437   -16300788.502 6 -12478521.917 6
  21009744.007   -18438398.209 6 -14276113.661 6
  22601416.374    -7608211.882 5     95153.714 5
  22730625.546    -2949015.878 5  -2107417.683 4
  18919096.733   -30635061.470 7 -23670070.885 8
 94  1 27  2 57 29.9950000  0  8  9 27  2 13 26 15  4  7
  23121300.108     -122162.106 3
  20717495.413     -331318.755 6   -213533.308 6
  19670995.632   -13142529.192 7 -10179317.939 9
  20672471.038   -16417041.619 6 -12569108.733 6
  21008228.413   -18446387.596 6 -14282339.151 6
  22604453.929    -7592207.203 5    107624.926 5
  22707150.257    -3072347.149 4  -2203519.895 3
  18916050.804   -30651068.776 7 -23682544.096 8
 94  1 27  2 57 59.9950000  0  8  9 27  2 13 26 15  4  7
  23098071.132     -244278.433 3        -0.43611
  20730149.530     -264823.247 6   -161718.659 6
  19670303.929   -13146161.304 7 -10182148.148 9
  20650426.069   -16532897.056 6 -12659385.678 6
  21006800.421   -18453870.394 6 -14288169.902 6
  22607609.335    -7575665.450 5    120514.619 5
  22683683.194    -3195707.393 4  -2299644.705 4
  18913098.765   -30666608.691 7 -23694653.109 8
 94  1 27  2 58 29.9950000  0  8  9 27  2 13 26 15  4  7
  23074830.991     -366359.320 3    -95128.287 1
  20742869.663     -197977.031 6   -109630.724 6
  19669648.694   -13149618.613 7 -10184842.147 9
  20628456.679   -16648350.652 6 -12749349.491 5
  21005476.015   -18460838.114 6 -14293599.288 6
  22610859.608    -7558586.329 5    133823.061 5
  22660201.679    -3319072.029 4  -2395772.942 4
  18910228.374   -30681677.543 7 -23706395.064 8
 94  1 27  2 58 59.9950000  0  8  9 27  2 13 26 15  4  7
  23051600.749     -488420.812 3   -190241.025 1
  20755654.983     -130796.321 6    -57282.148 6
  19669018.616   -13152901.388 7 -10187400.148 9
  20606561.140   -16763407.600 6 -12839004.241 5
  21004249.382   -18467291.781 6 -14298628.114 6
  22614205.015    -7540978.115 5    147543.765 5
  22636729.358    -3442434.419 5  -2491899.416 4
  18907451.718   -30696279.973 7 -23717773.569 9
 94  1 27  2 59 29.9950000  0  8  9 27  2 13 26 15  4  7
  23028377.562     -610465.574 3   -285340.733 1
  20768502.960      -63281.735 6     -4673.416 6
  19668426.702   -13156017.497 7 -10189828.276 9
  20584743.140   -16878059.537 6 -12928343.395 6
  21003118.874   -18473231.591 6 -14303256.533 6
  22617655.030    -7522835.760 5    161680.692 4
  22613255.890    -3565778.741 4  -2588011.807 4
  18904758.819   -30710419.089 7 -23728791.053 9
 94  1 27  2 59 59.9950000  0  8  9 27  2 13 26 15  4  7
  23005160.015     -732483.747 3   -380419.707 1
  20781412.655        4570.271 6     48198.265 6
  19667864.108   -13158972.467 7 -10192130.848 9
  20563004.148   -16992300.059 6 -13017361.962 6
  21002080.179   -18478664.570 6 -14307490.023 6
  22621211.827    -7504156.550 5    176235.955 5
  22589792.718    -3689095.533 5  -2684102.783 4
  18902158.569   -30724099.478 7 -23739451.090 9
 94  1 27  3  0 29.9950000  0  8  9 27  2 13 26 15  4  7
  22981949.210     -854472.824 4   -475476.032 2
  20794383.280       72739.704 6    101317.288 6
  19667333.132   -13161761.390 7 -10194304.045 9
  20541343.702   -17106129.754 6 -13106060.418 6
  21001145.210   -18483599.057 6 -14311335.071 6
  22624869.460    -7484944.824 5    191206.164 5
  22566328.077    -3812398.525 4  -2780182.992 4
  18899641.233   -30737329.111 7 -23749759.885 9
 94  1 27  3  0 59.9950000  0  8  9 27  2 13 26 15  4  7
  22958746.851     -976417.129 4   -570497.417 3
  20807415.257      141215.450 6    154674.984 6
  19666837.304   -13164382.342 7 -10196346.334 9
  20519762.163   -17219543.637 6 -13194434.848 6
  21000301.515   -18488037.255 6 -14314793.409 6
  22628625.335    -7465198.950 5    206592.591 4
  22542862.296    -3935697.981 5  -2876260.435 4
  18897202.882   -30750116.041 7 -23759723.714 9
 94  1 27  3  1 29.9950000  0  8  9 27  2 13 26 15  4  7
  22935547.780    -1098316.197 5   -665483.625 3
  20820505.640      210000.457 6    208273.680 6
  19666364.015   -13166851.633 7 -10198270.436 9
  20498258.554   -17332545.247 6 -13282488.038 6
  20999548.624   -18491985.784 6 -14317870.170 6
  22632481.265    -7444926.399 5    222389.410 5
  22519406.507    -4058999.899 5  -2972339.822 4
  18894858.827   -30762456.581 7 -23769339.705 9
 94  1 27  3  1 59.9950000  0  8  9 27  2 13 26 15  4  7
  22912358.819    -1220158.569 4   -760425.635 2
  20833654.921      279101.626 6    262118.724 6
  19665927.546   -13169150.490 7 -10200061.747 9
  20476832.187   -17445131.283 6 -13370217.395 6
  20998893.757   -18495435.675 6 -14320558.392 6
  22636446.108    -7424127.077 5    238596.685 4
  22495937.069    -4182298.751 5  -3068416.790 4
  18892597.663   -30774328.625 7 -23778590.643 9
 94  1 27  3  2 29.9950000  0  8  9 27  2 13 26 15  4  7
  22889184.648    -1341936.235 4   -855317.206 3
  20846863.991      348520.988 6    316211.697 6
  19665524.624   -13171261.015 7 -10201706.303 9
  20455488.733   -17557290.680 6 -13457614.309 6
  20998334.679   -18498362.495 6 -14322839.027 6
  22640497.202    -7402793.628 5    255220.176 4
  22472474.835    -4305584.571 5  -3164483.634 4
  18890434.437   -30785708.899 7 -23787458.370 9
 94  1 27  3  2 59.9950000  0  8  9 27  2 13 26 15  4  7
  22866024.796    -1463659.789 5   -950166.618 3
  20860134.054      418254.509 6    370549.486 6
  19665157.616   -13173195.476 7 -10203213.671 9
  20434223.827   -17669031.461 6 -13544685.029 6
  20997874.382   -18500773.194 6 -14324717.497 6
  22644657.163    -7380937.448 5    272250.975 4
  22449009.327    -4428874.996 5  -3260554.056 4
  18888361.366   -30796605.550 7 -23795949.259 9
 94  1 27  3  3 29.9950000  0  8  9 27  2 13 26 15  4  7
  22842869.921    -1585337.039 5  -1044979.965 2
  20873464.890      488306.045 6    425135.078 6
  19664827.593   -13174950.796 7
  20413041.257   -17780351.995 6 -13631428.279 6
  20997513.483   -18502660.996 6
  22648916.866    -7358560.646 5    289687.455 5
  22425558.499    -4552165.614 5  -3356624.639 5
  18886376.874   -30807012.165 7 -23804058.302 9
 94  1 27  3  3 59.9950000  0  8  9 27  2 13 26 15  4  7
  22819723.468    -1706960.978 5  -1139751.793 3
  20886853.327      558666.914 6    479961.714 6
  19664525.937   -13176522.235 7 -10205805.940 9
  20391940.757   -17891240.957 6 -13717835.241 6
  20997256.257   -18504018.389 6 -14327246.220 6
  22653280.632    -7335655.629 5    307535.553 5
  22402091.687    -4675450.966 5  -3452691.118 3
  18884489.476   -30816946.654 7 -23811799.448 9
 94  1 27  3  4 29.9950000  0  8  9 27  2 13 26 15  4  7
  22796593.819    -1828540.279 5  -1234488.827 4
  20900299.569      629320.829 6    535016.682 6
  19664257.148   -13177934.367 7 -10206906.295 9
  20370920.624   -18001702.066 6 -13803908.817 6
  20997100.062   -18504866.527 6 -14327907.129 6
  22657730.491    -7312229.539 5    325789.673 4
  22378626.913    -4798745.810 4  -3548765.005 3
  18882680.077   -30826443.684 7 -23819199.727 9
 94  1 27  3  4 59.9950000  0  8  9 27  2 13 26 15  4  7
  22773459.796    -1950072.372 5  -1329189.109 5
  20913801.741      700275.156 6    590305.740 6
  19664019.155   -13179193.578 7 -10207887.499 9
  20349984.437   -18111728.592 6 -13889643.750 6
  20997027.413   -18505217.356 6
  22662294.765    -7288279.239 5    344452.267 3
  22355174.530    -4922033.840 5  -3644833.578 4
  18880955.921   -30835508.409 7 -23826263.135 9
 94  1 27  3  5 29.9950000  0  8  9 27  2 13 26 15  4  7
  22750344.483    -2071553.335 5  -1423849.483 5
  20927359.983      771527.043 6    645826.657 6
  19663803.569   -13180311.178 7 -10208758.355 9
  20329128.858   -18221321.185 6 -13975040.551 6
  20997055.671   -18505081.160 6
  22666948.819    -7263809.181 5    363519.870 4
  22331714.007    -5045292.860 5  -3740879.571 5
  18879313.288   -30844143.422 7 -23832991.718 9
 94  1 27  3  5 59.9950000  0  8  9 27  2 13 26 15  4  7
  22727244.155    -2192966.941 5  -1518457.406 3
  20940977.491      843083.518 6    701584.921 6
  19663619.749   -13181275.254 7 -10209509.567 9
  20308357.952   -18330474.902 6 -14060095.371 6
  20997174.163   -18504477.413 6 -14327603.913 6
  22671707.460    -7238818.000 5    382993.543 2
  22308268.468    -5168518.742 5  -3836899.750 5
  18877751.296   -30852350.761 7 -23839387.050 9
 94  1 27  3  6 29.9950000  0  8  9 27  2 13 26 15  4  7
  22704150.132    -2314306.784 5  -1613007.856 4
  20954652.624      914958.179 6    757591.122 6
  19663473.062   -13182064.051 7 -10210124.202 9
  20287668.788   -18439190.321 6 -14144808.659 6
  20997371.108   -18503409.430 6 -14326771.707 6
  22676552.944    -7213309.429 4    402870.395 2
  22284823.882    -5291705.646 5  -3932889.522 5
  18876269.429   -30860124.403 7 -23845444.420 9
 94  1 27  3  7 29.9940000  0  8  9 27  2 13 26 15  4  7
  22658023.502    -2556703.048 5  -1801887.912 5
  20982195.119     1059684.582 6    870364.877 6
  19663285.447   -13183040.352 7
  20246547.025   -18655286.022 6 -14313194.872 6
  20998051.971   -18499844.536 6 -14323993.888 6
  22686556.721    -7160739.617 5    443833.906 4
  22237973.580    -5537896.682 5  -4124726.625 4
  18873573.572   -30874314.655 7 -23856501.743 9
 94  1 27  3  7 59.9940000  0  8  9 27  2 13 26 15  4  7
  22634984.908    -2677762.987 5  -1896220.264 4
  20996057.205     1132527.849 6    927125.842 6
  19663250.963   -13183212.129 7
  20226113.400   -18762669.035 6 -14396869.924 6
  20998534.486   -18497338.144 6 -14322040.854 6
  22691719.775    -7133684.432 5    464915.909 3
  22214567.455    -5660915.892 5  -4220585.771 5
  18872349.018   -30880736.518 7 -23861505.791 9
 94  1 27  3  8 29.9940000  0  8  9 27  2 13 26 15  4  7
  22611964.877    -2798751.718 5  -1990497.104 4
  21009977.463     1205685.905 6    984132.102 6
  19663253.791   -13183195.974 7
  20205765.330   -18869603.651 6 -14480195.573 6
  20999105.705   -18494324.048 6 -14319692.203 6
  22696955.697    -7106116.628 5    486397.341 4
  22191167.830    -5783875.242 5  -4316398.252 5
  18871216.315   -30886700.973 7 -23866153.400 9
 94  1 27  3  8 59.9940000  0  8  9 27  2 13 26 15  4  7
  22588953.861    -2919678.494 5  -2084725.672 4
  21023957.611     1279153.220 6   1041379.331 6
  19663293.400   -13183010.387 7
  20185501.986   -18976089.120 7 -14563171.232 6
  20999771.697   -18490810.459 6 -14316954.338 6
  22702303.479    -7078039.324 5    508275.791 4
  22167777.049    -5906772.526 5  -4412162.325 4
  18870167.190   -30892204.098 7 -23870441.538 9
 94  1 27  3  9 29.9940000  0  8  9 27  2 13 26 15  4  7
  22565948.033    -3040556.967 4  -2178916.597 5
  21037999.424     1352931.680 6   1098869.022 6
  19663356.190   -13182662.308 7
  20165325.330   -19082119.642 7 -14645792.399 6
  21000534.213   -18486784.119 6 -14313816.931 6
  22707740.854    -7049450.056 4    530553.154 4
  22144409.572    -6029609.672 5  -4507879.608 5
  18869208.455   -30897247.895 7 -23874371.758 9
 94  1 27  3  9 59.9940000  0  8  9 27  2 13 26 15  4  7
  22542952.861    -3161390.767 5  -2273072.739 4
  21052093.166     1427010.020 5   1156592.379 6
  19663454.236   -13182166.823 7 -10210204.229 9
  20145234.440   -19187694.326 7 -14728058.361 6
  21001398.963   -18482246.499 6 -14310281.119 6
  22713284.166    -7020351.683 5    553227.208 3
  22121049.385    -6152382.698 5  -4603546.893 4
  18868332.682   -30901845.067 7 -23877953.976 9
 94  1 27  3 10 29.9940000  0  8  9 27  2 13 26 15  4  7
  22519971.049    -3282159.154 5  -2367177.892 4
  21066248.346     1501385.725 6   1214547.457 6
  19663578.010   -13181514.638 7 -10209696.019 9
  20125230.557   -19292814.147 7 -14809969.889 6
  21002358.674   -18477217.486 6 -14306362.398 6
  22718911.057    -6990748.872 4    576294.375 3
  22097690.205    -6275102.483 5  -4699172.682 5
  18867538.674   -30906009.518 7 -23881198.989 9
 94  1 27  3 10 59.9940000  0  8  9 27  2 13 26 15  4  7
  22497012.525    -3402841.720 5  -2461216.157 5
  21080456.690     1576048.315 5   1272726.076 6
  19663734.049   -13180684.180 7 -10209048.899 9
  20105313.002   -19397474.951 7 -14891523.736 6
  21003405.807   -18471703.158 6 -14302065.525 6
  22724642.744    -6960640.979 5    599755.065 4
  22074348.791    -6397763.787 5  -4794752.913 5
  18866826.752   -30909751.067 7 -23884114.482 9
 94  1 27  3 11 29.9940000  0  8  9 27  2 13 26 15  4  7
  22474060.604    -3523431.447 5  -2555182.106 5
  21094712.416     1650973.944 5   1331109.663 6
  19663924.471   -13179688.867 7 -10208273.324 9
  20085485.572   -19501679.859 7 -14972722.341 6
  21004544.721   -18465704.700 6 -14297391.415 6
  22730466.525    -6930035.090 5    623603.847 2
  22051020.229    -6520372.440 5  -4890292.091 5
  18866191.283   -30913084.194 7 -23886711.717 9
 94  1 27  3 11 59.9940000  0  8  9 27  2 13 26 15  4  7
  22451133.025    -3643914.141 5  -2649064.644 4
  21109019.838     1726156.322 5   1389693.306 6
  19664142.846   -13178518.673 7 -10207361.484 9
  20065742.088   -19605428.172 7 -15053565.168 6
  21005775.877   -18459254.542 6 -14292365.330 6
  22736382.971    -6898934.062 5    647838.439 4
  22027696.244    -6642934.400 5  -4985794.906 5
  18865637.775   -30916013.341 7 -23888994.156 9
 94  1 27  3 12 29.9940000  0  8  9 27  2 13 26 15  4  7
  22428227.721    -3764296.026 5  -2742868.629 4
  21123378.666     1801606.664 5   1448485.755 5
  19664410.447   -13177149.959 7 -10206294.956 9
  20046088.291   -19708710.141 7 -15134044.586 6
  21007089.674   -18452343.799 6 -14286980.338 6
  22742396.408    -6867331.858 5    672463.542 4
  22004390.158    -6765439.439 5  -5081253.384 5
  18865157.861   -30918511.730 7 -23890940.945 9
 94  1 27  3 12 59.9940000  0  8  9 27  2 13 26 15  4  7
  22405338.416    -3884590.840 5  -2836604.780 5
  21137786.291     1877323.749 5   1507486.050 6
  19664701.275   -13175597.758 7 -10205085.438 9
  20026522.658   -19811524.095 7 -15214159.334 6
  21008497.697   -18444962.103 6 -14281228.372 6
  22748512.721    -6835230.085 5    697477.934 3
  21981082.447    -6887867.804 5  -5176652.135 5
  18864771.510   -30920562.691 7 -23892539.096 9
 94  1 27  3 13 29.9940000  0  8  9 27  2 13 26 15  4  7
  22382457.713    -4004800.342 5  -2930274.453 5
  21152251.627     1953328.815 5   1566710.753 6
  19665032.268   -13173857.356 7 -10203729.282 9
  20007048.424   -19913867.813 7 -15293907.663 6
  21009991.174   -18437117.323 6 -14275115.562 6
  22754706.854    -6802630.307 4    722880.385 4
  21957803.236    -7010220.730 5  -5271992.041 5
  18864464.846   -30922159.646 7 -23893783.471 9
 94  1 27  3 13 59.9940000  0  8  9 27  2 13 26 15  4  7
  22359603.830    -4124921.659 5  -3023875.391 5
  21166769.760     2029633.426 5   1626168.864 6
  19665403.791   -13171902.381 7 -10202205.937 9
  19987663.486   -20015735.168 7 -15373284.794 6
  21011571.885   -18428804.920 6 -14268638.381 6
  22761013.729    -6769530.202 5    748672.682 4
  21934533.877    -7132488.153 5  -5367265.326 5
  18864251.986   -30923287.547 7 -23894662.338 9
 94  1 27  3 14 29.9940000  0  8  9 27  2 13 26 15  4  7
  22336753.885    -4244953.947 5  -3117406.980 5
  21181347.166     2106236.692 5   1685859.692 5
  19665813.549   -13169749.642 7 -10200528.442 9
  19968367.564   -20117127.254 7 -15452291.595 6
  21013245.158   -18420004.828 6 -14261781.165 6
  22767393.736    -6735934.494 4    774851.159 3
  21911287.354    -7254659.013 5  -5462463.374 5
  18864129.916   -30923945.956 7 -23895175.368 9
 94  1 27  3 14 59.9940000  0  8  9 27  2 13 26 15  4  7
  22313940.385    -4364871.003 5  -3210848.759 5
  21195983.447     2183144.107 5   1745787.527 5
  19666259.072   -13167417.738 7 -10198711.369 9
  19949165.947   -20218041.279 7 -15530925.879 6
  21015010.236   -18410734.437 6 -14254557.485 6
  22773887.322    -6701844.373 4    801414.918 3
  21888055.682    -7376732.911 5  -5557585.899 5
  18864087.525   -30924158.825 7
 94  1 27  3 15 29.9940000  0  8  9 27  2 13 26 15  4  7
  22291144.791    -4484663.698 5  -3304193.652 5
  21210671.291     2260337.019 5   1805937.829 5
  19666734.229   -13164896.690 7 -10196746.913 9
  19930052.385   -20318478.050 7 -15609188.283 6
  21016860.768   -18401004.264 6 -14246975.531 6
  22780465.783    -6667263.997 4    828360.685 5
  21864845.697    -7498723.573 5  -5652643.544 5
  18864129.432   -30923944.872 7
 94  1 27  3 15 59.9940000  0  8  9 27  2 13 26 15  4  7
  22268374.846    -4604328.368 5  -3397438.789 5
  21225410.088     2337789.447 5   1866290.357 6
  19667251.846   -13162201.243 7 -10194646.566 9
  19911031.338   -20418437.176 7 -15687078.487 6
  21018799.900   -18390821.218 6 -14239040.693 6
  22787143.268    -6632196.773 4    855685.806 4
  21841640.135    -7620624.061 5  -5747630.929 5
  18864243.236   -30923315.502 7 -23894684.075 9
 94  1 27  3 16 29.9940000  0  8  9 27  2 13 26 15  4  7
  22245624.916    -4723866.633 5  -3490585.444 5
  21240197.650     2415507.184 5   1926849.609 5
  19667795.033   -13159350.155 7 -10192424.926 9
  19892100.814   -20517914.516 7 -15764593.287 6
  21020823.869   -18380191.407 6 -14230757.737 6
  22793898.963    -6596642.042 4    883390.816 4
  21818469.916    -7742422.259 5  -5842538.606 5
  18864438.229   -30922296.463 7 -23893890.002 9
 94  1 27  3 16 59.9940000  0  8  9 27  2 13 26 15  4  7
  22222895.744    -4843294.146 5  -3583645.798 5
  21255036.416     2493476.709 5   1987605.072 5
  19668369.908   -13156332.974 7 -10190073.866 9
  19873262.635   -20616911.365 7 -15841733.668 6
  21022926.619   -18369132.788 6 -14222140.619 6
  22800762.479    -6560604.805 4    911471.795 3
  21795311.525    -7864113.264 5  -5937362.748 6
  18864707.932   -30920894.320 7 -23892797.417 9
 94  1 27  3 17 29.9940000  0  8  9 27  2 13 26 15  4  7
  22200192.486    -4962624.212 5  -3676630.199 5
  21269919.877     2571688.073 5   2048548.963 5
  19668978.104   -13153138.935 7 -10187584.994 9
  19854516.143   -20715424.407 7 -15918497.062 6
  21025113.963   -18357626.783 6 -14213174.904 6
  22807711.807    -6524085.411 4    939928.467 4
  21772175.705    -7985690.756 5  -6032098.419 5
  18865047.010   -30919095.172 7 -23891395.476 9
 94  1 27  3 17 59.9940000  0  8  9 27  2 13 26 15  4  7
  22177502.783    -5081866.896 5  -3769546.527 5
  21284853.674     2650164.957 5   2109699.751 5
  19669616.908   -13149774.858 7 -10184963.634 9
  19835861.713   -20813449.270 7 -15994880.044 6
  21027394.697   -18345661.883 6 -14203851.605 6
  22814757.010    -6487083.543 4    968761.103 4
  21749064.713    -8107148.018 5  -6126740.422 5
  18865465.439   -30916900.347 7 -23889685.211 9
 94  1 27  3 18 29.9940000  0  8  9 27  2 13 26 15  4  7
  22154826.869    -5201031.529 5  -3862402.045 5
  21299838.018     2728917.983 5   2171065.715 5
  19670285.627   -13146235.183 7 -10182205.436 9
  19817301.440   -20910985.959 7 -16070882.641 6
  21029757.041   -18333230.818 6 -14194165.059 6
  22821890.229    -6449602.765 5    997966.906 2
  21725972.338    -8228491.292 5  -6221293.599 5
  18865963.111   -30914307.380 7 -23887664.710 9
 94  1 27  3 18 59.9940000  0  8  9 27  2 13 26 15  4  7
  22132164.174    -5320107.554 5  -3955188.499 4
  21314879.900     2807943.514 5   2232644.050 5
  19671001.361   -13142509.889 7 -10179302.586 9
  19798833.760   -21008033.240 7 -16146503.867 6
  21032212.057   -18320331.000 6 -14184113.250 6
  22829108.877    -6411645.272 5   1027544.195 4
  21702902.096    -8349734.443 5  -6315768.766 5
  18866530.650   -30911293.619 7 -23885316.309 9
 94  1 27  3 19 29.9940000  0  8  9 27  2 13 26 15  4  7
  22109520.940    -5439081.420 5  -4047895.390 4
  21329970.033     2887251.797 5   2294442.677 5
  19671742.838   -13138607.870 7 -10176262.054 9
  19780459.025   -21104592.933 7 -16221745.177 7
  21034757.877   -18306964.214 6 -14173697.575 6
  22836423.057    -6373216.430 5   1057488.745 3
  21679847.658    -8470892.101 5  -6410177.329 6
  18867184.268   -30907872.555 7 -23882650.551 9
 94  1 27  3 19 59.9940000  0  8  9 27  2 13 26 15  4  7
  22086905.119    -5557934.364 5  -4140508.027 5
  21345119.065     2966857.630 5   2356473.163 5
  19672517.408   -13134516.772 7
  19762179.322   -21200656.437 7 -16296599.829 7
  21037388.072   -18293141.409 6 -14162926.575 6
  22843827.260    -6334311.454 5   1087804.343 4
  21656805.268    -8591948.199 5  -6504506.748 6
  18867916.486   -30904033.496 7
 94  1 27  3 20 29.9940000  0  8  9 27  2 13 26 15  4  7
  22064316.479    -5676650.211 5  -4233013.845 5
  21360320.072     3046739.737 5   2418718.929 5
  19673332.440   -13130236.531 7
  19743994.627   -21296224.108 7 -16371068.127 6
  21040101.096   -18278874.205 6 -14151809.275 6
  22851318.080    -6294934.541 5   1118487.665 3
  21633789.260    -8712891.592 5  -6598748.302 5
  18868728.713   -30899770.382 7
 94  1 27  3 20 59.9940000  0  8  9 27  2 13 26 15  4  7
  22041754.213    -5795221.692 5  -4325407.165 5
  21375571.658     3126887.432 5   2481171.644 5
  19674184.846   -13125771.127 7 -10166259.377 9
  19725902.408   -21391298.512 7 -16445152.059 7
  21042898.002   -18264173.379 6 -14140354.083 6
  22858903.338    -6255091.734 5   1149534.023 3
  21610800.174    -8833720.672 5  -6692900.830 6
  18869617.236   -30895091.913 7 -23872691.567 9
 94  1 27  3 21 29.9940000  0  8  9 27  2 13 26 15  4  7
  22019217.900    -5913645.589 5  -4417685.482 5
  21390874.072     3207297.663 5   2543828.944 5
  19675070.815   -13121118.189 7 -10162633.694 9
  19707904.783   -21485871.161 7 -16518845.008 6
  21045783.346   -18249029.887 6 -14128553.966 6
  22866571.393    -6214778.169 4   1180947.221 4
  21587830.268    -8954419.924 5  -6786952.170 5
  18870585.018   -30889995.747 7 -23868720.521 9
 94  1 27  3 21 59.9940000  0  8  9 27  2 13 26 15  4  7
  21996711.838    -6031931.454 5  -4509856.247 5
  21406217.307     3287944.982 5   2606670.984 5
  19675984.611   -13116292.179 7 -10158873.158 9
  19690004.205   -21579945.141 7 -16592149.384 7
  21048750.291   -18233443.968 6 -14116409.102 6
  22874328.416    -6174000.462 4   1212722.063 3
  21564890.924    -9074987.916 5  -6880901.229 6
  18871638.479   -30884481.813 7 -23864423.934 9
 94  1 27  3 22 29.9940000  0  7  9 27  2 13 26  4  7
  21974224.065    -6150081.310 5  -4601921.031 5
  21421609.752     3368822.284 5   2669692.238 5
  19676937.721   -13111303.307 7 -10154985.722 9
  19672197.166   -21673511.332 7 -16665058.079 6
  21051799.252   -18217405.492 6 -14103911.600 6
  21541976.486    -9195417.900 5  -6974742.738 6
  18872761.752   -30878562.279 7 -23859811.301 9
 94  1 27  3 22 59.9940000  0  7  9 27  2 13 26  4  7
  21951767.416    -6268094.914 5  -4693879.634 5
  21437043.096     3449929.639 5   2732892.760 5
  19677918.744   -13106158.615 7 -10150976.859 9
  19654488.916   -21766568.868 7 -16737570.426 7
  21054935.385   -18200927.493 6 -14091071.621 6
  21519082.932    -9315713.358 5  -7068479.424 5
  18873963.596   -30872240.730 7 -23854885.413 9
 94  1 27  3 23 29.9940000  0  7  9 27  2 13 26  4  7
  21929338.682    -6385968.028 5  -4785728.768 5
  21452522.041     3531266.627 5   2796272.205 5
  19678925.486   -13100854.772 7 -10146843.988 8
  19636879.791   -21859112.146 7 -16809682.057 6
  21058151.549   -18184015.367 6 -14077893.356 6
  21496217.986    -9435864.521 5  -7162103.673 5
  18875245.369   -30865516.498 7 -23849645.745 9
 94  1 27  3 23 59.9940000  0  7  9 27  2 13 26  4  7
  21906935.479    -6503711.749 5  -4877477.073 5
  21468042.307     3612825.677 5   2859824.691 5
  19679966.650   -13095383.899 7 -10142580.969 9
  19619366.221   -21951143.932 7 -16881395.112 7
  21061451.697   -18166689.652 6 -14064392.812 6
  21473382.877    -9555862.702 5  -7255608.716 5
  18876596.690   -30858404.356 7 -23844103.809 9
 94  1 27  3 24 29.9940000  0  7  9 27  2 13 26  4  7
  21884550.166    -6621331.759 5  -4969128.995 5
  21483603.768     3694610.842 5   2923553.377 5
  19681043.760   -13089729.453 7 -10138174.898 9
  19601948.760   -22042668.266 7 -16952712.754 7
  21064823.463   -18148964.864 6 -14050581.296 6
  21450575.275    -9675707.522 5  -7348994.262 6
  18878020.533   -30850912.355 7 -23838265.873 9
 94  1 27  3 24 59.9940000  0  7  9 27  2 13 26  4  7
  21862194.713    -6738809.344 5  -5060669.942 5
  21499213.604     3776643.956 5   2987475.270 5
  19682158.322   -13083857.768 7 -10133599.551 8
  19584631.291   -22133677.557 7 -17023629.058 7
  21068274.213   -18130824.943 6 -14036446.297 6
  21427796.440    -9795404.049 5  -7442264.239 5
  18879528.486   -30843018.977 7 -23832115.181 9
 94  1 27  3 25 29.9940000  0  7  9 27  2 13 26  4  7
  21839866.205    -6856162.275 5  -5152113.746 5
  21514875.994     3858924.780 5   3051590.180 5
  19683320.424   -13077757.770 7 -10128846.298 9
  19567408.588   -22224180.028 7 -17094150.447 6
  21071807.322   -18112265.118 6 -14021984.113 6
  21405048.432    -9914960.995 5  -7535425.462 5
  18881102.768   -30834735.054 7 -23825660.170 9
 94  1 27  3 25 59.9940000  0  7  9 27  2 13 26  4  7
  21817558.924    -6973381.942 5  -5243453.700 5
  21530577.791     3941461.670 5   3115904.640 5
  19684523.018   -13071422.364 7 -10123909.611 8
  19550284.838   -22314172.595 7 -17164274.509 6
  21075424.119   -18093277.897 6 -14007188.879 6
  21382326.096   -10034380.066 5  -7628479.248 5
  18882752.275   -30826062.888 7 -23818902.628 9
 94  1 27  3 26 29.9940000  0  8  9 27  2 13 26 12  4  7
  21795278.705    -7090447.913 5  -5334673.911 5
  21546330.072     4024257.255 5   3180420.664 5
  19685777.424   -13064854.896 7 -10118792.099 8
  19533256.080   -22403656.194 7 -17234001.968 6
  21079113.221   -18073859.952 6 -13992058.035 6
  22845442.471     -113520.180 4
  21359621.854   -10153671.232 5  -7721433.372 6
  18884476.955   -30816993.868 7 -23811835.840 9
 94  1 27  3 26 59.9940000  0  8  9 27  2 13 26 12  4  7
  21773034.736    -7207341.706 5  -5425759.951 5
  21562140.580     4107310.714 5   3245137.633 5
  19687067.166   -13058061.189 7 -10113498.288 8
  19516326.150   -22492623.191 7 -17303326.884 7
  21082892.557   -18054003.051 6 -13976585.147 6
  22823833.494     -227064.568 4        -0.32712
  21336951.361   -10272818.412 5  -7814275.296 5
  18886282.963   -30807521.515 7 -23804454.783 9
 94  1 27  3 27 29.9940000  0  8  9 27  2 13 26 12  4  7
  21750824.260    -7324065.136 5  -5516713.244 5
  21577987.002     4190593.193 5   3310033.060 5
  19688399.596   -13051063.293 7 -10108045.379 8
  19499494.479   -22581073.021 7 -17372248.805 6
  21086754.619   -18033718.534 6 -13960779.047 6
  22802223.541     -340633.405 5    -88495.451 2
  21314309.900   -10391792.622 5  -7906982.435 6
  18888160.510   -30797654.759 7 -23796766.392 9
 94  1 27  3 27 59.9940000  0  8  9 27  2 13 26 12  4  7
  21728646.236    -7440602.276 5  -5607521.377 5
  21593878.338     4274092.680 5   3375097.560 5
  19689764.705   -13043878.714 7 -10102446.997 8
  19482763.291   -22668997.266 7 -17440761.188 7
  21090697.330   -18013009.935 6 -13944642.488 6
  22780604.533     -454218.421 4   -177003.210 1
  21291702.752   -10510575.785 5  -7999540.708 5
  18890115.588   -30787385.329 7 -23788764.228 9
 94  1 27  3 28 29.9940000  0  8  9 27  2 13 26 12  4  7
  21706505.260    -7556956.704 5  -5698187.132 5
  21609806.369     4357798.232 5   3440322.639 5
  19691165.049   -13036532.070 7 -10096722.331 8
  19466131.572   -22756398.387 7 -17508865.941 7
  21094715.041   -17991878.173 6 -13928176.192 6
  22758988.885     -567821.987 5   -265525.429 1
  21269139.377   -10629164.574 5  -8091947.515 6
  18892143.354   -30776709.876 7 -23780445.684 9
 94  1 27  3 28 59.9940000  0  8  9 27  2 13 26 12  4  7
  21684391.971    -7673149.870 5  -5788727.223 5
  21625772.838     4441695.547 5   3505697.164 5
  19692592.369   -13029044.415 7 -10090887.791 8
  19449598.166   -22843279.220 7 -17576565.274 7
  21098815.393   -17970335.843 6 -13911389.951 6
  22737371.385     -681446.842 5   -354064.200 1
  21246610.174   -10747558.059 5  -8184202.148 6
  18894247.994   -30765650.031 7 -23771827.609 9
 94  1 27  3 29 29.9940000  0  8  9 27  2 13 26 12  4  7
  21662317.572    -7789170.035 5  -5879132.519 6
  21641774.479     4525798.414 5   3571231.861 5
  19694043.572   -13021401.750 7 -10084932.459 8
  19433168.455   -22929623.193 7 -17643846.268 7
  21102989.666   -17948376.861 6 -13894279.054 6
  22715743.541     -795076.437 5   -442606.707 2
  21224115.408   -10865756.114 5  -8276304.486 6
  18896430.932   -30754196.225 7 -23762902.558 9
 94  1 27  3 29 59.9940000  0  8  9 27  2 13 26 12  4  7
  21640269.408    -7905028.788 5  -5969412.044 5
  21657818.627     4610115.057 5   3636933.115 5
  19695528.104   -13013605.806 7 -10078857.687 8
  19416837.025   -23015438.898 7 -17710715.621 7
  21107251.197   -17926012.903 6 -13876852.605 6
  22694122.400     -908719.203 5   -531159.461 3
  21201661.299   -10983786.096 6  -8368275.875 6
  18898677.775   -30742368.760 7 -23753686.336 9
 94  1 27  3 30 29.9940000  0  8  9 27  2 13 26 12  4  7
  21618251.010    -8020743.097 5  -6059579.003 5
  21673905.697     4694645.714 5   3702801.143 5
  19697044.424   -13005643.371 7 -10072653.184 8
  19400606.525   -23100729.890 7 -17777176.111 7
  21111582.291   -17903242.073 6 -13859109.119 6
  22672490.400    -1022378.479 5   -619725.080 1
  21179228.541   -11101649.073 6  -8460117.122 6
  18900995.346   -30730189.095 7 -23744195.681 9
 94  1 27  3 30 59.9940000  0  8  9 27  2 13 26 12  4  7
  21596261.197    -8136313.395 5  -6149633.755 5
  21690029.322     4779389.858 5   3768835.514 5
  19698595.291   -12997485.517 7 -10066296.416 8
  19384477.549   -23185491.801 7 -17843224.329 7
  21115990.596   -17880068.087 6 -13841051.485 6
  22650860.096    -1136049.833 5   -708300.107 2
  21156830.541   -11219344.357 5  -8551827.682 6
  18903380.143   -30717667.276 7 -23734438.408 9
 94  1 27  3 31 29.9940000  0  8  9 27  2 13 26 12  4  7
  21574296.377    -8251737.752 5  -6239574.795 5
  21706198.619     4864347.820 5   3835036.493 5
  19700186.799   -12989122.888 7 -10059780.074 8
  19368446.354   -23269730.442 7 -17908864.798 7
  21120478.479   -17856492.346 6 -13822680.779 6
  22629222.697    -1249738.982 4   -796889.013 1
  21134468.557   -11336865.959 6  -8643402.919 6
  18905827.713   -30704806.320 7 -23724416.873 9
 94  1 27  3 31 59.9940000  0  8  9 27  2 13 26 12  4  7
  21552359.596    -8367009.930 5  -6329397.245 5
  21722408.721     4949532.864 5   3901414.437 5
  19701818.705   -12980545.616 7 -10053096.477 8
  19352519.197   -23353436.409 7 -17974090.211 7
  21125040.885   -17832508.325 5 -13803991.944 6
  22607588.002    -1363436.004 4   -885484.027 2
  21112143.916   -11454185.575 6  -8734820.758 6
  18908340.721   -30691603.739 7 -23714129.134 9
 94  1 27  3 32 29.9940000  0  8  9 27  2 13 26 12  4  7
  21530451.393    -8482122.926 5  -6419095.656 5
  21738660.588     5034945.491 5   3967969.723 4
  19703494.627   -12971744.654 7 -10046238.582 8
  19336691.166   -23436609.720 7 -18038900.556 7
  21129680.096   -17808129.155 6 -13784995.207 6
  22585950.486    -1477140.650 5   -974085.005 2
  21089856.314   -11571303.690 6  -8826081.585 6
  18910919.697   -30678048.502 7 -23703566.601 9
 94  1 27  3 32 59.9940000  0  8  9 27  2 13 26 12  4  7
  21508581.166    -8597053.537 5  -6508651.957 5
  21754960.783     5120602.003 5   4034715.051 5
  19705213.611   -12962717.548 7 -10039204.469 8
  19320966.510   -23519242.104 7 -18103289.395 7
  21134393.010   -17783365.997 5 -13765699.256 6
  22564317.002    -1590844.568 5  -1062685.421 2
  21067607.588   -11688223.292 6  -8917187.725 6
  18913565.627   -30664128.391 7 -23692719.751 9
 94  1 27  3 33 29.9940000  0  8  9 27  2 13 26 12  4  7
  21486750.135    -8711798.676 5  -6598063.734 5
  21771305.025     5206497.177 5   4101646.333 4
  19706968.221   -12953482.410 7 -10032008.265 8
  19305344.049   -23601342.016 7 -18167263.339 7
  21139178.518   -17758235.762 5 -13746117.256 6
  22542674.346    -1704555.670 4  -1151291.422 2
  21045396.064   -11804938.966 6  -9008134.954 6
  18916283.330   -30649846.398 7 -23681590.913 9
 94  1 27  3 33 59.9940000  0  8  9 27  2 13 26 12  4  7
  21464948.080    -8826350.128 5  -6687324.582 5
  21787696.236     5292622.392 5   4168756.881 5
  19708764.104   -12944038.748 7 -10024649.557 8
  19289819.971   -23682910.639 7 -18230823.286 7
  21144028.393   -17732743.394 6 -13726253.080 6
  22521034.408    -1818274.999 5  -1239903.840 2
  21023225.635   -11921459.255 6  -9098929.938 6
  18919075.190   -30635198.340 7 -23670176.833 9
 94  1 27  3 34 29.9940000  0  8  9 27  2 13 26 12  4  7
  21443191.525    -8940693.794 5  -6776423.536 5
  21804126.041     5378973.032 5   4236043.069 5
  19710603.494   -12934385.317 7 -10017127.396 8
  19274402.643   -23763941.242 7 -18293963.995 7
  21148950.822   -17706880.005 6 -13706099.816 6
  22499391.361    -1931995.150 5  -1328516.897 3
  21001090.049   -12037783.721 6  -9189572.324 6
  18921930.963   -30620165.673 7 -23658463.056 9
 94  1 27  3 34 59.9940000  0  8  9 27  2 13 26 12  4  7
  21421468.650    -9054821.727 5  -6865354.375 5
  21820599.815     5465524.639 5   4303485.858 5
  19712474.447   -12924541.331 7 -10009456.755 8
  19259084.940   -23844434.061 7 -18356685.642 7
  21153942.658   -17680636.067 6 -13685650.008 5
  22477758.643    -2045716.062 5  -1417130.576 2
  20978995.033   -12153891.559 6  -9280045.925 6
  18924867.932   -30604753.945 7 -23646453.903 9
 94  1 27  3 35 29.9940000  0  8  9 27  2 13 26 12  4  7
  21399796.221    -9168729.140 5
  21837111.986     5552260.759 5   4371072.409 5
  19714387.791   -12914494.771 7 -10001628.262 8
  19243871.283   -23924379.641 7 -18418980.875 7
  21159009.369   -17653996.304 6 -13664891.774 6
  22456114.916    -2159427.798 5
  20956942.541   -12269770.190 6  -9370340.932 6
  18927873.127   -30588958.006 7 -23634145.373 9
 94  1 27  3 35 59.9940000  0  8  9 27  2 13 26 12  4  7
  21378159.377    -9282432.210 5
  21853637.166     5639159.330 5   4438785.542 5
  19716333.877   -12904269.606 7  -9993660.598 8
  19228759.986   -24003782.589 7 -18480853.276 7
  21164158.135   -17626960.959 6 -13643825.295 5
  22434479.025    -2273134.357 5
  20934934.229   -12385438.959 6  -9460472.405 6
  18930947.799   -30572793.430 7 -23621549.587 9
 94  1 27  3 36 29.9940000  0  8  9 27  2 13 26 12  4  7
  21356555.729    -9395942.980 5  -7131163.098 6
  21870204.807     5726199.956 5   4506609.363 5
  19718311.932   -12893885.571 7  -9985569.135 8
  19213751.666   -24082649.262 7 -18542307.806 7
  21169371.830   -17599543.190 5 -13622460.826 5
  22412837.236    -2386841.594 5  -1682942.571 3
  20912961.018   -12500905.708 6  -9550446.473 6
  18934089.010   -30556284.259 7 -23608685.288 9
 94  1 27  3 36 59.9940000  0  8  9 27  2 13 26 12  4  7
  21334995.752    -9509261.768 6  -7219463.439 6
  21886796.252     5813382.841 5   4574544.040 5
  19720317.588   -12883331.183 7  -9977344.934 8
  19198848.072   -24160972.731 7 -18603339.055 7
  21174661.768   -17571744.127 6 -13600799.222 5
  22391203.565    -2500541.868 5  -1771540.166 3
  20891027.002   -12616161.200 6  -9640255.926 6
  18937293.236   -30539451.119 7 -23595568.544 9
 94  1 27  3 37 29.9940000  0  8  9 27  2 13 26 12  4  7
  21313468.432    -9622394.482 6  -7307618.790 5
  21903413.127     5900726.978 4   4642604.386 4
  19722358.635   -12872595.754 7  -9968979.660 8
  19184047.432   -24238747.484 7 -18663942.738 7
  21180025.760   -17543565.536 5 -13578841.901 5
  22369569.604    -2614229.136 5  -1860127.625 4
  20869134.205   -12731205.450 6  -9729900.774 6
  18940560.479   -30522286.301 7 -23582193.352 9
 94  1 27  3 37 59.9940000  0  8  9 27  2 13 26 12  4  7
  21291975.893    -9735335.694 6  -7395624.922 6
  21920069.486     5988249.386 4   4710803.626 5
  19724437.486   -12861687.711 7  -9960479.882 8
  19169351.479   -24315977.936 7 -18724122.287 7
  21185457.197   -17515020.024 5 -13556598.652 6
  22347934.744    -2727907.282 5  -1948707.960 4
  20847282.783   -12846032.285 6  -9819376.201 6
  18943890.018   -30504780.177 7 -23568552.210 9
 94  1 27  3 38 29.9940000  0  8  9 27  2 13 26 12  4  7
  21270519.604    -9848074.291 6  -7483473.171 6
  21936760.041     6075954.845 4   4779145.512 4
  19726549.768   -12850584.448 7  -9951827.985 8
  19154759.666   -24392665.427 7 -18783878.760 7
  21190960.330   -17486124.538 5 -13534082.715 5
  22326308.963    -2841576.934 5  -2037281.676 4
  20825478.182   -12960628.196 6  -9908671.684 6
  18947284.010   -30486931.113 7 -23554643.830 9
 94  1 27  3 38 59.9940000  0  8  9 27  2 13 26 12  4  7
  21249105.424    -9960599.696 6  -7571155.288 6
  21953491.518     6163869.367 4   4847650.292 4
  19728702.611   -12839269.714 7  -9943011.311 8
  19140270.174   -24468804.669 7 -18843208.014 7
  21196522.721   -17456872.135 6 -13511288.653 6
  22304680.275    -2955231.780 5  -2125843.869 3
  20803715.135   -13074986.971 6  -9997782.393 6
  18950752.111   -30468722.287 7 -23540455.136 9
 94  1 27  3 39 29.9940000  0  8  9 27  2 13 26 12  4  7
  21227735.533   -10072903.383 6  -7658664.634 6
  21970260.221     6252002.406 4   4916325.364 4
  19730898.260   -12827735.357 7  -9934023.495 8
  19125886.713   -24544392.826 7 -18902107.847 7
  21202160.213   -17427261.908 5 -13488215.764 5
  22283055.572    -3068868.775 5  -2214392.145 4
  20781996.861   -13189104.527 6 -10086705.147 6
  18954288.807   -30450133.116 7 -23525970.060 9
 94  1 27  3 39 59.9940000  0  8  9 27  2 13 26 12  4  7
  21206410.377   -10184985.477 6  -7746001.334 6
  21987065.854     6340327.312 4   4985149.949 4
  19733134.635   -12815990.098 7  -9924871.350 8
  19111604.025   -24619437.169 7 -18960583.939 7
  21207858.908   -17397305.065 5 -13464872.787 5
  22261433.564    -3182494.068 5
  20760325.596   -13302991.164 6
  18957893.174   -30431191.305 7 -23511210.202 9
 94  1 27  3 40 29.9940000  0  8  9 27  2 13 26 12  4  7
  21185122.604   -10296851.459 6  -7833169.609 6
  22003907.424     6428825.499 4   5054109.555 4
  19735407.158   -12804033.659 7  -9915554.642 8
  19097431.229   -24693935.963 7 -19018634.918 7
  21213627.385   -17366994.150 5 -13441253.917 5
  22239813.588    -3296105.075 5
  20738699.150   -13416644.717 6
  18961562.197   -30411920.428 7 -23496193.930 9
 94  1 27  3 40 59.9940000  0  8  9 27  2 13 26 12  4  7
  21163876.744   -10408499.968 6  -7920168.424 6
  22020784.721     6517503.750 4   5123209.464 3
  19737719.854   -12791871.502 7  -9906077.642 8
  19083357.721   -24767882.866 7 -19076255.867 7
  21219462.471   -17336318.693 6 -13417350.980 5
  22218204.158    -3409694.486 5  -2479970.535 4
  20717117.088   -13530057.837 6 -10352382.964 6
  18965292.713   -30392315.843 7 -23480917.627 9
 94  1 27  3 41 29.9940000  0  8  9 27  2 13 26 12  4  7
  21142670.760   -10519927.398 6  -8006994.972 6
  22037691.166     6606342.385 4   5192434.353 5
  19740073.947   -12779506.139 7  -9896442.295 8
  19069392.025   -24841274.441 7 -19133444.081 7
  21225370.635   -17305286.357 5 -13393169.956 5
  22196589.119    -3523258.506 5  -2568461.936 4
  20695585.127   -13643215.920 6 -10440558.062 6
  18969086.065   -30372382.204 7 -23465384.912 9
 94  1 27  3 42 29.9930000  0  8  9 27  2 13 26 12  4  7
  21100393.364   -10742088.757 6  -8180107.697 6
  22071593.060     6784501.016 4   5331259.226 4
  19744891.763   -12754185.944 7  -9876712.274 8
  19041776.692   -24986395.381 7 -19246525.309 7
  21237381.372   -17242160.904 5 -13343981.317 5
  22153382.067    -3750307.908 5  -2745383.499 5
  20652666.044   -13868752.451 6 -10616300.739 6
  18976849.817   -30331578.979 7 -23433590.192 9
 94  1 27  3 42 59.9930000  0  8  9 27  2 13 26 12  4  7
  21079323.552   -10852818.880 6  -8266390.892 6
  22088595.138     6873841.333 4   5400875.025 4
  19747357.599   -12741222.088 7  -9866610.571 8
  19028126.122   -25058131.383 7 -19302423.452 7
  21243491.013   -17210074.037 5 -13318978.573 5
  22131785.857    -3863799.273 5  -2833818.297 4
  20631277.724   -13981135.421 6 -10703871.855 6
  18980825.724   -30310692.221 7 -23417314.787 9
 94  1 27  3 43 29.9930000  0  8  9 27  2 13 26 12  4  7
  21058299.177   -10963304.569 6  -8352483.625 6
  22105626.685     6963355.069 4   5470625.961 5
  19749866.692   -12728049.765 7  -9856346.415 8
  19014580.411   -25129313.287 7 -19357889.846 7
  21249661.153   -17177640.811 5 -13293705.934 5
  22110197.731    -3977262.240 5  -2922230.998 4
  20609941.794   -14093263.161 6 -10791244.094 6
  18984859.333   -30289482.110 7 -23400787.428 9
 94  1 27  3 43 59.9930000  0  8  9 27  2 13 26 12  4  7
  21037322.224   -11073545.210 6  -8438385.404 6
  22122695.435     7053045.426 4   5540514.518 4
  19752415.372   -12714667.680 7  -9845918.817 8
  19001139.614   -25199942.411 7 -19412925.504 7
  21255899.411   -17144859.588 5 -13268162.130 5
  22088608.997    -4090696.904 5  -3010621.639 4
  20588651.755   -14205139.801 6 -10878420.680 6
  18988955.747   -30267948.975 7 -23384008.353 9
 94  1 27  3 44 29.9930000  0  8  9 27  2 13 26 12  4  7
  21016389.747   -11183544.000 6  -8524098.721 6
  22139797.271     7142908.298 4   5610537.501 4
  19754998.052   -12701076.611 7  -9835328.374 8
  18987805.341   -25270013.611 7 -19467526.420 7
  21262205.216   -17111733.371 5 -13242349.501 5
  22067033.294    -4204097.172 5  -3098985.437 5
  20567415.341   -14316756.722 6 -10965394.869 6
  18993122.731   -30246075.436 7 -23366964.033 9
 94  1 27  3 44 59.9930000  0  8  9 27  2 13 26 12  4  7
  20995503.185   -11293305.599 6  -8609627.238 6
  22156926.208     7232924.412 4   5680679.903 4
  19757626.169   -12687282.810 7  -9824579.960 8
  18974576.536   -25339528.452 7 -19521693.799 7
  21268566.474   -17078281.016 5 -13216282.748 5
  22045454.935    -4317463.548 5  -3187322.863 5
  20546226.028   -14428105.726 6 -11052160.307 6
  18997343.763   -30223872.248 7 -23349662.844 9
 94  1 27  3 45 29.9930000  0  8  9 27  2 13 26 12  4  7
  20974660.169   -11402831.880 6  -8694972.372 6
  22174080.044     7323086.567 4   5750936.102 5
  19760286.528   -12673285.118 7  -9813672.672 8
  18961455.200   -25408483.214 7 -19575424.759 7
  21274992.036   -17044511.957 5 -13189969.190 5
  22023889.841    -4430791.047 5  -3275630.003 4
  20525087.731   -14539181.309 6 -11138712.695 6
  19001634.521   -30201342.748 7 -23332107.385 9
 94  1 27  3 45 59.9930000  0  8  9 27  2 13 26 12  4  7
  20953861.911   -11512129.976 6  -8780139.713 6
  22191261.958     7413379.924 3   5821294.533 5
  19762993.481   -12659082.069 7  -9802605.356 8
  18948438.388   -25476882.359 7 -19628722.776 7
  21281475.669   -17010433.524 5 -13163414.565 5
  22002324.974    -4544082.866 5  -3363909.315 5
  20504002.599   -14649978.879 6 -11225048.443 6
  19005979.497   -30178488.185 7 -23314298.629 9
 94  1 27  3 46 29.9930000  0  8  9 27  2 13 26 12  4  7
  20933106.669   -11621191.148 6  -8865122.427 6
  22208468.731     7503806.186 3   5891756.513 4
  19765733.872   -12644675.152 7  -9791379.189 8
  18935530.372   -25544721.257 7 -19681584.234 7
  21288021.856   -16976049.925 5 -13136622.173 5
  21980781.692    -4657333.099 5  -3452156.242 5
  20482971.224   -14760493.511 6 -11311163.719 6
  19010391.442   -30155316.463 7 -23296242.738 9
 94  1 27  3 46 59.9930000  0  8  9 27  2 13 26 12  4  7
  20912400.021   -11730012.159 6  -8949918.012 6
  22225702.755     7594369.061 3   5962324.943 4
  19768513.091   -12630054.592 7  -9779986.552 8
  18922726.669   -25612003.368 7 -19734011.836 7
  21294622.067   -16941367.921 5 -13109597.255 5
  21959234.825    -4770544.245 5  -3540372.701 5
  20461993.903   -14870739.049 6 -11397069.298 6
  19014859.091   -30131845.331 7 -23277953.540 9
 94  1 27  3 47 29.9930000  0  8  9 27  2 13 26 12  4  7
  20891737.794   -11838587.990 6  -9034522.530 6
  22242966.669     7685078.181 3   6033007.359 4
  19771336.435   -12615217.844 7  -9768425.438 8
  18910030.302   -25678723.856 7 -19786001.798 6
  21301277.153   -16906375.042 5 -13082330.076 5
  21937707.091    -4883709.807 5  -3628553.623 5
  20441065.474   -14980719.520 6 -11482768.329 6
  19019381.153   -30108066.468 7 -23259424.531 9
 94  1 27  3 47 59.9930000  0  8  9 27  2 13 26 12  4  7
  20871123.427   -11946914.736 6  -9118932.961 6
  22260254.778     7775945.707 3   6103813.206 4
  19774202.474   -12600170.826 7  -9756700.490 8
  18897437.794   -25744886.179 7 -19837556.826 7
  21307995.560   -16871069.783 5 -13054819.503 5
  21916176.849    -4996831.997 5  -3716700.778 5
  20420190.599   -15090426.417 6 -11568254.190 6
  19023962.153   -30083993.983 7 -23240666.749 9
 94  1 27  3 48 29.9930000  0  8  9 27  2 13 26 12  4  7
  20850561.067   -12054983.621 6  -9203142.478 6
  22277581.841     7866976.951 3   6174746.612 2
  19777105.919   -12584913.244 7  -9744811.473 8
  18884956.075   -25810488.436 7 -19888675.451 7
  21314778.974   -16835454.722 5 -13027067.527 5
  21894656.317    -5109907.552 5  -3804811.580 5
  20399364.700   -15199855.228 6 -11653523.377 6
  19028596.310   -30059636.578 7 -23221686.951 9
 94  1 27  3 48 59.9930000  0  8  9 27  2 13 26 12  4  7
  20830042.302   -12162802.935 6  -9287157.526 6
  22294932.239     7958160.384 3   6245798.610 2
  19780053.356   -12569428.756 7  -9732745.643 8
  18872579.028   -25875527.750 7 -19939355.421 7
  21321612.396   -16799527.315 5 -12999072.159 5
  21873148.239    -5222932.170 5  -3892882.692 4
  20378596.036   -15308993.319 6 -11738566.023 6
  19033289.966   -30034973.180 7 -23202468.711 9
 94  1 27  3 49 29.9930000  0  8  9 27  2 13 26 12  4  7
  20809573.099   -12270381.993 6  -9370985.348 6
  22312311.833     8049486.757 3   6316961.991 4
  19783042.919   -12553723.660 7  -9720507.915 8
  18860310.302   -25940003.105 7 -19989595.946 7
  21328505.497   -16763282.930 5 -12970829.822 5
  21851651.239    -5335903.334 5  -3980912.144 5
  20357889.450   -15417811.961 6 -11823359.744 6
  19038043.942   -30009993.353 7 -23183003.918 9
 94  1 27  3 49 59.9930000  0  8  9 27  2 13 26 12  4  7
  20789143.489   -12377723.402 6  -9454627.999 6
  22329713.122     8140944.551 3   6388227.770 3
  19786073.794   -12537793.454 7  -9708094.761 8
  18848146.716   -26003917.667 7 -20039399.483 7
  21335467.880   -16726729.562 5 -12942346.693 5
  21830167.044    -5448822.920 5  -4068901.422 5
  20337241.388   -15526308.848 6 -11907902.747 6
  19042855.638   -29984703.230 7 -23163297.326 9
 94  1 27  3 50 29.9930000  0  8  9 27  2 13 26 12  4  7
  20768762.481   -12484823.824 6  -9538082.859 6
  22347142.583     8232515.007 3   6459581.359 1
  19789145.185   -12521640.724 7  -9695508.226 8
  18836092.403   -26067270.185 7 -20088765.054 7
  21342480.481   -16689873.465 5 -12913627.676 5
  21808686.466    -5561688.137 5  -4156848.337 5
  20316656.286   -15634494.982 6 -11992203.603 6
  19047735.083   -29959077.982 7 -23143329.599 9
 94  1 27  3 50 59.9930000  0  8  9 27  2 13 26 12  4  7
  20748433.669   -12591667.920 6  -9621337.992 6
  22364590.294     8324209.415 3   6531031.529 2
  19792259.435   -12505269.732 7  -9682751.609 8
  18824143.966   -26130053.157 7 -20137686.833 7
  21349550.333   -16652706.267 5 -12884666.244 5
  21787219.013    -5674489.545 5  -4244745.508 4
  20296129.458   -15742357.275 6 -12076252.105 6
  19052678.138   -29933105.769 7 -23123091.503 9
 94  1 27  3 51 29.9930000  0  8  9 27  2 13 26 12  4  7
  20728151.435   -12698247.163 6  -9704386.743 6
  22382062.841     8416031.756 3   6602581.377 2
  19795412.919   -12488708.986 7  -9669847.133 8
  18812304.388   -26192275.783 7 -20186171.968 7
  21356679.552   -16615237.544 5 -12855469.851 5
  21765767.146    -5787235.138 5  -4332599.192 5
  20275663.200   -15849913.571 6 -12160062.172 7
  19057676.255   -29906819.895 7 -23102608.999 9
 94  1 27  3 51 59.9930000  0  8  9 27  2 13 26 12  4  7
  20707923.856   -12804531.747 6  -9787205.890 6
  22399560.739     8507986.066 3   6674234.005 2
  19798599.700   -12471953.175 7  -9656790.668 8
  18800569.888   -26253931.434 7 -20234215.308 7
  21363874.005   -16577466.660 5 -12826038.012 5
  21744325.278    -5899916.476 5  -4420402.815 5
  20255254.536   -15957167.332 6 -12243636.510 6
  19062738.036   -29880229.327 7 -23081889.072 9
 94  1 27  3 52 29.9930000  0  8  9 27  2 13 26 12  4  7
  20687760.146   -12910504.555 6  -9869782.097 6
  22417079.974     8600064.130 3   6745983.091 2
  19801822.544   -12455022.701 7  -9643598.089 8
  18788945.458   -26315024.002 7 -20281819.890 7
  21371115.239   -16539403.681 5 -12796378.576 5
  21722894.849    -6012535.902 5  -4508158.192 5
  20234902.036   -16064109.724 6 -12326968.214 6
  19067854.919   -29853350.362 7 -23060944.421 9
 94  1 27  3 52 59.9930000  0  8  9 27  2 13 26 12  4  7
  20667654.583   -13016162.987 6  -9952113.331 6
  22434627.310     8692267.774 3   6817830.072 3
  19805079.888   -12437908.325 7  -9630262.217 8
  18777426.653   -26375549.637 7 -20328982.699 7
  21378409.966   -16501044.657 5 -12766488.448 5
  21701472.325    -6125087.990 5  -4595861.092 5
  20214615.896   -16170730.563 6 -12410049.352 6
  19073017.739   -29826208.199 7 -23039794.682 9
 94  1 27  3 53 29.9930000  0  7  9  2 13 26 12  4  7
  20647604.372   -13121514.889 6 -10034205.720 6
  19808375.536   -12420587.252 7  -9616765.281 8
  18766019.161   -26435507.509 7 -20375703.100 7
  21385768.435   -16462390.545 5 -12736368.376 5
  21680071.747    -6237569.984 5  -4683509.387 5
  20194385.458   -16277030.980 6 -12492880.818 6
  19078233.021   -29798801.182 7 -23018438.560 9
 94  1 27  3 53 59.9930000  0  8  9 24  2 13 26 12  4  7
  20627636.755   -13226454.962 6 -10115977.196 6
  22485071.356          -0.93514
  19811732.278   -12402940.605 7  -9603014.642 8
  18754736.403   -26494793.475 7 -20421899.931 7
  21393199.208   -16423348.457 5 -12705945.986 5
  21658698.114    -6349876.074 5  -4771020.623 5
  20174237.106   -16382901.019 6 -12575376.918 7
  19083521.974   -29771015.755 7 -22996787.579 9
 94  1 27  3 54 29.9930000  0  8  9 24  2 13 26 12  4  7
  20607698.411   -13331229.858 6 -10197619.966 6
  22460426.567     -129484.012 4
  19815111.005   -12385199.691 7  -9589190.560 8
  18743539.802   -26553639.828 7 -20467754.214 7
  21400652.505   -16384161.247 5 -12675410.506 5
  21637319.950    -6462236.653 5  -4858574.304 5
  20154127.286   -16488581.073 6 -12657724.980 7
  19088836.075   -29743077.261 7 -22975017.320 9
 94  1 27  3 54 59.9930000  0  8  9 24  2 13 26 12  4  7
  20587810.372   -13435742.572 6 -10279058.434 7
  22435791.888     -258951.738 4        -0.34714
  19818527.817   -12367231.623 7  -9575189.483 8
  18732445.919   -26611932.993 7 -20513177.443 7
  21408160.958   -16344720.578 5 -12644677.548 5
  21615945.513    -6574536.361 5  -4946080.550 5
  20134073.169   -16593966.877 6 -12739843.761 7
  19094207.942   -29714859.165 7 -22953029.186 9
 94  1 27  3 55 29.9930000  0  8  9 24  2 13 26 12  4  7
  20567970.599   -13539991.413 6 -10360291.294 7
  22411158.896     -388404.245 4   -100872.418 5
  19821991.138   -12349035.698 7  -9561010.840 8
  18721458.185   -26669670.742 7 -20558167.880 7
  21415716.396   -16305021.589 5 -12613743.276 5
  21594591.708    -6686771.359 5  -5033536.380 5
  20114079.099   -16699050.877 6 -12821727.365 7
  19099630.888   -29686354.733 7 -22930817.948 9
 94  1 27  3 55 59.9930000  0  8  9 24  2 13 26 12  4  7
  20548188.341   -13643958.604 6 -10441304.677 7
  22386535.036     -517827.575 5   -201721.744 3
  19825494.935   -12330623.804 7  -9546663.916 8
  18710579.489   -26726842.314 7 -20602717.143 7
  21423318.708   -16265064.443 5 -12582607.842 5
  21573249.786    -6798928.545 5  -5120931.555 5
  20094141.458   -16803811.549 6 -12903359.017 7
  19105106.474   -29657569.242 7 -22908387.690 9
 94  1 27  3 56 29.9930000  0  8  9 24  2 13 26 12  4  7
  20528456.060   -13747647.224 6 -10522101.004 7
  22361906.958     -647209.527 4   -302538.831 4
  19829037.083   -12312005.845 7  -9532156.426 8
  18699807.294   -26783449.306 7 -20646826.473 7
  21430969.614   -16224843.888 5 -12551267.172 5
  21551919.208    -6911007.752 5  -5208265.989 5
  20074270.294   -16908243.309 6 -12984734.398 7
  19110638.060   -29628510.120 7 -22885744.223 9
 94  1 27  3 56 59.9930000  0  8  9 24  2 13 26 12  4  7
  20508782.896   -13851040.761 6 -10602667.389 7
  22337290.685     -776552.002 4   -403325.156 4
  19832620.567   -12293174.658 7  -9517482.777 7
  18689145.302   -26839485.072 7 -20690490.683 7
  21438677.825   -16184342.724 5 -12519707.851 5
  21530607.700    -7023000.332 5  -5295532.934 5
  20054461.825   -17012316.195 6 -13065830.123 7
  19116221.231   -29599176.220 7 -22862886.636 9
 94  1 27  3 57 29.9930000  0  8  9 24  2 13 26 12  4  7
  20489163.692   -13954119.681 6 -10682988.620 7
  22312689.661     -905859.173 5   -504083.955 3
  19836242.466   -12274136.408 7  -9502647.785 7
  18678590.833   -26894947.469 7 -20733708.121 7
  21446441.388   -16143557.118 5 -12487926.870 5
  21509312.927    -7134902.284 5  -5382729.241 5
  20034733.872   -17116006.467 6 -13146627.715 7
  19121853.083   -29569587.963 7 -22839830.851 9
 94  1 27  3 57 59.9930000  0  8  9 24  2 13 26 12  4  7
  20469610.278   -14056882.016 6 -10763063.161 6
  22288088.731    -1035137.853 5   -604820.563 4
  19839903.099   -12254897.553 7  -9487656.475 7
  18668142.169   -26949845.264 7 -20776485.611 7
  21454247.927   -16102505.575 5 -12455938.675 5
  21488037.005    -7246720.255 5  -5469860.107 5
  20015070.419   -17219328.774 6 -13227138.570 7
  19127531.075   -29539746.932 7 -22816578.102 9
 94  1 27  3 58 29.9930000  0  8  9 24  2 13 26 12  4  7
  20450117.474   -14159325.123 6 -10842888.954 7
  22263492.880    -1164394.088 5   -705539.652 4
  19843609.286   -12235435.625 7  -9472491.340 7
  18657805.638   -27004174.362 7 -20818819.956 7
  21462108.028   -16061186.642 5 -12423742.126 5
  21466773.442    -7358448.136 5  -5556920.794 5
  19995478.841   -17322283.748 6 -13307363.200 7
  19133260.114   -29509635.083 7 -22793114.321 9
 94  1 27  3 58 59.9930000  0  8  9 24  2 13 26 12  4  7
  20430681.552   -14261452.186 6 -10922468.474 6
  22238896.341    -1293637.627 5   -806248.877 5
  19847354.552   -12215745.195 6  -9457148.157 8
  18647573.716   -27057937.865 7 -20860713.582 7
  21470028.114   -16019610.415 5 -12391345.080 5
  21445530.692    -7470086.944 6  -5643912.067 5
  19975958.122   -17424871.158 6 -13387301.419 7
  19139039.903   -29479258.901 7 -22769444.566 9
 94  1 27  3 59 29.9930000  0  8  9 24  2 13 26 12  4  7
  20411311.271   -14363254.597 6 -11001795.032 6
  22214301.810    -1422847.471 5   -906931.861 3
  19851148.630   -12195811.916 6  -9441615.734 7
  18637451.849   -27111125.768 7 -20902158.696 7
  21477990.138   -15977776.178 5 -12358746.984 5
  21424303.247    -7581624.403 6  -5730824.355 5
  19956506.021   -17527095.692 6 -13466956.868 7
  19144872.591   -29448607.129 7 -22745560.067 9
 94  1 27  3 59 59.9930000  0  8  9 24  2 13 26 12  4  7
  20391997.036   -14464758.787 6 -11080889.203 7
  22189723.810    -1552039.364 5  -1007600.811 5
  19854985.794   -12175653.503 6  -9425907.893 7
  18627434.896   -27163759.703 7 -20943172.140 7
  21485988.771   -15935709.314 5 -12325967.622 5
  21403097.333    -7693080.011 6  -5817672.867 5
  19937114.544   -17628992.270 6 -13546356.782 7
  19150759.810   -29417673.528 7 -22721455.952 9
 94  1 27  4  0 29.9930000  0  8  9 24  2 13 26 12  4  7
  20372738.200   -14565953.748 6 -11159742.409 6
  22165149.700    -1681195.594 5  -1108242.022 4
  19858866.513   -12155259.449 6  -9410016.431 7
  18617527.864   -27215831.165 7 -20983747.294 7
  21494040.583   -15893404.992 5 -12293003.236 5
  21381904.294    -7804443.002 5  -5904449.215 5
  19917791.114   -17730537.268 6 -13625482.730 7
  19156700.880   -29386450.914 7 -22697126.651 9
 94  1 27  4  0 59.9930000  0  8  9 24  2 13 26 12  4  7
  20353543.903   -14666822.260 6 -11238341.240 7
  22140580.505    -1810283.288 5  -1208829.755 4
  19862792.216   -12134628.182 6  -9393940.130 7
  18607729.716   -27267328.712 7 -21023875.241 6
  21502143.755   -15850842.594 5 -12259837.748 5
  21360725.067    -7915699.800 6  -5991142.819 5
  19898539.669   -17831712.979 6 -13704320.923 7
  19162697.513   -29354937.719 7 -22672570.908 9
 94  1 27  4  1 29.9930000  0  8  9 24  2 13 26 12  4  7
  20334405.802   -14767383.779 6 -11316700.858 6
  22116033.427    -1939312.780 5  -1309372.201 4
  19866758.200   -12113773.531 6  -9377689.764 7
  18598034.575   -27318266.549 7 -21063567.044 7
  21510288.802   -15808043.533 5 -12226487.831 5
  21339578.857    -8026862.357 6  -6077762.985 5
  19879354.810   -17932536.089 6 -13782884.367 7
  19168747.497   -29323149.367 7 -22647800.760 9
 94  1 27  4  1 59.9930000  0  8  9 24  2 13 26 12  4  7
  20315329.466   -14867630.421 6
  22091482.067    -2068277.312 5  -1409863.973 5
  19870771.091   -12092694.419 6  -9361264.478 7
  18588449.450   -27368637.205 7 -21102816.892 7
  21518477.083   -15765007.148 5 -12192953.011 5
  21318445.458    -8137920.855 6  -6164302.072 5
  19860236.817   -18032991.835 6
  19174851.856   -29291076.046 7 -22622808.563 9
 94  1 27  4  2 29.9930000  0  8  9 24  2 13 26 12  4  7
  20296313.927   -14967567.809 6
  22066961.013    -2197167.480 5  -1510297.839 3
  19874823.169   -12071394.700 6  -9344667.302 7
  18578971.403   -27418441.805 7 -21141625.658 6
  21526714.114   -15721739.195 5 -12159237.740 5
  21297330.091    -8248874.124 6  -6250759.155 5
  19841189.060   -18133078.540 6
  19181002.013   -29258748.637 7 -22597618.372 9
 94  1 27  4  2 59.9930000  0  8  9 24  2 13 26 12  4  7
  20277354.372   -15067199.538 6
  22042443.927    -2325981.091 5  -1610672.040 4
  19878921.489   -12049874.226 6  -9327898.108 7
  18569603.114   -27467677.425 7 -21179991.066 7
  21534989.380   -15678234.650 5 -12125338.099 5
  21276239.419    -8359716.679 6  -6337129.984 6
  19822214.778   -18232797.297 6
  19187198.567   -29226179.265 7 -22572239.633 9
 94  1 27  4  3 29.9930000  0  8  9 24  2 13 26 12  4  7
  20258455.685   -15166515.611 6
  22017948.271    -2454728.392 5  -1710994.543 5
  19883057.325   -12028139.582 6  -9310962.027 7
  18560342.021   -27516347.935 7 -21217916.125 7
  21543310.052   -15634513.465 5 -12091269.673 5
  21255168.349    -8470450.261 6  -6423415.872 5
  19803306.833   -18332156.337 6
  19193442.161   -29193369.775 7 -22546673.798 9
 94  1 27  4  3 59.9930000  0  8  9 24  2 13 26 12  4  7
  20239620.177   -15265492.364 6
  21993468.442    -2583380.972 5  -1811243.241 5
  19887232.403   -12006189.634 6  -9293858.188 7
  18551187.552   -27564449.966 7 -21255398.216 7
  21551672.138   -15590568.109 5 -12057026.554 5
  21234116.583    -8581068.663 6  -6509612.023 5
  19784469.294   -18431149.247 6
  19199733.239   -29160313.728 7 -22520915.838 9
 94  1 27  4  4 29.9930000  0  8  9 24  2 13 26 12  4  7
  20220850.661   -15364131.167 6
  21969000.755    -2711947.036 5  -1911424.548 5
  19891449.552   -11984023.634 6  -9276585.989 7
  18542139.349   -27611994.687 7 -21292446.049 7
  21560074.653   -15546399.288 5 -12022609.296 5
  21213086.216    -8691580.797 6  -6595725.371 6
  19765700.669   -18529776.337 6
  19206067.724   -29127036.486 7 -22494985.515 9
 94  1 27  4  4 59.9930000  0  8  9 24  2 13 26 12  4  7
  20202158.974   -15462352.248 6
  21944559.630    -2840371.546 5  -2011495.521 5
  19895721.810   -11961579.806 6  -9259097.304 7
  18533210.544   -27658921.093 7 -21329012.065 7
  21568536.825   -15501936.218 5 -11987962.775 5
  21192091.106    -8801923.331 6  -6681706.560 6
  19747015.341   -18627966.882 6
  19212456.489   -29093464.018 7 -22468825.152 9
 94  1 27  4  5 29.9930000  0  8  9 24  2 13 26 12  4  7
  20183565.849   -15560066.754 6
  21920167.497    -2968575.023 5  -2111394.279 5
  19900061.044   -11938778.319 6  -9241329.912 7
  18524413.638   -27705150.562 7 -21365035.019 7
  21577069.763   -15457101.864 5 -11953026.926 5
  21171141.271    -8912014.622 6  -6767491.973 6
  19728427.356   -18725643.607 6
  19218916.778   -29059506.330 7 -22442364.616 9
 94  1 27  4  5 59.9930000  0  8  9 24  2 13 26 12  4  7
  20165042.575   -15657406.686 6
  21895788.294    -3096687.067 5  -2211221.793 4
  19904446.669   -11915734.993 6  -9223374.084 7
  18515725.458   -27750804.594 7 -21400609.575 7
  21585646.372   -15412013.493 5 -11917893.152 5
  21150213.896    -9021973.903 6  -6853174.511 6
  19709920.278   -18822913.911 6
  19225427.833   -29025290.293 7 -22415702.767 9
 94  1 27  4  6 29.9930000  0  8  9 24  2 13 26 12  4  7
  20146584.567   -15754396.922 6
  21871416.591    -3224747.985 5  -2311009.467 2
  19908873.114   -11892464.028 6  -9205240.875 6
  18507145.935   -27795892.274 7 -21435742.820 6
  21594272.763   -15366689.452 5 -11882575.739 3
  21129317.653    -9131807.753 6  -6938759.333 5
  19691487.919   -18919776.211 6
  19231985.786   -28990833.926 7 -22388853.656 7
 94  1 27  4  6 59.9930000  0  8  9 24  2 13 26 12  4  7
  20128191.864   -15851049.522 6 -12161115.670 7
  21847061.747    -3352760.374 5  -2410759.311 4
  19913341.606   -11868983.238 6  -9186944.165 7
  18498672.739   -27840416.621 7 -21470437.103 7
  21602937.716   -15321153.907 5 -11847093.523 5
  21108437.497    -9241516.482 6  -7024246.641 6
  19673132.028   -19016236.363 6 -14627325.902 7
  19238587.146   -28956137.430 7 -22361817.430 9
 94  1 27  4  7 29.9930000  0  8  9 24  2 13 26 12  4  7
  20109863.255   -15947360.516 6 -12236163.205 6
  21822703.810    -3480712.735 5  -2510462.417 3
  19917855.442   -11845279.137 6  -9168473.453 6
  18490310.474   -27884365.286 7 -21504682.816 6
  21611638.950   -15275413.989 4 -11811452.046 3
  21087586.630    -9351085.007 6  -7109624.712 5
  19654855.372   -19112277.589 6 -14702163.215 6
  19245236.146   -28921194.623 7 -22334589.274 7
 94  1 27  4  7 59.9930000  0  8  9 24  2 13 26 12  4  7
  20091601.481   -16043343.057 6 -12310954.797 6
  21798367.052    -3608618.587 5  -2610129.237 2
  19922403.857   -11821355.531 6  -9149831.693 6
  18482054.396   -27927749.575 7 -21538488.744 6
  21620383.724   -15229488.998 5 -11775666.358 2
  21066760.614    -9460522.017 6  -7194900.293 5
  19636657.989   -19207897.638 6 -14776672.327 6
  19251930.497   -28886021.018 7 -22307181.266 7
 94  1 27  4  8 29.9930000  0  8  9 24  2 13 26 12  4  7
  20073398.146   -16139001.568 6 -12385493.883 7
  21774042.763    -3736460.793 5  -2709746.487 4
  19926997.614   -11797218.388 6  -9131023.537 6
  18473903.802   -27970579.136 7 -21571862.412 6
  21629152.419   -15183387.270 5 -11739742.965 4
  21045960.692    -9569834.462 6  -7280078.825 5
  19618537.122   -19303122.558 6 -14850873.544 7
  19258666.466   -28850626.317 7 -22279600.975 8
 94  1 27  4  8 59.9930000  0  8  9 24  2 13 26 12  4  7
  20055260.060   -16234307.594 6 -12459758.312 7
  21749734.700    -3864204.278 5  -2809286.822 4
  19931636.411   -11772857.890 6  -9112041.340 6
  18465859.669   -28012850.317 7 -21604800.971 6
  21637957.833   -15137099.881 5 -11703674.896 5
  21025182.224    -9679015.630 6  -7365155.046 5
  19600493.372   -19397956.735 6 -14924770.286 7
  19265443.013   -28815004.795 7 -22251843.943 8
 94  1 27  4  9 29.9930000  0  8  9 24  2 13 26 12  4  7
  20037193.927   -16329252.856 6 -12533741.625 6
  21725440.200    -3991849.126 5  -2908750.304 3
  19936311.981   -11748274.893 6  -9092885.782 6
  18457920.380   -28054568.719 7 -21637308.806 6
  21646805.825   -15090624.493 5 -11667460.307 4
  21004432.216    -9788068.650 6  -7450131.426 5
  19582518.802   -19492402.009 6 -14998363.988 7
  19272267.013   -28779156.362 7 -22223910.099 8
 94  1 27  4  9 59.9930000  0  8  9 24  2 13 26 12  4  7
  20019195.935   -16423826.645 6 -12607435.477 7
  21701172.130    -4119368.892 5  -3008116.291 5
  19941033.997   -11723460.117 6  -9073549.598 7
  18450089.450   -28095727.976 7 -21669380.935 7
  21655685.872   -15043957.583 5 -11631096.504 5
  20983711.872    -9896984.227 6  -7535000.697 6
  19564621.130   -19586454.087 6 -15071651.303 8
  19279132.403   -28743076.529 7 -22195795.941 9
 94  1 27  4 10 29.9930000  0  8  9 24  2 13 26 12  4  7
  20001273.106   -16518004.583 6 -12680820.882 7
  21676941.997    -4246734.318 5  -3107362.034 4
  19945805.856   -11698392.826 6  -9054016.651 7
  18442366.528   -28136312.664 7 -21701005.360 7
  21664606.716   -14997084.705 4 -11594572.206 5
  20963011.763   -10005743.921 6  -7619748.518 6
  19546803.028   -19680098.227 6 -15144620.747 8
  19286042.333   -28706753.525 7 -22167492.304 9
 94  1 27  4 10 59.9930000  0  8  9 24  2 13 26 12  4  7
  19983421.856   -16611813.957 6 -12753919.102 7
  21652724.192    -4373990.929 5  -3206522.993 5
  19950618.388   -11673097.730 6  -9034306.194 7
  18434746.786   -28176349.023 7 -21732202.512 7
  21673561.083   -14950048.468 4 -11557920.589 5
  20942340.442   -10114371.157 6  -7704393.109 5
  19529059.935   -19773332.154 6 -15217270.542 8
  19292994.724   -28670216.618 7 -22139021.990 9
 94  1 27  4 11 29.9930000  0  8  9 24  2 13 26 12  4  7
  19965640.614   -16705261.915 6 -12826735.692 7
  21628527.677    -4501136.595 5  -3305597.491 5
  19955475.521   -11647561.810 6  -9014408.098 7
  18427235.146   -28215829.842 7 -21762966.771 7
  21682539.755   -14902851.156 5 -11521143.474 5
  20921695.958   -10222855.762 6  -7788926.570 6
  19511398.536   -19866138.764 6 -15289587.364 8
  19299993.106   -28633451.164 7 -22110373.587 9
 94  1 27  4 11 59.9930000  0  8  9 24  2 13 26 12  4  7
  19947925.919   -16798355.691 6 -12899276.294 7
  21604357.567    -4628165.226 5  -3404580.789 5
  19960383.153   -11621775.686 6  -8994315.031 7
  18419827.630   -28254755.917 7 -21793298.762 7
  21691546.161   -14855491.915 4 -11484240.195 4
  20901080.317   -10331195.717 6  -7873347.315 6
  19493819.528   -19958523.889 6 -15361575.756 8
  19307031.060   -28596460.748 7 -22081549.888 9
 94  1 27  4 12 29.9930000  0  8  9 24  2 13 26 12  4  7
  19930279.700   -16891089.681 6 -12971536.540 7
  21580197.685    -4755081.511 5  -3503476.548 5
  19965339.864   -11595746.026 6  -8974032.185 7
  18412525.075   -28293124.508 7 -21823196.353 7
  21700601.778   -14807952.219 5 -11447196.280 5
  20880491.771   -10439385.332 6  -7957650.911 6
  19476319.482   -20050480.629 6 -15433230.343 8
  19314111.622   -28559249.417 7 -22052554.047 9
 94  1 27  4 12 59.9930000  0  8  9 24  2 13 26 12  4  7
  19912699.638   -16983464.962 6 -13043517.282 7
  21556074.630    -4881884.019 5  -3602283.651 5
  19970331.903   -11569494.772 6  -8953576.678 7
  18405329.966   -28330940.540 7 -21852663.389 7
  21709681.653   -14760227.315 4 -11410008.075 5
  20859931.692   -10547426.451 6  -8041838.792 6
  19458903.646   -20142014.135 6 -15504555.132 8
  19321234.567   -28521821.329 7 -22023389.304 9
 94  1 27  4 13 29.9930000  0  8  9 24  2 13 26 12  4  7
  19895195.489   -17075452.478 6 -13115195.863 7
  21531972.622    -5008537.749 5  -3700974.827 5
  19975373.396   -11543006.734 6  -8932936.663 7
  18398241.091   -28368192.986 7 -21881691.265 7
  21718802.161   -14712290.953 5 -11372655.089 4
  20839402.755   -10655304.790 6  -8125899.838 6
  19441565.435   -20233121.437 6 -15575547.823 8
  19328403.942   -28484153.983 7 -21994038.125 9
 94  1 27  4 13 59.9930000  0  8  9 24  2 13 26 12  4  7
  19877767.763   -17167043.418 6 -13186565.422 7
  21507898.958    -5135050.155 5  -3799555.868 5
  19980459.575   -11516284.547 6  -8912114.195 7
  18391257.786   -28404887.150 7 -21910284.106 7
  21727960.927   -14664153.581 4 -11335145.476 4
  20818904.169   -10763022.825 6  -8209835.978 6
  19424308.083   -20323800.225 6 -15646206.606 8
  19335611.927   -28446271.806 7 -21964519.538 9
 94  1 27  4 14 29.9930000  0  8  9 24  2 13 26 12  4  7
  19860416.591   -17258219.249 6 -13257611.521 7
  21483854.044    -5261421.857 5  -3898027.283 5
  19985589.606   -11489334.470 6  -8891114.149 7
  18384380.153   -28441026.679 7 -21938444.771 7
  21737159.567   -14615829.867 4 -11297490.646 4
  20798438.021   -10870581.050 6  -8293647.575 6
  19407138.771   -20414040.846 6 -15716523.952 7
  19342859.981   -28408178.037 7 -21934836.085 9
 94  1 27  4 14 59.9930000  0  8  9 24  2 13 26 12  4  7
  19843144.724   -17348984.863 6 -13328337.975 7
  21459828.271    -5387654.174 5  -3996390.081 5
  19990757.685   -11462153.509 6  -8869934.197 7
  18377608.505   -28476615.817 7 -21966176.556 7
  21746378.177   -14567344.292 4 -11259709.686 5
  20778003.114   -10977980.569 6  -8377335.512 6
  19390048.700   -20503836.763 6 -15786494.775 7
  19350151.841   -28369864.763 7 -21904981.586 9
 94  1 27  4 15 29.9930000  0  8  9 24  2 13 26 12  4  7
  19825949.294   -17439341.006 6 -13398745.358 8
  21435836.263    -5513757.218 5  -4094652.141 5
  19995978.841   -11434728.560 6  -8848564.131 7
  18370941.669   -28511651.848 7 -21993477.350 7
  21755639.724   -14518716.365 4 -11221817.814 4
  20757593.403   -11085215.353 6  -8460895.090 6
  19373049.919   -20593173.070 6 -15856107.465 8
  19357482.552   -28331338.583 7 -21874961.184 9
 94  1 27  4 15 59.9930000  0  8  9 24  2 13 26 12  4  7
  19808827.880   -17529313.321 6 -13468853.657 8
  21411854.458    -5639749.524 5  -4192827.930 5
  20001240.747   -11407069.499 6  -8827011.631 7
  18364378.833   -28546135.582 7 -22020347.783 7
  21764917.325   -14469956.065 4 -11183822.800 4
  20737217.880   -11192283.148 6  -8544324.525 6
  19356139.817   -20682050.518 6 -15925362.605 7
  19364852.481   -28292612.632 7 -21844785.127 9
 94  1 27  4 16 29.9930000  0  8  9 24  2 13 26 12  4  7
  19791776.513   -17618923.165 6 -13538679.505 8
  21387903.388    -5765634.303 5  -4290919.906 5
  20006545.083   -11379193.859 6  -8805290.370 7
  18357920.497   -28580077.434 7 -22046795.974 7
  21774220.052   -14421065.503 5 -11145726.298 4
  20716876.200   -11299190.952 6  -8627629.319 6
  19339310.841   -20770474.545 6 -15994264.429 8
  19372258.239   -28253688.711 7 -21814454.792 9
 94  1 27  4 16 59.9930000  0  8  9 24  2 13 26 12  4  7
  19774791.310   -17708182.961 6 -13608232.586 8
  21363969.146    -5891416.171 5  -4388931.708 5
  20011892.739   -11351100.683 6  -8783399.595 7
  18351563.481   -28613477.482 7 -22072821.973 7
  21783548.482   -14372038.176 4 -11107523.196 4
  20696563.302   -11405936.022 6  -8710807.288 6
  19322571.091   -20858445.358 6 -16062813.103 8
  19379699.052   -28214583.446 7 -21783983.164 9
 94  1 27  4 17 59.9920000  0  8  9 24  2 13 26 12  4  7
  19741036.086   -17885576.931 6 -13746461.650 8
  21316165.805    -6142610.009 5  -4584667.064 5
  20022713.367   -11294239.710 6  -8739092.370 7
  18339164.289   -28678637.832 7 -22123596.258 7
  21802297.195   -14273541.634 5 -11030772.678 4
  20656037.383   -11618906.956 6  -8876758.650 6
  19289342.516   -21033059.344 6 -16198875.921 8
  19394685.383   -28135833.799 7 -21722619.805 8
 94  1 27  4 18 29.9920000  0  8  9 24  2 13 26 12  4  7
  19724273.078   -17973666.515 6 -13815102.887 8
  21292311.274    -6267979.675 5  -4682357.672 5
  20028184.125   -11265472.569 6  -8716676.430 7
  18333121.148   -28710398.120 7 -22148344.519 7
  21811706.664   -14224063.649 4 -10992218.404 3
  20635822.539   -11725128.778 6  -8959528.892 6
  19272850.406   -21119719.517 6 -16266403.317 8
  19402231.125   -28096179.811 7 -21691720.594 8
 94  1 27  4 18 59.9920000  0  8  9 24  2 13 26 12  4  7
  19707594.398   -18061315.227 6 -13883400.587 8
  21268486.578    -6393177.317 5  -4779914.234 5
  20033705.789   -11236473.327 6  -8694079.635 7
  18327182.883   -28741605.187 7 -22172661.701 6
  21821154.594   -14174436.261 4 -10953547.753 3
  20615645.195   -11831162.855 6  -9042152.847 6
  19256441.461   -21205945.313 6 -16333592.236 8
  19409816.133   -28056328.048 7 -21660667.271 8
 94  1 27  4 19 29.9920000  0  8  9 24  2 13 26 12  4  7
  19690997.945   -18148523.587 6 -13951355.151 8
  21244693.281    -6518196.033 5  -4877331.372 5
  20039264.352   -11207250.618 6  -8671308.703 7
  18321348.836   -28772265.358 7 -22196552.734 7
  21830622.211   -14124671.601 4 -10914770.115 4
  20595502.469   -11937012.089 6  -9124632.758 6
  19240117.352   -21291736.936 6 -16400442.846 8
  19417440.055   -28016261.706 7 -21629446.748 8
 94  1 27  4 19 59.9920000  0  8  9 24  2 13 26 12  4  7
  19674481.938   -18235307.666 6 -14018979.116 8
  21220934.305    -6643035.920 5  -4974609.166 5
  20044867.672   -11177811.765 6  -8648369.343 6
  18315616.500   -28802385.334 7 -22220022.841 6
  21840112.258   -14074770.534 4 -10875886.185 4
  20575393.836   -12042679.850 6  -9206971.264 6
  19223876.695   -21377083.826 6 -16466946.904 8
  19425105.000   -27975981.893 7 -21598059.884 8
 94  1 27  4 20 29.9920000  0  8  9 24  2 13 26 12  4  7
  19658048.500   -18321669.575 6 -14086274.094 8
  21197216.672    -6767704.781 5  -5071753.690 5
  20050513.359   -11148144.062 6  -8625251.658 6
  18309987.633   -28831961.652 7 -22243069.314 7
  21849642.914   -14024738.371 4 -10836900.117 3
  20555322.438   -12148158.969 6  -9289162.777 6
  19207726.274   -21461956.701 6 -16533081.610 8
  19432810.125   -27935490.156 7 -21566507.884 8
 94  1 27  4 20 59.9920000  0  8  9 24  2 13 26 12  4  7
  19641689.750   -18407632.286 6 -14153258.025 8
  21173522.227    -6892216.084 5  -5168775.445 6
  20056203.906   -11118239.074 6  -8601949.092 6
  18304461.703   -28860997.610 7 -22265694.731 6
  21859185.578   -13974583.255 4 -10797818.236 3
  20535286.789   -12253449.570 6  -9371207.391 6
  19191668.078   -21546341.843 6 -16598836.250 8
  19440556.727   -27894781.723 7 -21534787.029 8
 94  1 27  4 21 29.9920000  0  8  9 24  2 13 26 12  4  7
  19625405.648   -18493211.705 6 -14219943.287 8
  21149856.867    -7016574.441 5  -5265678.016 5
  20061939.867   -11088095.034 6  -8578460.242 6
  18299038.063   -28889498.162 7 -22287902.947 6
  21868749.094   -13924319.480 4 -10758651.684 3
  20515287.438   -12358553.038 6  -9453106.201 6
  19175700.570   -21630252.598 6 -16664221.247 8
  19448341.211   -27853880.250 7 -21502915.751 8
 94  1 27  4 21 59.9920000  0  8  9 24  2 13 26 12  4  7
  19609190.563   -18578432.881 6 -14286349.394 8
  21126214.078    -7140808.686 5  -5362483.885 5
  20067718.156   -11057724.406 6  -8554794.836 6
  18293713.086   -28917486.234 7 -22309711.825 6
  21878325.484   -13873980.503 3 -10719426.527 3
  20495318.867   -12463488.471 6  -9534874.066 6
  19159816.539   -21713712.314 6 -16729254.785 8
  19456152.180   -27812824.174 7 -21470924.011 8
 94  1 27  4 22 29.9920000  0  8  9 24  2 13 26 12  4  7
  19593047.805   -18663260.700 6 -14352448.993 8
  21102604.516    -7264891.986 5  -5459172.141 5
  20073548.438   -11027095.271 6  -8530927.996 6
  18288490.891   -28944931.095 7 -22331097.421 6
  21887928.242   -13823546.762 4 -10680127.550 3
  20475387.375   -12568221.831 6  -9616484.464 6
  19144024.406   -21796698.587 6 -16793919.402 8
  19463996.875   -27771595.394 7 -21438797.684 8
 94  1 27  4 22 59.9920000  0  8  9 24  2 13 26 12  4  7
  19576981.023   -18747689.208 6 -14418237.444 8
  21079023.781    -7388812.186 5  -5555733.292 5
  20079423.680   -10996225.501 6  -8506873.651 6
  18283370.070   -28971839.564 7 -22352065.053 7
  21897543.891   -13773020.089 4 -10640756.148 3
  20455494.055   -12672756.257 6  -9697939.859 6
  19128320.672   -21879235.920 6 -16858234.193 8
  19471874.570   -27730204.741 7 -21406545.227 8
 94  1 27  4 23 29.9920000  0  8  9 24  2 13 26 12  4  7
  19561000.570   -18831657.984 6 -14483667.663 8
  21055485.539    -7512515.922 5  -5652125.782 5
  20085354.000   -10965067.202 6  -8482594.473 6
  18278360.828   -28998162.785 7 -22372576.646 6
  21907184.977   -13722343.001 3 -10601267.535 4
  20435651.453   -12777039.237 6  -9779199.332 6
  19112710.531   -21961268.285 6 -16922155.505 8
  19479791.641   -27688602.015 7 -21374127.524 8
 94  1 27  4 23 59.9920000  0  8  9 24  2 13 26 12  4  7
  19545081.648   -18915314.780 6 -14548854.781 8
  21031953.875    -7636162.292 5  -5748473.580 6
  20091303.344   -10933787.268 6  -8458220.522 6
  18273430.883   -29024066.729 7 -22392761.532 7
  21916830.531   -13671663.344 3 -10561776.917 2
  20415823.781   -12881233.334 6  -9860389.542 6
  19097167.164   -22042940.827 6 -16985796.437 8
  19487718.617   -27646944.572 7 -21341667.182 8
 94  1 27  4 24 29.9920000  0  8  9 24  2 13 26 12  4  7
  19529250.992   -18998516.353 6 -14613687.186 8
  21008457.359    -7759622.632 5  -5844676.414 6
  20097297.992   -10902273.366 6  -8433664.261 6
  18268604.430   -29049431.579 7 -22412526.339 6
  21926493.539   -13620846.015 3 -10522178.996 3
  20396034.383   -12985215.015 6  -9941414.229 6
  19081719.328   -22124121.934 6 -17049054.429 8
  19495679.500   -27605113.260 7 -21309071.355 8
 94  1 27  4 24 59.9920000  0  8  9 24  2 13 26 12  4  7
  19513501.891   -19081258.255 6 -14678161.399 8
  20985000.344    -7882892.972 5  -5940731.199 5
  20103345.391   -10870516.055 6  -8408918.332 6
  18263880.281   -29074260.447 7 -22431873.508 7
  21936193.797   -13569889.293 3 -10482472.465 4
  20376289.844   -13088983.541 6 -10022272.813 6
  19066368.078   -22204807.292 6 -17111926.120 8
  19503674.063   -27563097.534 7 -21276331.829 8
 94  1 27  4 25 29.9920000  0  8  9 24  2 13 26 12  4  7
  19497841.859   -19163559.522 6 -14742292.253 8
  20961577.570    -8005987.910 5  -6036649.298 6
  20109431.750   -10838519.201 6  -8383985.728 6
  18259253.820   -29098569.632 7 -22450815.720 6
  21945909.766   -13518814.889 3 -10442674.246 3
  20356582.406   -13192551.422 6 -10102975.058 6
  19051105.711   -22284995.963 6 -17174410.787 8
  19511702.258   -27520914.928 7 -21243462.271 8
 94  1 27  4 25 59.9920000  0  8  9 24  2 13 26 12  4  7
  19482269.219   -19245386.954 6 -14806053.871 8
  20938193.078    -8128871.127 5  -6132402.434 6
  20115572.789   -10806259.080 6  -8358847.985 6
  18254733.109   -29122332.866 7 -22469332.512 6
  21955661.219   -13467608.497 3 -10402773.207 3
  20336919.570   -13295888.896 6 -10183497.761 6
  19035943.250   -22364671.615 6 -17236495.693 8
  19519762.352   -27478546.062 7 -21210447.576 8
 94  1 27  4 26 29.9920000  0  8  9 24  2 13 26 12  4  7
  19466782.391   -19326768.852 6 -14869468.342 8
  20914851.070    -8251540.385 5  -6227988.850 6
  20121760.563   -10773743.503 6  -8333511.198 6
  18250311.484   -29145564.671 7 -22487435.209 6
  21965420.289   -13416299.740 3 -10362792.356 4
  20317294.359   -13399006.599 6 -10263849.225 6
  19020878.281   -22443851.003 6 -17298193.907 8
  19527858.805   -27436001.315 7 -21177295.825 8
 94  1 27  4 26 59.9920000  0  7  9 24  2 13 12  4  7
  19451381.109   -19407720.583 6 -14932547.626 8
  20891549.758    -8373997.775 5  -6323410.167 6
  20127998.984   -10740975.138 6  -8307977.422 6
  18245990.781   -29168268.031 7 -22505126.135 6
  20297713.797   -13501903.698 6 -10344028.791 6
  19005901.906   -22522540.854 6 -17359510.657 8
  19535986.492   -27393282.921 7 -21144008.762 8
 94  1 27  4 27 29.9920000  0  8  9 24  2 13  5 12  4  7
  19436056.914   -19488246.779 6 -14995295.306 8
  20868284.266    -8496245.859 5  -6418668.393 6
  20134276.781   -10707962.060 6  -8282252.962 6
  18241771.313   -29190445.048 7 -22522406.918 6
  21925793.219     -101671.875 3
  20278175.477   -13604578.539 6 -10424035.161 7
  18991023.711   -22600729.910 6 -17420437.187 8
  19544147.633   -27350404.717 7 -21110597.171 8
 94  1 27  4 27 59.9920000  0  8  9 24  2 13  5 12  4  7
  19420813.844   -19568347.346 6 -15057711.349 8
  20845058.922    -8618296.699 5  -6513772.928 6
  20140607.148   -10674707.880 6  -8256340.647 6
  18237649.914   -29212098.137 7 -22539279.451 6
  21906439.977     -203356.194 4
  20258680.758   -13707029.591 6 -10503867.138 6
  18976234.656   -22678437.115 6 -17480988.243 8
  19552339.070   -27307361.110 7 -21077056.705 8
 94  1 27  4 28 29.9920000  0  8  9 24  2 13  5 12  4  7
  19405654.563   -19648015.058 7 -15119790.090 8
  20821870.641    -8740159.576 5  -6608730.988 6
  20146978.883   -10641223.317 6  -8230248.809 6
  18233630.320   -29233225.334 7 -22555742.192 6
  21887086.961     -305055.005 3        -0.13115
  20239228.750   -13809251.066 6 -10583520.250 7
  18961542.414   -22755651.566 6 -17541155.332 8
  19560561.859   -27264147.621 7 -21043383.856 8
 94  1 27  4 28 59.9920000  0  8  9 24  2 13  5 12  4  7
  19390568.195   -19727287.938 6 -15181561.173 8
  20798700.195    -8861905.627 5  -6703598.007 6
  20153377.844   -10607578.577 6  -8204032.145 6
  18229698.047   -29253888.466 7 -22571843.318 6
  21867720.070     -406837.075 4
  20219806.539   -13911300.859 6
  18946934.133   -22832428.687 6 -17600981.647 8
  19568804.883   -27220830.150 7 -21009629.984 8
 94  1 27  4 29 29.9920000  0  8  9 24  2 13  5 12  4  7
  19375561.445   -19806161.056 6 -15243020.749 8
  20775555.688    -8983534.360 5  -6798373.626 6
  20159811.656   -10573784.947 6  -8177699.471 6
  18225852.445   -29274096.261 7 -22587589.647 6
  21848336.649     -508712.734 5
  20200419.203   -14013183.797 6 -10742428.853 7
  18932404.375   -22908771.724 6 -17660469.709 8
  19577067.617   -27177412.364 7 -20975797.942 8
 94  1 27  4 29 59.9920000  0  8  9 24  2 13  5 12  4  7
  19360638.922   -19884570.318 6 -15304118.873 8
  20752443.352    -9104989.850 5  -6893014.244 6
  20166282.649   -10539794.073 6  -8151213.102 6
  18222101.867   -29293799.298 7 -22602942.659 7
  21828942.016     -610631.178 5
  20181076.250   -14114846.563 6 -10821646.597 7
  18917969.953   -22984632.116 6 -17719581.676 8
  19585358.063   -27133838.350 6 -20941844.170 8
 94  1 27  4 30 29.9920000  0  8  9 24  2 13  5 12  4  7
  19345809.383   -19962495.037 6 -15364839.443 8
  20729375.961    -9226231.596 5  -6987488.305 6
  20172792.195   -10505581.156 6  -8124553.699 6
  18218453.453   -29312977.916 7 -22617887.033 7
  21809543.563     -712574.025 5        -0.38613
  20161776.734   -14216265.559 6 -10900674.386 7
  18903634.672   -23059964.263 6 -17778282.042 8
  19593684.164   -27090094.868 6 -20907758.334 8
 94  1 27  4 30 59.9920000  0  8  9 24  2 13  5 12  4  7
  19331074.359   -20039941.686 6 -15425187.485 8
  20706344.500    -9347244.350 5  -7081783.937 6
  20179346.922   -10471120.048 6  -8097700.915 6
  18214902.641   -29331636.757 7 -22632426.388 7
  21790145.320     -814540.251 5    -79454.559 4
  20142521.586   -14317441.468 6 -10979512.750 7
  18889396.414   -23134771.923 6 -17836573.715 8
  19602037.648   -27046185.535 6 -20873543.268 8
 94  1 27  4 31 29.9920000  0  8  9 24  2 13  5 12  4  7
  19316421.813   -20116926.356 6 -15485175.544 8
  20683360.086    -9468028.394 6  -7175901.348 6
  20185951.273   -10436404.335 6  -8070649.732 6
  18211450.211   -29349779.238 7 -22646563.379 7
  21770730.773     -916530.612 5   -158927.576 4
  20123315.992   -14418373.720 6 -11058161.263 7
  18875259.859   -23209074.227 6 -17894471.596 8
  19610428.461   -27002104.797 6 -20839194.646 8
 94  1 27  4 31 59.9920000  0  8  9 24  2 13  5 12  4  7
  19301860.617   -20193447.852 6 -15544802.700 8
  20660426.313    -9588563.868 6  -7269825.078 6
  20192612.375   -10401406.737 6  -8043378.903 6
  18208097.695   -29367394.459 7 -22660289.520 7
  21751323.109    -1018528.518 5   -238406.459 5
  20104157.727   -14519047.337 6 -11136608.234 7
  18861219.664   -23282863.548 6 -17951969.753 8
  19618848.188   -26957850.153 6 -20804710.514 8
 94  1 27  4 32 29.9920000  0  8  9 24  2 13  5 12  4  7
  19287385.875   -20269513.142 6 -15604074.361 8
  20637536.117    -9708846.394 6  -7363551.701 6
  20199324.149   -10366132.026 6  -8015892.143 6
  18204844.250   -29384490.759 7 -22673611.304 7
  21731906.094    -1120544.700 5   -317899.577 3
  20085047.180   -14619466.352 6 -11214856.815 7
  18847273.016   -23356153.093 6 -18009078.473 8
  19627300.984   -26913435.814 6 -20770101.937 8
 94  1 27  4 32 59.9920000  0  8  9 24  2 13  5 12  4  7
  19273000.430   -20345118.030 6 -15662987.264 9
  20614690.258    -9828895.564 6  -7457096.497 6
  20206086.641   -10330597.665 5  -7988203.065 6
  18201688.305   -29401081.487 7 -22686539.140 7
  21712489.734    -1222592.858 5   -397417.621 5
  20065985.523   -14719640.460 6 -11292914.569 7
  18833413.125   -23428972.268 6 -18065820.674 8
  19635777.656   -26868878.963 6 -20735382.317 8
 94  1 27  4 33 29.9920000  0  8  9 24  2 13  5 12  4  7
  19258704.063   -20420252.263 6 -15721533.412 9
  20591890.844    -9948702.785 6  -7550452.749 6
  20212898.773   -10294810.200 6  -7960316.761 6
  18198629.156   -29417157.034 7 -22699065.533 6
  21693077.586    -1324656.784 5   -476947.936 5
  20046971.547   -14819555.677 6 -11370770.576 7
  18819646.984   -23501301.877 6 -18122181.408 8
  19644282.867   -26824188.145 6 -20700558.302 8
 94  1 27  4 33 59.9920000  0  8  9 24  2 13  5 12  4  7
  19244495.695   -20494910.314 6 -15779708.517 9
  20569138.375   -10068264.819 6  -7643617.953 6
  20219752.477   -10258776.318 5  -7932238.425 6
  18195666.094   -29432722.299 7 -22711194.308 7
  21673644.563    -1426725.569 5   -556482.042 4
  20028007.438   -14919213.044 6 -11448425.676 7
  18805983.555   -23573122.870 6 -18178145.792 8
  19652809.109   -26779388.779 6 -20665649.702 7
 94  1 27  4 34 29.9920000  0  8  9 24  2 13  5 12  4  7
  19230380.961   -20569074.202 6 -15837498.563 9
  20546431.406   -10187588.656 6  -7736597.543 6
  20226656.141   -10222515.080 5  -7903982.941 6
  18192801.008   -29447780.152 7 -22722927.693 7
  21654222.289    -1528790.970 5   -636013.507 4
  20009094.070   -15018611.077 6 -11525878.705 7
  18792413.859   -23644435.782 6 -18233714.279 8
  19661356.344   -26734469.892 6 -20630647.970 7
 94  1 27  4 34 59.9920000  0  8  9 24  2 13  5 12  4  7
  19216358.836   -20642766.572 6 -15894921.207 9
  20523772.297   -10306681.999 6  -7829397.535 6
  20233598.836   -10186038.167 5  -7875559.399 6
  18190031.273   -29462338.301 7 -22734271.701 7
  21634801.477    -1630845.041 5   -715536.160 4
  19990229.016   -15117753.507 6 -11603132.548 7
  18778941.664   -23715230.454 6 -18288878.946 8
  19669926.555   -26689431.768 6 -20595553.335 7
 94  1 27  4 35 29.9920000  0  8  9 24  2 13  5 12  4  7
  19202421.797   -20716001.353 6 -15951987.269 9
  20501151.922   -10425525.842 6  -7922003.102 6
  20240580.773   -10149330.389 5  -7846955.964 6
  18187356.734   -29476391.450 7 -22745222.201 7
  21615384.117    -1732875.405 5   -795040.315 4
  19971412.094   -15216630.608 6 -11680179.639 7
  18765574.906   -23785485.191 6 -18343622.878 8
  19678521.898   -26644263.340 6 -20560357.156 8
 94  1 27  4 35 59.9920000  0  8  9 24  2 13  5 12  4  7
  19188572.883   -20788770.120 6 -16008690.212 9
  20478589.195   -10544116.840 6  -8014411.653 6
  20247611.570   -10112392.804 5  -7818173.462 5
  18184778.938   -29489941.595 7 -22755780.754 7
  21595973.523    -1834889.912 5   -874532.164 4
  19952650.172   -15315240.367 6 -11757018.416 7
  18752308.570   -23855200.552 7 -18397946.528 8
  19687146.836   -26598938.694 6 -20525039.254 7
 94  1 27  4 36 29.9920000  0  8  9 24  2 13  5 12  4  7
  19174816.891   -20861066.142 6 -16065024.778 9
  20456066.508   -10662455.513 6  -8106623.586 6
  20254686.570   -10075214.970 5  -7789203.756 6
  18182297.023   -29502983.587 7 -22765943.336 7
  21576559.438    -1936897.554 5   -954018.615 5
  19933935.648   -15413573.381 6 -11833641.548 7
  18739145.070   -23924371.282 6 -18451845.779 9
  19695805.883   -26553434.364 6 -20489581.332 8
 94  1 27  4 36 59.9920000  0  8  9 24  2 13  5 12  4  7
  19161144.781   -20932916.613 6 -16121012.148 9
  20433591.273   -10780553.696 6  -8198648.123 6
  20261807.422   -10037788.493 5  -7760040.303 6
  18179908.016   -29515536.846 7 -22775725.095 7
  21557144.727    -2038926.023 5  -1033521.310 5
  19915275.867   -15511645.005 6 -11910060.997 7
  18726084.188   -23993005.211 7 -18505326.748 9
  19704492.961   -26507788.518 6 -20454013.144 7
 94  1 27  4 37 29.9920000  0  8  9 24  2 13  5 12  4  7
  19147563.281   -21004288.170 6 -16176626.343 9
  20411165.055   -10898415.576 6  -8290488.532 6
  20268982.594   -10000101.661 5  -7730673.963 6
  18177611.680   -29527594.298 7 -22785120.501 7
  21537726.773    -2140973.787 5  -1113039.038 5
  19896663.922   -15609443.667 6 -11986267.748 7
  18713124.656   -24061104.078 7 -18558390.785 9
  19713207.117   -26461992.776 6 -20418328.152 7
 94  1 27  4 37 59.9920000  0  8  9 24  2 13  5 12  4  7
  19134080.977   -21075151.439 6 -16231844.482 9
  20388778.719   -11016050.100 6  -8382151.777 6
  20276202.750    -9962153.377 5  -7701103.906 6
  18175413.852   -29539154.901 7 -22794128.767 7
  21518301.844    -2243046.280 5  -1192576.014 5
  19878103.906   -15706964.244 6 -12062257.822 7
  18700265.594   -24128659.145 7 -18611031.078 8
  19721950.953   -26416042.597 6 -20382522.823 7
 94  1 27  4 38 29.9920000  0  8  9 24  2 13  5 12  4  7
  19120689.680   -21145510.082 6 -16286669.397 9
  20366438.820   -11133463.372 6  -8473642.621 6
  20283476.820    -9923927.821 5  -7671317.786 5
  18173307.398   -29550220.432 7 -22802751.247 7
  21498877.172    -2345139.538 5  -1272129.163 4
  19859601.055   -15804204.119 6 -12138029.146 7
  18687518.094   -24195664.458 6 -18663243.001 9
  19730721.297   -26369960.056 6 -20346614.352 7
 94  1 27  4 38 59.9920000  0  8  9 24  2 13  5 12  4  7
  19107392.547   -21215383.158 6 -16341115.955 9
  20344139.070   -11250650.855 6  -8564957.526 6
  20290800.102    -9885434.230 5  -7641322.812 6
  18171294.055   -29560801.439 7 -22810996.187 7
  21479443.461    -2447255.768 5  -1351700.266 5
  19841145.359   -15901169.603 6 -12213586.668 7
  18674871.648   -24262126.954 6 -18715031.945 9
  19739511.274   -26323764.090 6 -20310617.491 7
 94  1 27  4 39 29.9920000  0  8  9 24  2 13  5 12  4  7
  19094187.430   -21284764.498 6 -16395179.339 9
  20321884.125   -11367603.677 6  -8656089.577 6
  20298175.086    -9846679.908 5  -7611124.671 6
  18169372.656   -29570895.812 7 -22818861.925 7
  21460006.250    -2549389.293 5  -1431284.829 5
  19822749.820   -15997854.120 6 -12288925.253 7
  18662331.156   -24328033.356 7 -18766387.568 9
  19748327.047   -26277432.147 6 -20274514.683 7
 94  1 27  4 39 59.9920000  0  8  9 24  2 13  5 12  4  7
  19081080.867   -21353656.554 6 -16448861.466 9
  20299676.531   -11484296.016 6  -8747018.658 6
  20305601.555    -9807657.902 5  -7580717.963 6
  18167546.078   -29580501.123 7 -22826346.583 7
  21440572.406    -2651532.342 5  -1510876.801 5
  19804405.906   -16094251.135 6 -12364039.807 7
  18649893.750   -24393378.923 7 -18817306.182 8
  19757169.664   -26230972.895 6 -20238312.671 7
 94  1 27  4 40 29.9920000  0  8  9 24  2 13  5 12  4  7
  19068059.383   -21422079.087 6 -16502177.724 9
  20277521.031   -11600712.298 6  -8837732.633 6
  20313075.688    -9768379.147 5  -7550111.159 5
  18165809.969   -29589621.447 7 -22833453.318 7
  21421133.750    -2753681.507 5  -1590473.525 5
  19786118.484   -16190360.255 6 -12438930.036 7
  18637561.773   -24458178.392 6 -18867799.259 9
  19766034.305   -26184390.458 6 -20202014.663 7
 94  1 27  4 40 59.9920000  0  8  9 24  2 13  5 12  4  7
  19055131.063   -21490017.386 6 -16555116.662 9
  20255424.070   -11716832.879 6  -8928216.189 6
  20320595.086    -9728864.751 5  -7519320.758 6
  18164166.664   -29598257.620 7 -22840182.795 7
  21401695.766    -2855830.626 5  -1670070.233 5
  19767883.867   -16286178.013 6 -12513593.228 7
  18625338.102   -24522430.756 7 -18917866.023 9
  19774924.555   -26137671.283 6 -20165610.117 7
 94  1 27  4 41 29.9920000  0  8  9 24  2 13  5 12  4  7
  19042301.844   -21557442.655 6 -16607655.835 9
  20233385.820   -11832658.150 6  -9018469.632 6
  20328157.914    -9689120.842 5  -7488351.503 6
  18162615.563   -29606408.616 7 -22846534.216 7
  21382254.031    -2957975.743 5  -1749663.809 5
  19749707.180   -16381698.768 6 -12588024.980 7
  18613211.828   -24586136.402 6 -18967506.768 9
  19783839.195   -26090818.668 6 -20129101.589 7
 94  1 27  4 41 59.9920000  0  8  9 24  2 13  5 12  4  7
  19029568.227   -21624351.932 6 -16659792.942 9
  20211399.695   -11948193.794 6  -9108497.381 6
  20335759.406    -9649163.530 5  -7457215.950 5
  18161157.477   -29614075.557 7 -22852508.447 7
  21362820.000    -3060110.718 5  -1829249.495 5
  19731586.836   -16476919.663 6 -12662223.084 8
  18601193.672   -24649305.767 7 -19016729.639 9
  19792775.797   -26043854.462 6 -20092506.114 7
 94  1 27  4 42 29.9920000  0  8  9 24  2 13  5 12  4  7
  19016935.969   -21690742.225 6 -16711525.642 9
  20189471.391   -12063445.382 6  -9198303.802 6
  20343406.102    -9608996.765 5  -7425917.198 6
  18159788.477   -29621260.129 7 -22858106.812 7
  21343389.859    -3162233.013 5  -1908825.303 5
  19713525.914   -16571837.481 6 -12736185.017 7
  18589273.984   -24711931.529 6 -19065528.935 9
  19801736.492   -25996769.005 6 -20055816.149 7
 94  1 27  4 42 59.9920000  0  8  9 24  2 13  5 12  4  7
  19004399.531   -21756610.444 6 -16762851.529 9
  20167589.297   -12178427.629 6  -9287900.337 6
  20351084.219    -9568627.880 5  -7394460.953 6
  18158511.656   -29627973.815 7 -22863338.255 7
  21323954.297    -3264358.515 5  -1988403.604 5
  19695520.313   -16666459.632 6 -12809916.562 8
  18577459.891   -24774024.881 7 -19113913.354 9
  19810714.961   -25949579.756 6 -20019045.303 7
 94  1 27  4 43 29.9920000  0  8  9 24  2 13  5 12  4  7
  18991964.453   -21821972.435 6 -16813782.957 9
  20145759.000   -12293141.348 6  -9377287.631 6
  20358810.422    -9528038.925 5  -7362833.233 5
  18157324.164   -29634212.772 7 -22868199.776 7
  21304516.125    -3366495.079 5  -2067990.519 5
  19677570.617   -16760777.664 6 -12883411.133 7
  18565744.133   -24835590.210 6 -19161886.328 9
  19819713.484   -25902291.811 6 -19982197.568 7
 94  1 27  4 43 59.9920000  0  8  9 24  2 13  5 12  4  7
  18979618.078   -21886842.608 6 -16864331.144 9
  20123982.625   -12407573.213 6  -9466455.309 6
  20366578.469    -9487219.642 5  -7331026.025 5
  18156226.883   -29639978.644 7 -22872692.658 7
  21285081.477    -3468643.301 5  -2147586.515 5
  19659680.195   -16854788.854 6 -12956666.604 8
  18554129.195   -24896624.323 7 -19209445.366 9
  19828734.344   -25854894.766 6 -19945264.794 7
 94  1 27  4 44 29.9920000  0  8  9 24  2 13  5 12  4  7
  18967367.969   -21951228.197 6 -16914501.738 8
  20102262.399   -12521712.561 6  -9555395.049 6
  20374392.711    -9446153.162 5  -7299026.206 5
  18155218.531   -29645280.044 7 -22876823.619 7
  21265636.344    -3570811.119 5  -2227197.800 5
  19641847.578   -16948497.232 6 -13029686.113 8
  18542614.734   -24957131.774 7 -19256594.012 9
  19837773.383   -25807389.073 6 -19908247.391 7
 94  1 27  4 44 59.9920000  0  8  9 24  2 13  5 12  4  7
  18955205.500   -22015132.837 6 -16964297.569 8
  20080600.273   -12635551.268 6  -9644100.510 6
  20382253.844    -9404827.749 5  -7266824.621 5
  18154297.000   -29650119.983 7 -22880594.997 7
  21246196.141    -3672992.058 5  -2306819.292 5
  19624074.273   -17041901.432 6 -13102468.600 7
  18531201.688   -25017110.663 6 -19303330.792 9
  19846831.922   -25759788.122 6 -19871155.742 7
 94  1 27  4 45 29.9920000  0  8  9 24  2 13  5 12  4  7
  18943141.242   -22078538.355 6 -17013704.471 8
  20058998.773   -12749066.792 6  -9732554.142 7
  20390172.070    -9363228.870 5  -7234409.958 5
  18153466.500   -29654486.300 7 -22883997.317 7
  21226748.484    -3775158.831 5  -2386429.751 5
  19606363.734   -17134984.709 6 -13175001.024 8
  18519892.266   -25076539.770 7 -19349639.177 9
  19855911.000   -25712075.794 6 -19833977.310 7
 94  1 27  4 45 59.9920000  0  8  9 24  2 13  5 12  4  7
  18931172.844   -22141425.927 6 -17062707.776 8
  20037461.117   -12862258.514 6  -9820755.469 7
  20398139.555    -9321358.160 5  -7201783.462 5
  18152724.195   -29658385.161 7 -22887035.386 7
  21207318.039    -3877297.652 5  -2466018.440 5
  19588706.656   -17227748.814 6 -13247284.745 8
  18508688.508   -25135421.636 6 -19395521.139 9
  19865011.133   -25664255.759 6 -19796714.949 7
 94  1 27  4 46 29.9920000  0  8  9 24  2 13  5 12  4  7
  18919309.727   -22203775.275 6 -17111291.686 9
  20015981.242   -12975129.373 6  -9908706.766 7
  20406162.125    -9279212.609 5  -7168942.812 5
  18152074.063   -29661807.329 7 -22889702.009 7
  21187887.188    -3979398.460 5  -2545577.490 5
  19571120.266   -17320179.939 6 -13319308.990 8
  18497589.133   -25193738.103 7 -19440962.527 9
  19874135.508   -25616312.975 6 -19759356.932 7
 94  1 27  4 46 59.9920000  0  8  9 24  2 13  5 12  4  7
  18907550.484   -22265572.365 6 -17159445.265 9
  19994562.516   -13087681.937 6  -9996410.038 7
  20414228.899    -9236804.789 5  -7135897.802 5
  18151512.578   -29664749.983 7 -22891994.982 7
  21168460.500    -4081464.823 5  -2625109.707 5
  19553595.422   -17412270.680 6 -13391068.008 8
  18486602.125   -25251475.891 7 -19485952.991 9
  19883285.383   -25568226.040 6 -19721886.603 7
 94  1 27  4 47 29.9920000  0  8  9 24  2 13  5 12  4  7
  18895895.531   -22326811.272 6 -17207163.904 8
  19973203.852   -13199924.679 6 -10083871.894 7
  20422346.984    -9194152.165 5  -7102662.018 5
  18151043.023   -29667219.417 7 -22893919.214 7
  21149041.742    -4183516.321 5  -2704630.324 5
  19536134.930   -17504022.712 6 -13462563.100 7
  18475728.555   -25308634.440 7 -19530492.114 9
  19892464.492   -25519982.072 6 -19684293.902 7
 94  1 27  4 47 59.9920000  0  8  9 24  2 13  5 12  4  7
  18884347.656   -22387505.920 6 -17254458.442 9
  19951900.141   -13311875.520 6 -10171106.295 7
  20430507.844    -9151260.721 5  -7069240.134 5
  18150661.563   -29669227.900 7 -22895484.261 7
  21129621.227    -4285565.790 5  -2784149.413 5
  19518737.156   -17595444.094 6 -13533800.541 7
  18464959.555   -25365214.674 7 -19574580.597 9
  19901674.758   -25471591.715 6 -19646587.132 7
 94  1 27  4 48 29.9920000  0  8  9 24  2 13  5 12  4  7
  18872907.078   -22447629.466 6 -17301307.961 9
  19930656.039   -13423503.154 6 -10258088.855 7
  20438720.938    -9108101.914 5  -7035609.934 5
  18150371.578   -29670744.443 7 -22896665.975 7
  21110210.109    -4387589.622 5  -2863648.492 5
  19501409.359   -17686498.822 6 -13604752.278 7
  18454311.766   -25421170.855 7 -19618182.805 9
  19910915.383   -25423025.750 6 -19608743.535 7
 94  1 27  4 48 59.9920000  0  8  9 24  2 13  5 12  4  7
  18861571.148   -22507188.048 6 -17347717.243 9
  19909480.086   -13534796.844 6 -10344811.197 7
  20446987.242    -9064672.204 5  -7001768.624 5
  18150178.055   -29671777.061 7 -22897470.610 7
  21090798.922    -4489585.676 5  -2943125.924 5
  19484153.883   -17777190.617 6 -13675421.213 7
  18443778.430   -25476523.538 7 -19661314.749 9
  19920186.922   -25374304.915 6 -19570779.247 7
 94  1 27  4 49 29.9920000  0  8  9 24  2 13  5 12  4  7
  18850337.281   -22566208.798 6 -17393707.451 9
  19888361.039   -13645771.453 6 -10431284.901 7
  20455303.844    -9020968.692 5  -6967713.985 5
  18150069.945   -29672341.198 7 -22897910.190 7
  21071395.125    -4591557.518 5  -3022584.486 5
  19466962.344   -17867530.403 6 -13745815.849 7
  18433356.602   -25531292.553 7 -19703991.889 9
  19929478.008   -25325476.205 6 -19532730.909 7
 94  1 27  4 49 59.9920000  0  8  9 24  2 13  5 12  4  7
  18839203.313   -22624740.819 6 -17439316.823 8
  19867301.313   -13756447.574 6 -10517526.029 7
  20463666.578    -8977010.321 5  -6933460.740 5
  18150045.539   -29672467.086 7
  21051995.258    -4693524.296 5  -3102039.101 5
  19449831.898   -17957543.666 7 -13815956.055 7
  18423036.352   -25585521.600 7 -19746248.279 9
  19938781.383   -25276590.037 6 -19494637.796 7
 94  1 27  4 50 29.9920000  0  8  9 24  2 13  5 12  4  7
  18828157.398   -22682779.161 6 -17484541.514 8
  19846298.242   -13866814.110 6 -10603525.921 6
  20472079.125    -8932799.138 5  -6899010.500 5
  18150105.016   -29672154.968 7
  21032589.992    -4795487.924 5  -3181491.291 5
  19432767.625   -18047225.778 7 -13885838.215 7
  18412817.742   -25639217.348 7 -19788089.106 9
  19948095.039   -25227643.073 6 -19456497.317 7
 94  1 27  4 50 59.9920000  0  8  9 24  2 13  5 12  4  7
  18817209.313   -22740312.031 6 -17529372.327 9
  19825358.148   -13976851.307 6 -10689269.189 7
  20480543.633    -8888322.148 5  -6864353.122 5
  18150250.531   -29671397.747 7 -22897175.026 7
  21013191.656    -4897436.783 5  -3260931.970 5
  19415767.180   -18136565.369 7 -13955453.485 7
  18402702.570   -25692377.529 7 -19829512.615 9
  19957422.031   -25178633.004 6 -19418307.650 7
 94  1 27  4 51 29.9920000  0  8  9 24  2 13  5 12  4  7
  18806356.555   -22797343.972 6 -17573812.803 9
  19804485.242   -14086558.120 6 -10774755.002 7
  20489055.563    -8843596.684 5  -6829502.144 5
  18150476.719   -29670195.159 7 -22896237.947 7
  20993792.383    -4999368.780 5  -3340359.480 5
  19398833.156   -18225557.368 7 -14024797.905 7
  18392692.250   -25744981.574 7 -19870502.766 9
  19966758.078   -25129565.764 6 -19380073.443 7
 94  1 27  4 51 59.9920000  0  8  9 24  2 13  5 12  4  7
  18795599.555   -22853865.708 6 -17617855.717 9
  19783667.211   -14195939.802 6 -10859987.460 7
  20497605.625    -8798657.532 5  -6794484.659 5
  18150789.320   -29668560.063 7 -22894963.841 7
  20974398.781    -5101287.447 5  -3419776.606 5
  19381962.469   -18314210.096 7 -14093877.953 7
  18382790.516   -25797026.686 7 -19911057.388 9
  19976108.867   -25080430.309 6 -19341786.082 7
 94  1 27  4 52 29.9920000  0  8  9 24  2 13  5 12  4  7
  18784948.477   -22909837.660 6 -17661470.226 9
  19762920.086   -14304978.716 6 -10944952.837 7
  20506201.703    -8753496.183 5  -6759294.026 5
  18151183.297   -29666479.663 7 -22893342.747 7
  20955008.563    -5203177.648 5  -3499171.569 5
  19365159.242   -18402506.266 7 -14162680.161 8
  18373000.484   -25848477.467 7 -19951148.889 9
  19985476.445   -25031206.844 6 -19303430.145 7
 94  1 27  4 52 59.9920000  0  8  9 24  2 13  5 12  4  7
  18774399.313   -22965275.698 6 -17704668.708 9
  19742233.031   -14413677.830 6 -11029653.430 7
  20514839.125    -8708117.061 5  -6723933.718 5
  18151662.664   -29663961.424 7 -22891380.479 7
  20935624.953    -5305041.568 5  -3578546.052 5
  19348424.977   -18490448.410 7 -14231206.516 7
  18363322.750   -25899326.383 7 -19990771.419 9
  19994859.070   -24981906.354 6 -19265014.190 7
 94  1 27  4 53 59.9910000  0  8  9 24  2 13  5 12  4  7
  18753598.901   -23074576.773 6 -17789838.388 9
  19701046.378   -14630099.562 6 -11198293.705 7
  20532233.112    -8616706.733 5  -6652704.949 5
  18152863.222   -29657653.838 7 -22886465.472 7
  20896864.980    -5508740.345 5  -3737272.338 5
  19315153.120   -18665291.386 7 -14367447.808 8
  18344306.573   -25999252.799 7 -20068636.132 9
  20013673.026   -24883028.155 6 -19187966.256 7
 94  1 27  4 54 29.9910000  0  8  9 24  2 13  5 12  4  7
  18743358.136   -23128405.582 6 -17831782.918 9
  19680554.159   -14737810.210 6 -11282224.067 7
  20541002.284    -8570611.420 5  -6616786.541 5
  18153588.503   -29653849.032 7 -22883500.678 7
  20877481.855    -5610585.561 5  -3816632.239 5
  19298620.901   -18752170.584 7 -14435145.888 8
  18334966.456   -26048339.639 7 -20106885.607 9
  20023116.472   -24833412.161 6 -19149304.445 7
 94  1 27  4 54 59.9910000  0  8  9 24  2 13  5 12  4  7
  18733215.987   -23181696.482 6 -17873308.294 9
  19660117.151   -14845192.975 6 -11365898.935 7
  20549823.933    -8524264.460 5  -6580672.062 5
  18154393.964   -29649621.509 7 -22880206.508 7
  20858099.315    -5712438.826 5  -3895998.413 5
  19282157.378   -18838692.212 7 -14502565.341 8
  18325732.073   -26096861.466 7 -20144694.813 9
  20032580.886   -24783673.523 6 -19110547.070 7
 94  1 27  4 55 29.9910000  0  8  9 24  2 13  5 12  4  7
  18723183.753   -23234425.403 6 -17914395.763 9
  19639746.581   -14952245.839 6 -11449316.742 7
  20558689.940    -8477667.776 5  -6544362.992 5
  18155277.667   -29644969.802 7 -22876581.794 7
  20838718.042    -5814290.414 5  -3975363.286 5
  19265759.683   -18924850.240 7 -14569701.474 8
  18316604.362   -26144824.141 7 -20182068.322 9
  20042071.526   -24733809.507 6 -19071692.002 7
 94  1 27  4 55 59.9910000  0  8  9 24  2 13  5 12  4  7
  18713261.831   -23286569.846 6 -17955027.795 9
  19619442.081   -15058957.825 6 -11532468.922 7
  20567604.362    -8430827.237 5  -6507863.896 5
  18156243.690   -29639889.804 7 -22872623.356 7
  20819337.378    -5916124.974 5  -4054714.889 6
  19249435.909   -19010635.782 7 -14636547.349 8
  18307585.886   -26192216.921 7 -20218997.748 9
  20051580.628   -24683833.798 6 -19032749.898 7
 94  1 27  4 56 29.9910000  0  8  9 24  2 13  5 12  4  7
  18703444.456   -23338159.161 6 -17995227.263 9
  19599199.589   -15165326.978 6 -11615353.971 7
  20576562.198    -8383751.772 5  -6471181.753 5
  18157291.206   -29634390.108 7 -22868337.877 7
  20799966.464    -6017938.329 5  -4134049.961 6
  19233180.394   -19096052.823 7 -14703106.085 8
  18298676.519   -26239034.962 7 -20255479.331 9
  20061106.120   -24633770.386 6 -18993739.449 6
 94  1 27  4 56 59.9910000  0  8  9 24  2 13  5 12  4  7
  18693730.980   -23389198.415 6 -18034998.111 9
  19579026.862   -15271334.771 6 -11697957.440 7
  20585565.245    -8336439.548 5  -6434315.139 5
  18158417.769   -29628468.590 7 -22863723.704 7
  20780600.183    -6119704.559 5  -4213348.303 6
  19216998.034   -19181094.396 7 -14769372.247 8
  18289877.167   -26285278.396 7 -20291513.165 9
  20070647.636   -24583635.111 6 -18954673.011 6
 94  1 27  4 57 29.9910000  0  8  9 24  2 13  5 12  4  7
  18684122.253   -23439683.502 6 -18074337.144 9
  19558923.651   -15376970.282 6 -11780270.811 7
  20594620.011    -8288864.039 5  -6397243.346 5
  18159627.612   -29622114.919 7 -22858772.795 7
  20761245.636    -6221407.840 5  -4292597.606 6
  19200892.480   -19265745.547 7 -14835334.185 8
  18281187.722   -26330935.791 7 -20327090.344 9
  20080198.597   -24533437.820 6 -18915558.246 6
 94  1 27  4 57 59.9910000  0  8  9 24  2 13  5 12  4  7
  18674615.534   -23489634.052 6 -18113259.648 9
  19538893.198   -15482235.352 6 -11862295.526 7
  20603719.691    -8241028.092 5  -6359968.643 5
  18160914.292   -29615343.390 7 -22853496.271 7
  20741902.980    -6323065.851 5  -4371811.646 5
  19184853.628   -19350016.002 7 -14900999.475 8
  18272610.769   -26376021.292 7 -20362221.892 9
  20089758.706   -24483198.795 6 -18876410.961 6
 94  1 27  4 58 29.9910000  0  8  9 24  2 13  5 12  4  7
  18665212.472   -23539060.878 6 -18151774.059 9
  19518933.519   -15587125.799 6 -11944028.333 7
  20612875.823    -8192924.938 5  -6322485.711 5
  18162281.425   -29608157.499 7 -22847896.875 7
  20722563.753    -6424678.512 5  -4450990.340 5
  19168891.784   -19433904.198 7 -14966366.900 8
  18264136.612   -26420543.058 7 -20396914.167 9
  20099326.026   -24432917.309 6 -18837230.580 6
 94  1 27  4 58 59.9910000  0  8  9 24  2 13  5 12  4  7
  18655911.503   -23587937.042 6 -18189859.391 9
  19499043.581   -15691641.703 6 -12025469.286 7
  20622075.105    -8144563.301 5  -6284801.339 5
  18163727.894   -29600556.876 7 -22841974.311 7
  20703239.636    -6526244.065 5  -4530132.315 6
  19153002.245   -19517405.208 7 -15031432.628 8
  18255772.995   -26464497.429 7 -20431164.318 9
  20108904.839   -24382580.521 6 -18798007.117 6
 94  1 27  4 59 29.9910000  0  8  9 24  2 13  5 12  4  7
  18646719.355   -23636253.714 6 -18227508.749 9
  19479228.667   -15795786.289 6 -12106620.902 7
  20631329.995    -8095946.672 5  -6246918.290 5
  18165254.065   -29592544.239 7 -22835730.698 7
  20683914.706    -6627780.805 5  -4609251.854 5
  19137183.948   -19600517.107 7 -15096195.141 8
  18247517.120   -26507870.675 7 -20464961.639 9
  20118496.964   -24332173.145 6 -18758728.644 6
 94  1 27  4 59 59.9910000  0  8  9 24  2 13  5 12  4  7
  18637629.487   -23684011.504 6 -18264722.614 9
  19459478.276   -15899568.976 6 -12187490.521 7
  20640625.230    -8047096.319 5  -6208853.151 5
  18166855.558   -29584131.204 7 -22829175.085 6
  20664595.878    -6729310.080 5  -4688365.579 5
  19121442.058   -19683246.726 7 -15160659.766 8
  18239373.706   -26550676.902 7 -20498317.128 9
  20128105.933   -24281694.268 6 -18719394.454 6
 94  1 27  5  0 29.9910000  0  8  9 24  2 13  5 12  4  7
  18628646.651   -23731198.495 6 -18301491.705 9
  19439794.659   -16002995.229 6 -12268082.387 7
  20649966.144    -7998008.799 5  -6170603.174 5
  18168534.503   -29575309.395 7 -22822300.949 7
  20645278.347    -6830826.646 5  -4767469.391 5
  19105776.011   -19765581.160 7 -15224816.468 8
  18231342.769   -26592892.219 7 -20531212.173 9
  20137726.847   -24231119.786 6 -18679985.778 6
 94  1 27  5  0 59.9910000  0  8  9 24  2 13  5 12  4  7
  18619776.714   -23777817.396 6 -18337818.134 9
  19420183.073   -16106070.382 6 -12348400.676 7
  20659351.394    -7948690.098 5  -6132173.071 5
  18170288.417   -29566081.368 7 -22815110.271 7
  20625958.128    -6932344.690 5  -4846574.353 6
  19090183.292   -19847517.845 6 -15288663.244 8
  18223422.292   -26634510.787 7 -20563642.211 9
  20147369.730   -24180446.768 6 -18640500.321 6
 94  1 27  5  1 29.9910000  0  8  9 24  2 13  5 12  4  7
  18611009.761   -23823899.396 6 -18373726.192 9
  19400633.698   -16208799.000 6 -12428448.937 7
  20668782.511    -7899142.349 5  -6093564.479 5
  18172120.448   -29556453.199 7 -22807607.802 7
  20606640.167    -7033863.494 5  -4925679.914 6
  19074668.620   -19929058.364 7 -15352201.303 8
  18215612.198   -26675540.859 7 -20595613.687 9
  20157030.269   -24129685.784 6 -18600946.305 6
 94  1 27  5  1 59.9910000  0  8  9 24  2 13  5 12  4  7
  18602340.972   -23869441.158 6 -18409213.289 9
  19381148.878   -16311186.995 6 -12508231.769 7
  20678252.964    -7849360.097 5  -6054773.191 5
  18174029.495   -29546423.633 7 -22799792.556 7
  20587323.964    -7135368.967 5  -5004775.080 6
  19059227.097   -20010196.767 7 -15415426.025 8
  18207916.433   -26715985.665 7 -20627129.118 9
  20166705.925   -24078837.923 6 -18561324.607 6
 94  1 27  5  2 29.9910000  0  8  9 24  2 13  5 12  4  7
  18593779.886   -23914445.105 7 -18444281.298 9
  19361731.448   -16413220.545 6 -12587738.411 8
  20687771.276    -7799329.872 5  -6015788.653 5
  18176015.230   -29535992.611 7 -22791664.480 7
  20568015.261    -7236841.991 5  -5083844.970 6
  19043864.300   -20090928.179 7 -15478333.620 8
  18200334.378   -26755835.650 7 -20658181.046 9
  20176399.370   -24027902.924 6 -18521635.006 6
 94  1 27  5  2 59.9910000  0  8  9 24  2 13  5 12  4  7
  18585318.870   -23958912.529 6 -18478931.253 9
  19342388.628   -16514878.012 6
  20697345.011    -7749047.852 5  -5976607.899 5
  18178075.105   -29525162.845 7 -22783225.697 7
  20548716.644    -7338255.050 5
  19028578.316   -20171250.386 7 -15540922.357 8
  18192858.245   -26795103.722 7 -20688779.531 9
  20186111.105   -23976891.252 6 -18481885.658 6
 94  1 27  5  3 29.9910000  0  8  9 24  2 13  5 12  4  7
  18576956.644   -24002835.311 6 -18513156.798 9
  19323115.190   -16616158.321 6 -12745871.724 8
  20706955.933    -7698512.963 5  -5937230.121 5
  18180209.261   -29513942.436 7 -22774482.516 7
  20529430.331    -7439602.883 5  -5241840.463 6
  19013372.433   -20251167.069 7 -15603195.099 8
  18185498.612   -26833797.924 7 -20718930.852 9
  20195824.487   -23925811.252 6 -18442083.059 6
 94  1 27  5  3 59.9910000  0  8  9 24  2 13  5 12  4  7
  18568712.315   -24046181.225 6 -18546932.840 9
  19303917.136   -16717042.521 6 -12824482.784 8
  20716626.394    -7647715.723 5  -5897647.913 5
  18182420.573   -29502329.573 7 -22765433.538 7
  20510157.831    -7540888.938 5  -5320764.673 6
  18998241.245   -20330671.641 7 -15665146.716 8
  18178244.940   -26871903.988 7 -20748623.881 9
  20205558.534   -23874665.201 6 -18402229.006 6
 94  1 27  5  4 29.9910000  0  8  9 24  2 13  5 12  4  7
  18560568.995   -24088955.738 6 -18580263.639 9
  19284799.659   -16817518.174 6 -12902775.487 8
  20726342.011    -7596664.531 5
  18184703.269   -29490334.387 7 -22756086.643 7
  20490894.284    -7642115.689 5  -5399642.667 6
  18983190.737   -20409769.390 7 -15726781.332 8
  18171105.144   -26909421.535 7 -20777858.328 9
  20215306.519   -23823459.263 6
 94  1 27  5  4 59.9910000  0  8  9 24  2 13  5 12  4  7
  18552541.597   -24131148.039 6 -18613140.763 9
  19265757.667   -16917580.539 6 -12980746.149 8
  20736101.925    -7545363.920 5
  18187058.526   -29477952.843 7 -22746438.684 7
  20471640.487    -7743290.740 5  -5478480.374 6
  18968218.198   -20488451.590 7 -15788092.140 8
  18164081.097   -26946344.315 7 -20806629.311 9
  20225058.722   -23772196.872 6
 94  1 27  5  5 29.9910000  0  8  9 24  2 13  5 12  4  7
  18544625.495   -24172755.690 6 -18645562.324 9
  19246794.136   -17017232.122 6 -13058396.729 8
  20745909.542    -7493822.873 5        -0.04315
  18189488.253   -29465191.056 7 -22736494.430 7
  20452394.972    -7844442.762 6  -5557300.119 6
  18953322.425   -20566719.422 7 -15849080.067 8
  18157166.573   -26982671.396 7 -20834936.121 9
  20234821.495   -23720885.306 6 -18282400.545 6
 94  1 27  5  5 59.9910000  0  8  9 24  2 13  5 12  4  7
  18536816.745   -24213779.632 6 -18677529.046 9
  19227911.433   -17116462.648 6 -13135719.213 8
  20755761.034    -7442048.766 5     40343.362 5
  18191989.097   -29452051.432 7 -22726255.763 7
  20433152.761    -7945558.032 5  -5636091.235 6
  18938508.644   -20644570.894 7 -15909743.555 8
  18150367.347   -27018407.307 7 -20862782.280 9
  20244594.581   -23669527.831 6 -18242381.739 6
 94  1 27  5  6 29.9910000  0  8  9 24  2 13  5 12  4  7
  18529121.417   -24254230.560 6 -18709049.260 9
  19209106.495   -17215276.962 6 -13212717.367 8
  20765655.651    -7390049.022 5     80862.596 5
  18194559.769   -29438535.705 7 -22715724.022 7
  20413918.855    -8046629.664 6  -5714848.345 6
  18923773.964   -20722003.018 7 -15970080.281 8
  18143674.534   -27053571.072 7 -20890182.609 9
  20254380.308   -23618115.785 6 -18202320.405 6
 94  1 27  5  6 59.9910000  0  8  9 24  2 13  5 12  4  7
  18521529.558   -24294112.455 6 -18740126.070 9
  19190380.261   -17313678.125 6 -13289393.589 7
  20775600.112    -7337822.475 5    121558.543 5
  18197204.120   -29424643.853 7 -22704899.204 7
  20394695.589    -8147656.228 6  -5793570.352 6
  18909120.667   -20799010.905 7 -16030086.433 8
  18137092.355   -27088174.420 7 -20917146.249 9
  20264174.409   -23566650.400 6 -18162217.510 6
 94  1 27  5  7 29.9910000  0  8  9 24  2 13  5 12  4  7
  18514051.112   -24333418.407 6 -18770754.084 9
  19171736.722   -17411657.537 6 -13365741.171 7
  20785577.487    -7285357.603 5    162440.211 5
  18199920.448   -29410371.232 7 -22693777.683 7
  20375481.964    -8248615.350 6  -5872239.790 6
  18894548.878   -20875585.181 7 -16089754.708 8
  18130614.878   -27122203.486 7 -20943662.389 9
  20273979.487   -23515118.730 6 -18122062.968 6
 94  1 27  5  7 59.9910000  0  8  9 24  2 13  5 12  4  7
  18506676.542   -24372164.982 6 -18800946.222 9
  19153168.198   -17509233.322 6 -13441774.250 7
  20795606.550    -7232658.237 5    203504.607 5
  18202706.823   -29395727.264 7 -22682366.793 7
  20356282.011    -8349514.031 6  -5950862.136 6
  18880058.706   -20951730.650 7 -16149088.843 8
  18124248.917   -27155658.349 7 -20969731.100 9
  20283797.847   -23463522.300 6 -18081857.972 6
 94  1 27  5  8 29.9910000  0  8  9 24  2 13  5 12  4  7
  18499409.519   -24410361.911 7 -18830710.065 9
  19134672.706   -17606428.600 6 -13517510.826 7
  20805680.808    -7179731.294 5    244746.318 5
  18205563.503   -29380718.257 7 -22670671.463 7
  20337088.401    -8450380.055 6  -6029459.028 6
  18865649.753   -21027448.817 7 -16208090.009 8
  18117992.144   -27188535.950 7 -20995350.001 9
  20293628.026   -23411866.683 6 -18041606.844 6
 94  1 27  5  8 59.9910000  0  8  9 24  2 13  5 12  4  7
  18492246.948   -24447997.726 6 -18860036.678 9
  19116250.159   -17703235.962 6 -13592945.122 7
  20815799.808    -7126574.773 5    286166.932 5
  18208488.972   -29365338.978 7 -22658687.613 7
  20317901.183    -8551209.970 6  -6108027.791 6
  18851324.394   -21102729.842 7 -16266750.552 8
  18111853.245   -27220800.502 7 -21020491.199 9
  20303467.792   -23360148.518 6 -18001306.983 6
 94  1 27  5  9 29.9910000  0  8  9 24  2 13  5 12  4  7
  18485194.956   -24485061.776 7 -18888917.763 9
  19097902.112   -17799656.427 6 -13668077.944 7
  20825951.605    -7073193.587 5    327762.620 4
  18211485.276   -29349594.028 7 -22646418.816 7
  20298717.519    -8652015.519 6  -6186577.566 6
  18837082.253   -21177573.460 7 -16325070.260 8
  18105830.183   -27252448.022 7 -21045151.596 9
  20313323.237   -23308368.095 6 -17960958.604 6
 94  1 27  5  9 59.9910000  0  8  9 24  2 13  5 12  4  7
  18478249.909   -24521548.737 6 -18917349.163 9
  19079625.292   -17895701.003 6 -13742917.863 8
  20836154.612    -7019590.836 5    369530.943 5
  18214551.370   -29333487.568 7 -22633868.328 7
  20279540.644    -8752801.874 6  -6265112.381 6
  18822923.722   -21251979.238 7 -16383048.791 8
  18099921.183   -27283497.635 7 -21069346.087 9
  20323189.112   -23256518.092 6 -17920556.018 6
 94  1 27  5 10 29.9910000  0  8  9 24  2 13  5 12  4  7
  18471417.847   -24557456.777 6 -18945329.455 9
  19061421.050   -17991366.373 6 -13817462.301 8
  20846396.245    -6965767.166 5    411471.418 4
  18217683.472   -29317026.614 7 -22621041.604 7
  20260367.128    -8853549.662 6  -6343617.141 6
  18808846.972   -21325949.371 7 -16440687.865 8
  18094126.073   -27313956.348 7 -21093080.148 9
  20333067.886   -23204608.228 6 -17880106.779 6
 94  1 27  5 10 59.9910000  0  8  9 24  2 13  5 12  4  7
  18464695.519   -24592781.175 6 -18972854.963 9
  19043292.909   -18086630.853 6 -13891694.353 8
  20856686.675    -6911702.722 5    453599.514 4
  18220881.300   -29300212.118 7 -22607939.397 7
  20241204.128    -8954242.375 6  -6422078.993 6
  18794855.120   -21399480.211 7 -16497984.620 8
  18088444.706   -27343815.852 7 -21116347.293 9
  20342956.511   -23152639.316 6 -17839611.528 6
 94  1 27  5 11 29.9910000  0  8  9 24  2 13  5 12  4  7
  18458086.167   -24627528.240 6 -18999930.605 9
  19025240.292   -18181496.626 6 -13965615.723 8
  20867018.769    -6857386.933 5    495923.480 4
  18224147.948   -29283051.263 7 -22594567.300 7
  20222050.940    -9054882.216 6  -6500499.644 6
  18780946.589   -21472574.531 7 -16554941.231 9
  18082870.714   -27373095.859 7 -21139162.876 9
  20352855.730   -23100618.632 6 -17799075.937 6
 94  1 27  5 11 59.9910000  0  8  9 24  2 13  5 12  4  7
  18451580.425   -24661704.362 6 -19026561.361 9
  19007266.839   -18275949.274 6 -14039215.180 8
  20877405.550    -6802813.465 4    538448.211 4
  18227479.698   -29265541.633 7 -22580923.438 7
  20202913.894    -9155453.996 6  -6578867.254 6
  18767120.128   -21545225.297 7 -16611552.209 9
  18077414.964   -27401779.880 7 -21161514.047 9
  20362764.636   -23048552.631 6 -17758505.037 6
 94  1 27  5 12 29.9910000  0  8  9 24  2 13  5 12  4  7
  18445186.183   -24695312.271 6 -19052749.349 9
  18989378.909   -18369961.444 6 -14112471.415 8
  20887833.128    -6747985.692 4    581171.101 5
  18230877.855   -29247685.918 7 -22567009.889 7
  20183787.144    -9255966.239 6  -6657188.472 6
  18753379.761   -21617429.877 7 -16667815.529 9
  18072070.120   -27429856.884 7 -21183392.222 9
  20372677.136   -22996461.653 6 -17717914.673 6
 94  1 27  5 12 59.9910000  0  8  9 24  2 13  5 12  4  7
  18438898.675   -24728345.813 6 -19078489.779 9
  18971573.566   -18463525.308 6 -14185378.319 8
  20898317.167    -6692905.265 4    624090.880 3
  18234341.745   -29229479.104 7 -22552822.760 7
  20164669.925    -9356433.739 6  -6735474.831 6
  18739725.917   -21689178.876 7 -16723723.834 9
  18066842.597   -27457330.215 7 -21204800.007 9
  20382599.558   -22944329.259 6 -17677292.029 6
 94  1 27  5 13 29.9910000  0  8  9 24  2 13  5 12  4  7
  18432719.487   -24760811.443 7 -19103787.684 9
  18953852.784   -18556641.523 6 -14257936.401 8
  20908843.917    -6637586.123 4    667196.652 4
  18237873.550   -29210920.121 7 -22538361.216 7
  20145562.901    -9456850.348 6  -6813721.532 6
  18726161.706   -21760466.655 7 -16779272.751 9
  18061725.542   -27484215.391 7 -21225749.490 9
  20392525.237   -22892151.568 6 -17636634.089 6
 94  1 27  5 13 59.9910000  0  8  9 24  2 13  5 12  4  7
  18426649.300   -24792723.848 6 -19128654.502 9
  18936216.519   -18649323.428 6 -14330156.057 8
  20919414.542    -6582045.088 4    710475.315 5
  18241470.230   -29192023.353 7 -22523636.459 7
  20126462.581    -9557218.647 6  -6891930.579 6
  18712682.237   -21831303.052 7 -16834469.939 9
  18056717.761   -27510528.578 7 -21246253.262 9
  20402462.276   -22839944.373 6 -17595953.166 6
 94  1 27  5 14 29.9910000  0  8  9 24  2 13  5 12  4  7
  18420679.956   -24824081.479 6 -19153089.044 9
  18918660.144   -18741583.383 6 -14402046.926 8
  20930027.706    -6526281.584 4    753927.374 4
  18245128.761   -29172790.580 7 -22508649.883 7
  20107373.425    -9657536.331 6  -6970100.193 6
  18699288.565   -21901685.042 7 -16889313.053 9
  18051819.073   -27536286.520 7 -21266324.371 9
  20412401.917   -22787697.001 6 -17555240.928 6
 94  1 27  5 14 59.9910000  0  8  9 24  2 13  5 12  4  7
  18414818.831   -24854885.375 6 -19177092.092 9
  18901185.315   -18833426.328 6 -14473612.862 8
  20940684.651    -6470278.510 4    797566.101 4
  18248854.534   -29153215.914 7 -22493396.898 7
  20088295.261    -9757787.878 6  -7048218.276 6
  18685982.792   -21971602.325 7 -16943794.056 9
  18047022.925   -27561480.380 7 -21285955.940 9
  20422356.011   -22735394.738 6 -17514485.926 6
 94  1 27  5 15 29.9910000  0  8  9 24  2 13  5 12  4  7
  18409065.526   -24885128.339 6 -19200658.047 9
  18883786.198   -18924843.796 6 -14544847.221 8
  20951391.472    -6414032.684 4    841393.969 5
  18252644.206   -29133302.160 7 -22477879.686 7
  20069235.933    -9857948.946 6  -7126265.855 6
  18672767.269   -22041053.079 7 -16997911.523 9
  18042335.956   -27586105.914 7 -21305144.660 9
  20432314.128   -22683055.259 6 -17473701.930 6
 94  1 27  5 15 59.9910000  0  8  9 24  2 13  5 12  4  7
  18403418.269   -24914788.863 6 -19223770.149 9
  18866469.284   -19015832.663 6 -14615747.639 8
  20962140.456    -6357544.490 4    885410.706 4
  18256497.784   -29113049.202 7 -22462098.157 7
  20050193.097    -9958019.405 6  -7204242.829 6
  18659643.237   -22110032.362 7 -17051661.614 9
  18037762.870   -27610151.783 7 -21323881.692 9
  20442280.612   -22630671.090 6 -17432883.101 6
 94  1 27  5 16 29.9910000  0  8  9 24  2 13  5 12  4  7
  18397887.753   -24943866.521 6 -19246428.068 9
  18849239.300   -19106388.483 6 -14686310.598 8
  20972930.558    -6300818.737 4    929612.547 4
  18260414.651   -29092463.586 7 -22446057.422 7
  20031165.675   -10058006.568 6  -7282154.894 6
  18646604.519   -22178542.171 7 -17105045.882 9
  18033294.636   -27633617.630 7 -21342166.760 9
  20452262.401   -22578240.819 6 -17392028.343 6
 94  1 27  5 16 59.9910000  0  8  9 24  2 13  5 12  4  7
  18392465.862   -24972349.772 6 -19268622.829 9
  18832094.495   -19196500.914 6 -14756528.057 8
  20983773.862    -6243861.253 4    973994.942 4
  18264395.964   -29071547.572 7 -22429759.231 7
  20012157.386   -10157899.518 6  -7359993.545 7
  18633656.550   -22246580.326 7 -17158062.630 9
  18028943.300   -27656493.591 7 -21359992.176 9
  20462243.862   -22525772.974 6 -17351144.321 6
 94  1 27  5 17 29.9910000  0  8  9 24  2 13  5 12  4  7
  18387159.198   -25000229.226 6 -19290347.091 9
  18815025.925   -19286178.830 6 -14826406.948 8
  20994648.862    -6186692.791 4   1018541.720 3
  18268437.409   -29050306.697 7 -22413207.894 7
  19993167.144   -10257697.678 6  -7437758.334 6
  18620800.308   -22314147.748 7 -17210712.568 9
  18024701.222   -27678783.568 7 -21377360.987 9
  20472239.644   -22473264.348 6 -17310228.513 6
 94  1 27  5 17 59.9910000  0  8  9 24  2 13  5 12  4  7
  18381970.003   -25027513.650 6 -19311607.691 9
  18798044.589   -19375421.766 6 -14895946.870 8
  21005568.589    -6129313.913 4   1063252.480 2
  18272540.362   -29028740.009 7 -22396402.685 7
  19974190.847   -10357404.903 6  -7515452.269 6
  18608032.370   -22381238.737 7 -17262991.268 8
  18020571.612   -27700476.654 7 -21394264.686 9
  20482241.886   -22420697.898 5 -17269267.647 5
 94  1 27  5 18 29.9910000  0  8  9 24  2 13  5 12  4  7
  18376885.487   -25054226.014 6 -19332422.525 9
  18781143.815   -19464231.694 6 -14965149.390 8
  21016526.980    -6071712.789 4   1108136.418 2
  18276706.636   -29006852.822 7 -22379347.735 7
  19955235.753   -10457027.388 6  -7593080.190 7
  18595356.167   -22447854.174 7 -17314899.405 8
  18016560.097   -27721571.907 7 -21410702.540 9
  20492250.331   -22368085.368 5 -17228270.876 6
 94  1 27  5 18 59.9910000  0  8  9 24  2 13  5 12  4  7
  18371911.823   -25080358.468 6 -19352785.498 9
  18764326.862   -19552608.099 6 -15034014.109 8
  21027533.394    -6013893.881 4   1153190.071 2
  18280932.722   -28984644.255 7 -22362042.362 7
  19936293.206   -10556566.803 6  -7670643.358 6
  18582772.816   -22513988.702 7 -17366432.806 8
  18012662.144   -27742057.773 7 -21426665.540 9
  20502269.456   -22315427.368 5 -17187238.678 6
 94  1 27  5 19 29.9910000  0  8  9 24  2 13  5 12  4  7
  18367050.800   -25105922.536 6 -19372705.565 9
  18747592.831   -19640548.945 6 -15102539.427 8
  21038579.980    -5955848.382 4   1198420.275 4
  18285219.542   -28962118.806 7 -22344490.058 7
  19917360.292   -10656043.281 6  -7748157.489 7
  18570278.120   -22579642.264 7 -17417591.427 8
  18008876.980   -27761939.582 7 -21442157.857 9
  20512298.808   -22262728.271 5 -17146174.447 6
 94  1 27  5 19 59.9910000  0  8  9 24  2 13  5 12  4  7
  18362291.784   -25130917.483 6 -19392182.137 9
  18730943.745   -19728032.732 6 -15170708.613 8
  21049668.730    -5897555.785 3   1243843.023 1
  18289566.417   -28939274.174 7 -22326689.041 7
  19898443.245   -10755464.823 6  -7825628.819 7
  18557877.456   -22644807.847 7 -17468369.811 8
  18005207.831   -27781219.997 7 -21457181.550 9
  20522334.808   -22209993.828 5 -17105082.685 5
 94  1 27  5 20 29.9910000  0  8  9 24  2 13  5 12  4  7
  18357643.417   -25155337.024 6 -19411210.343 9
  18714385.706   -19815055.567 6 -15238518.602 8
  21060808.909    -5839018.148 3   1289456.680 2
  18293973.065   -28916118.390 7 -22308645.580 7
  19879530.495   -10854849.846 6  -7903071.687 7
  18545569.519   -22709489.505 7 -17518771.109 8
  18001652.894   -27799913.003 7 -21471747.522 9
  20532377.136   -22157232.035 5 -17063969.619 6
 94  1 27  5 20 59.9910000  0  8  9 24  2 13  5 12  4  7
  18353110.589   -25179164.417 6 -19429777.154 9
  18697913.464   -19901610.845 6 -15305964.259 8
  21071997.886    -5780255.350 4   1335245.829 2
  18298439.042   -28892653.106 7 -22290360.938 7
  19860626.706   -10954190.983 6  -7980480.361 7
  18533352.495   -22773683.976 7 -17568792.779 8
  17998203.651   -27818025.244 7 -21485860.957 9
  20542424.292   -22104431.283 5 -17022826.180 6
 94  1 27  5 21 29.9910000  0  8  9 24  2 13  5 12  4  7
  18348689.784   -25202408.623 6 -19447889.537 9
  18681536.558   -19987676.687 6 -15373028.541 8
  21083228.769    -5721246.345 4   1381226.827 2
  18302964.292   -28868868.826 7 -22271827.733 7
  19841733.026   -11053475.621 6  -8057845.019 7
  18521232.144   -22837377.313 7 -17618423.954 8
  17994866.909   -27835559.143 7 -21499523.726 9
  20552481.495   -22051575.112 5 -16981639.547 6
 94  1 27  5 21 59.9910000  0  8  9 24  2 13  5 12  4  7
  18344371.331   -25225087.851 6 -19465561.690 9
  18665247.980   -20073271.647 6 -15439725.898 8
  21094493.019    -5662010.945 3   1427384.221 2
  18307548.144   -28844784.279 7 -22253060.549 7
  19822849.894   -11152711.104 6  -8135171.374 7
  18509204.612   -22900583.898 7 -17667675.840 8
  17991638.964   -27852530.291 7 -21512747.994 9
  20562548.589   -21998670.835 5 -16940415.443 6
 94  1 27  5 22 29.9910000  0  8  9 24  2 13  5 12  4  7
  18340164.761   -25247193.614 6 -19482786.970 9
  18649047.612   -20158401.798 6 -15506061.072 8
  21105804.440    -5602550.126 3   1473717.280 2
  18312188.206   -28820396.534 7 -22234057.104 7
  19803980.198   -11251872.466 6  -8212439.960 7
  18497270.737   -22963296.176 7 -17716542.559 8
  17988519.151   -27868923.325 7 -21525521.782 9
  20572628.214   -21945714.956 5 -16899151.135 6
 94  1 27  5 22 59.9910000  0  8  9 24  2 13  5 12  4  7
  18336070.784   -25268723.014 6 -19499563.136 9
  18632938.331   -20243071.189 6 -15572037.218 8
  21117166.948    -5542852.566 3   1520234.800 1
  18316887.284   -28795700.440 7 -22214813.395 7
  19785130.706   -11350934.048 6  -8289630.804 7
  18485430.550   -23025504.756 7 -17765016.780 8
  17985511.808   -27884726.992 7 -21537836.318 9
  20582710.198   -21892715.776 5 -16857853.081 5
 94  1 27  5 23 29.9910000  0  8  9 24  2 13  5 12  4  7
  18332078.831   -25289687.374 6 -19515899.025 9
  18616908.808   -20327289.136 6 -15637661.586 8
  21128572.987    -5482905.620 3   1566946.683 2
  18321642.839   -28770707.555 7 -22195338.413 7
  19766297.464   -11449896.692 6  -8366744.542 7
  18473691.034   -23087216.703 7 -17813104.017 8
  17982617.362   -27899940.408 7 -21549690.922 9
  20592803.316   -21839701.457 5 -16816543.239 6
 94  1 27  5 23 59.9910000  0  8  9 24  2 13  5 12  4  7
  18328202.011   -25310056.426 6 -19531771.020 9
  18600969.964   -20411052.676 6 -15702931.859 8
  21140033.269    -5422711.464 3   1613851.190 4
  18326456.081   -28745417.267 7 -22175631.693 7
  19747491.886   -11548733.038 6  -8443759.868 7
  18462040.136   -23148426.912 7 -17860800.289 8
  17979836.675   -27914554.719 7 -21561078.693 9
  20602888.323   -21786679.335 5 -16775227.312 6
 94  1 27  5 24 29.9910000  0  8  9 24  2 13  5 12  4  7
  18324440.667   -25329826.472 6 -19547176.254 9
  18585118.136   -20494360.918 6 -15767847.361 8
  21151526.089    -5362278.237 3   1660941.953 3
  18331324.808   -28719832.223 7 -22155695.294 7
  19728709.183   -11647431.552 6  -8520667.804 7
  18450490.136   -23209133.897 7 -17908104.435 8
  17977166.386   -27928575.476 7 -21572003.956 9
  20612976.956   -21733662.316 5 -16733915.369 6
 94  1 27  5 24 59.9910000  0  8  9 24  2 13  5 12  4  7
  18320793.972   -25348999.850 6 -19562116.531 9
  18569352.776   -20577198.275 6 -15832395.945 8
  21163071.362    -5301608.198 3   1708217.260 3
  18336249.956   -28693951.940 7 -22135528.831 7
  19709952.401   -11745993.518 6  -8597469.347 6
  18439035.495   -23269332.656 7 -17955012.562 8
  17974610.058   -27942006.593 7 -21582469.754 9
  20623066.214   -21680645.969 5 -16692603.940 6
 94  1 27  5 25 29.9910000  0  8  9 24  2 13  5 12  4  7
  18317257.792   -25367579.548 6 -19576594.217 9
  18553683.206   -20659554.577 6 -15896569.673 8
  21174666.112    -5240717.881 3   1755664.219 2
  18341230.198   -28667782.474 7 -22115137.040 7
  19691217.597   -11844431.067 6  -8674173.917 7
  18427674.925   -23329024.873 7 -18001525.971 8
  17972166.073   -27954857.662 7 -21592483.567 9
  20633156.745   -21627620.871 5 -16651285.687 5
 94  1 27  5 25 59.9910000  0  8  9 24  2 13  5 12  4  7
  18313831.276   -25385574.042 6 -19590615.915 9
  18538101.081   -20741437.057 6 -15960374.193 8
  21186285.730    -5179627.578 3   1803266.994 2
  18346264.097   -28641327.196 7 -22094522.534 7
  19672509.956   -11942755.800 6  -8750790.590 7
  18416411.761   -23388209.499 7 -18047643.866 8
  17969829.995   -27967143.471 7 -21602056.931 9
  20643252.081   -21574570.173 5 -16609947.494 6
 94  1 27  5 26 29.9910000  0  8  9 24  2 13  5 12  4  7
  18310516.925   -25403000.667 6 -19604195.126 9
  18522604.495   -20822861.002 6 -16023821.408 9
  21197950.956    -5118333.448 3   1851028.615 2
  18351351.605   -28614590.496 7 -22073688.741 7
  19653814.370   -12041001.814 6  -8827345.910 7
  18405247.589   -23446886.655 7 -18093366.329 8
  17967597.089   -27978862.198 7 -21611188.392 9
  20653355.972   -21521490.313 5 -16568586.573 5
 94  1 27  5 26 59.9910000  0  8  9 24  2 13  5 12  4  7
  18307308.323   -25419862.904 6 -19617334.556 9
  18507200.128   -20903821.403 6 -16086907.417 9
  21209650.394    -5056825.695 3   1898956.692 2
  18356493.597   -28587572.194 7 -22052635.517 7
  19635130.050   -12139184.830 6  -8903852.151 7
  18394178.722   -23505052.005 7 -18138689.978 8
  17965475.753   -27990009.153 7 -21619874.325 9
  20663462.214   -21468367.523 5 -16527192.206 5
 94  1 27  5 27 29.9910000  0  8  9 24  2 13  5 12  4  7
  18304205.800   -25436157.515 6 -19630031.673 9
  18491878.487   -20984326.338 6 -16149638.512 9
  21221406.784    -4995091.922 3   1947060.875 1
  18361688.800   -28560270.634 7 -22031361.576 7
  19616460.667   -12237303.430 6  -8980308.190 7
  18383208.886   -23562699.692 7 -18183610.256 8
  17963467.987   -28000576.923 7 -21628108.943 9
  20673581.355   -21415195.034 5 -16485759.115 5
 94  1 27  5 27 59.9910000  0  8  9 24  2 13  5 12  4  7
  18301211.198   -25451897.825 6 -19642296.868 9
  18476645.230   -21064382.930 6 -16212020.251 9
  21233191.011    -4933116.502 3   1995353.411 1
  18366938.331   -28532690.502 7 -22009870.562 7
  19597799.355   -12335359.854 6  -9056715.794 7
  18372336.487   -23619829.888 7 -18228127.297 8
  17961564.605   -28010561.188 7 -21635888.889 9
  20683707.151   -21361989.529 5 -16444300.302 5
 94  1 27  5 28 29.9910000  0  8  9 24  2 13  5 12  4  7
  18298326.542   -25467065.516 6 -19654115.865 9
  18461501.308   -21143968.040 6 -16274034.618 9
  21245040.128    -4870884.866 3   2043845.539 2
  18372240.019   -28504827.374 7 -21988159.020 7
  19579153.019   -12433339.293 6  -9133063.400 7
  18361564.901   -23676433.845 7 -18272234.281 8
  17959776.948   -28019953.619 7 -21643207.664 9
  20693834.401   -21308757.717 5 -16402820.986 5
 94  1 27  5 28 59.9910000  0  8  9 24  2 13  5 12  4  7
  18295549.081   -25481654.249 6 -19665483.719 9
  18446451.347   -21223064.588 6 -16335668.278 9
  21256931.112    -4808420.089 3   2092519.361 2
  18377594.097   -28476689.270 7 -21966233.228 7
  19560527.925   -12531217.599 6  -9209332.200 7
  18350893.745   -23732515.762 7 -18315934.476 8
  17958100.511   -28028768.758 7 -21650076.600 9
  20703970.987   -21255507.658 5 -16361327.441 5
 94  1 27  5 29 59.9900000  0  8  9 24  2 13  5 12  4  7
  18290335.100   -25509057.154 6 -19686836.651 9
  18416631.740   -21379761.263 6 -16457769.557 9
  21280823.225    -4682837.904 3   2190375.542 1
  18388456.092   -28419602.745 7 -21921750.224 7
  19523346.045   -12726613.744 6  -9361588.945 7
  18329846.389   -23843107.461 7 -18402109.829 8
  17955073.576   -28044679.663 7 -21662474.696 9
  20724242.154   -21148962.149 5 -16278305.000 5
 94  1 27  5 30 29.9900000  0  8  9 24  2 13  5 12  4  7
  18287905.295   -25521832.764 6 -19696791.697 8
  18401869.451   -21457345.839 6 -16518225.064 9
  21292827.912    -4619746.866 3   2239537.315 3
  18393964.764   -28390655.546 7 -21899193.968 7
  19504793.897   -12824109.581 6  -9437559.730 7
  18319476.084   -23897613.072 7 -18444581.737 8
  17953718.295   -28051791.159 7 -21668016.115 9
  20734391.959   -21095641.522 5 -16236756.473 5
 94  1 27  5 30 59.9900000  0  8  9 24  2 13  5 12  4  7
  18285586.858   -25534003.088 6 -19706275.085 9
  18387200.764   -21534424.728 6 -16578286.529 9
  21304872.561    -4556468.730 3   2288844.937 2
  18399521.732   -28361446.169 7 -21876433.410 7
  19486266.350   -12921472.385 6  -9513426.838 7
  18309202.982   -23951592.346 7 -18486643.510 8
  17952475.357   -28058339.290 7 -21673118.552 9
  20744544.115   -21042278.699 5 -16195175.070 5
 94  1 27  5 31 29.9900000  0  8  9 24  2 13  5 12  4  7
  18283385.576   -25545576.738 6 -19715293.527 8
  18372625.232   -21611008.734 6 -16637962.361 9
  21316951.865    -4492994.452 3   2338305.335 2
  18405132.107   -28331972.699 7 -21853467.072 7
  19467761.623   -13018715.907 6  -9589201.011 7
  18299033.240   -24005039.432 7 -18528290.593 8
  17951336.389   -28064318.728 7 -21677777.853 9
  20754707.365   -20988874.396 5 -16153561.357 5
 94  1 27  5 31 59.9900000  0  8  9 24  2 13  5 12  4  7
  18281296.475   -25556556.905 6 -19723849.508 9
  18358145.756   -21687102.956 6 -16697256.543 9
  21329062.943    -4429321.057 3   2387920.939 1
  18410790.193   -28302237.757 7 -21830296.996 7
  19449281.209   -13115843.994 6  -9664885.232 7
  18288963.397   -24057952.682 7 -18569521.701 8
  17950303.975   -28069736.475 7 -21681999.462 9
  20764878.295   -20935436.125 5 -16111921.148 5
 94  1 27  5 32 29.9900000  0  8  9 24  2 13  5 12  4  7
  18279314.889   -25566960.351 6 -19731956.105 9
  18343759.756   -21762705.535 6 -16756167.634 9
  21341223.787    -4365432.645 3   2437704.104 3
  18416497.412   -28272241.539 7 -21806923.318 7
  19430816.818   -13212861.614 6  -9740483.365 7
  18278996.326   -24110328.560 7 -18610334.080 8
  17949386.904   -28074573.881 7 -21685768.866 9
  20775049.686   -20881966.059 5 -16070256.183 5
 94  1 27  5 32 59.9900000  0  8  9 24  2 13  5 12  4  7
  18277440.826   -25576820.735 6 -19739639.543 9
  18329460.928   -21837834.987 6 -16814710.061 9
  21353417.889    -4301346.780 3   2487641.143 2
  18422253.975   -28241997.346 7 -21783356.418 7
  19412373.811   -13309788.219 6  -9816010.599 7
  18269131.404   -24162175.934 7 -18650734.632 8
  17948568.522   -28078845.164 7 -21689097.133 9
  20785230.334   -20828488.171 5 -16028585.125 5
 94  1 27  5 33 29.9900000  0  8  9 24  2 13  5 12  4  7
  18275666.131   -25586132.140 6 -19746895.205 9
  18315253.842   -21912499.446 6 -16872890.141 9
  21365649.100    -4237059.981 3   2537734.734 3
  18428055.725   -28211506.715 7 -21759597.488 7
  19393946.279   -13406616.365 6  -9891461.095 7
  18259367.459   -24213492.541 7 -18690721.604 8
  17947865.381   -28082562.610 7 -21691993.842 9
  20795405.045   -20775017.730 5 -15986919.869 5
 94  1 27  5 33 59.9900000  0  8  9 24  2 13  5 12  4  7
  18274002.225   -25594883.328 6 -19753714.324 9
  18301136.889   -21986678.433 6 -16930691.946 9
  21377926.912    -4172550.107 3   2588002.142 3
  18433904.732   -28180764.974 7 -21735642.892 7
  19375541.912   -13503331.642 6  -9966823.659 7
  18249703.717   -24264269.504 7 -18730288.072 8
  17947264.342   -28085719.392 7 -21694453.670 9
  20805578.881   -20721551.062 5 -15945257.530 5
 94  1 27  5 34 29.9900000  0  8  9 24  2 13  5 12  4  7
  18272442.733   -25603083.953 6 -19760104.431 9
  18287117.193   -22060365.601 6 -16988110.503 8
  21390248.397    -4107813.137 3   2638446.516 3
  18439804.256   -28149774.360 7 -21711494.364 7
  19357160.397   -13599933.498 6 -10042097.814 8
  18240143.764   -24314505.066 7 -18769432.673 8
  17946767.725   -28088313.837 7 -21696475.314 9
  20815747.592   -20668096.680 5 -15903604.796 5
 94  1 27  5 34 59.9900000  0  8  9 24  2 13  5 12  4  7
  18270986.061   -25610727.378 6 -19766060.361 8
  18273188.240   -22133554.598 6 -17045140.880 8
  21402607.514    -4042853.641 3   2689064.284 2
  18445749.904   -28118534.985 7 -21687151.996 7
  19338801.576   -13696410.564 6 -10117274.751 8
  18230687.373   -24364195.458 7 -18808152.466 8
  17946382.748   -28090352.102 7 -21698063.571 9
  20825915.186   -20614661.425 5 -15861966.946 5
 94  1 27  5 35 29.9900000  0  8  9 24  2 13  5 12  4  7
  18269643.217   -25617783.462 6 -19771558.617 8
  18259357.389   -22206239.728 6 -17101778.649 8
  21415013.904    -3977657.701 3   2739866.287 2
  18451740.115   -28087047.843 7 -21662616.560 7
  19320466.404   -13792750.327 6 -10192344.696 7
  18221338.545   -24413337.634 7 -18846445.072 8
  17946102.678   -28091825.127 7 -21699211.378 9
  20836085.936   -20561227.626 5 -15820330.248 5
 94  1 27  5 35 59.9900000  0  8  9 24  2 13  5 12  4  7
  18268414.686   -25624256.944 6 -19776602.903 8
  18245621.436   -22278422.076 6 -17158024.628 8
  21427465.131    -3912238.028 3   2790842.627 2
  18457775.693   -28055324.312 7 -21637896.923 7
  19302158.420   -13888963.948 6 -10267316.353 7
  18212087.443   -24461939.288 7 -18884316.489 8
  17945928.115   -28092732.859 7 -21699918.697 9
  20846258.100   -20507781.570 5 -15778683.989 5
 94  1 27  5 36 29.9900000  0  8  9 24  2 13  5 12  4  7
  18267291.428   -25630145.324 6 -19781191.260 8
  18231978.154   -22350117.223 6 -17213890.964 8
  21439952.717    -3846614.815 3   2841977.581 1
  18463857.186   -28023364.879 7 -21612993.472 7
  19283876.943   -13985042.016 6 -10342182.365 7
  18202942.857   -24509996.623 7 -18921763.775 8
  17945866.647   -28093070.898 7
  20856429.928   -20454301.837 5 -15737011.477 5
 94  1 27  5 36 59.9900000  0  8  9 24  2 13  5 12  4  7
  18266287.459   -25635428.408 6 -19785307.962 8
  18218427.115   -22421326.651 6 -17269378.828 8
  21452481.045    -3780796.981 3   2893264.110 2
  18469985.248   -27991169.481 7 -21587906.150 7
  19265621.983   -14080977.194 6 -10416937.049 7
  18193903.295   -24557506.102 7 -18958784.154 8
  17945905.834   -28092841.486 7
  20866619.287   -20400767.229 5 -15695296.184 5
 94  1 27  5 37 29.9900000  0  8  9 24  2 13  5 12  4  7
  18265392.842   -25640111.895 6 -19788957.449 8
  18204971.951   -22492044.124 6 -17324483.345 8
  21465036.631    -3714776.854 2   2944708.340 1
  18476155.553   -27958740.877 7 -21562637.110 7
  19247391.404   -14176779.765 6 -10491588.412 7
  18184964.662   -24604466.571 7 -18995376.729 8
  17946061.732   -28092056.166 7 -21699391.391 9
  20876818.053   -20347175.635 5 -15653536.529 5
 94  1 27  5 37 59.9900000  0  8  9 24  2 13  5 12  4  7
  18264612.279   -25644236.572 6 -19792171.496 8
  18191607.068   -22562267.622 6 -17379202.952 8
  21477640.217    -3648561.258 2   2996304.916 2
  18482369.967   -27926089.567 7 -21537194.529 7
  19229181.975   -14272461.323 6 -10566145.474 7
  18176134.576   -24650884.277 7 -19031546.378 8
  17946308.272   -28090728.138 7 -21698356.558 9
  20887020.311   -20293555.488 5 -15611754.606 5
 94  1 27  5 38 29.9900000  0  8  9 24  2 13  5 12  4  7
  18263931.982   -25647797.992 6 -19794946.647 8
  18178344.693   -22631976.249 6 -17433521.357 8
  21490281.365    -3582133.365 2   3048066.910 1
  18488626.522   -27893208.519 7 -21511572.925 7
  19210999.092   -14368004.378 6 -10640594.612 7
  18167404.936   -24696748.836 7 -19067285.001 8
  17946665.295   -28088853.100 7 -21696895.489 9
  20897227.709   -20239917.486 5 -15569958.770 5
 94  1 27  5 38 59.9900000  0  8  9 24  2 13  5 12  4  7
  18263363.186   -25650796.441 6 -19797283.122 8
  18165179.912   -22701147.536 6 -17487421.047 8
  21502964.568    -3515470.282 2   3100012.154 2
  18494929.037   -27860096.184 7 -21485771.114 7
  19192843.990   -14463413.531 6 -10714939.406 7
  18158785.334   -24742054.638 7 -19102588.229 8
  17947128.623   -28086424.866 7 -21695003.358 9
  20907438.475   -20186272.746 5 -15528157.687 5
 94  1 27  5 39 29.9900000  0  8  9 24  2 13  5 12  4  7
  18262895.342   -25653253.395 6 -19799197.638 8
  18152120.217   -22769782.279 6 -17540902.650 8
  21515701.647    -3448560.171 2   3152149.931 2
  18501272.350   -27826755.166 7 -21459791.097 7
  19174713.233   -14558689.685 6 -10789180.559 7
  18150267.897   -24786800.828 6 -19137455.392 8
  17947698.514   -28083436.593 7 -21692674.828 9
  20917644.873   -20132634.664 5 -15486361.791 5
 94  1 27  5 39 59.9900000  0  8  9 24  2 13  5 12  4  7
  18262530.897   -25655165.189 6 -19800687.360 8
  18139156.545   -22837897.040 6 -17593979.074 8
  21528478.826    -3381419.774 2   3204467.099 1
  18507658.873   -27793191.805 7 -21433637.823 6
  19156610.928   -14653819.438 6 -10863307.647 7
  18141862.506   -24830989.624 7 -19171888.232 8
  17948374.045   -28079893.453 7 -21689913.935 9
  20927848.209   -20079003.888 5 -15444571.595 5
 94  1 27  5 40 29.9900000  0  8  9 24  2 13  5 12  4  7
  18262274.514   -25656519.212 6 -19801742.455 8
  18126292.201   -22905504.486 6 -17646660.195 8
  21541294.311    -3314067.271 2   3256949.535 1
  18514086.670   -27759408.667 7 -21407313.304 6
  19138537.318   -14748801.782 6 -10937319.847 7
  18133556.897   -24874620.166 7 -19205886.064 8
  17949152.108   -28075798.583 7 -21686723.125 9
  20938055.381   -20025370.047 5 -15402779.001 5
 94  1 27  5 40 59.9900000  0  8  9 24  2 13  5 12  4  7
  18262123.115   -25657315.149 6 -19802362.682 8
  18113519.943   -22972619.124 6 -17698957.304 8
  21554145.459    -3246521.729 2   3309582.428 1
  18520556.037   -27725409.328 7 -21380820.311 7
  19120489.803   -14843644.019 6 -11011222.896 7
  18125361.787   -24917692.245 7 -19239448.728 8
  17950035.186   -28071158.804 7 -21683107.706 9
  20948267.498   -19971739.072 5 -15360988.650 5
 94  1 27  5 41 29.9900000  0  8  9 24  2 13  5 12  4  7
  18262080.412   -25657542.226 6
  18100841.686   -23039238.622 6 -17750868.591 8
  21567032.701    -3178799.805 2   3362352.725 1
  18527067.897   -27691194.119 7 -21354159.108 6
  19102471.014   -14938329.978 6 -11085004.168 7
  18117271.576   -24960202.635 7 -19272573.715 8
  17951022.318   -28065978.117 7 -21679070.804 9
  20958469.186   -19918103.697 5 -15319194.848 5
 94  1 27  5 41 59.9900000  0  8  9 24  2 13  5 12  4  7
  18262143.912   -25657190.402 6
  18088259.740   -23105362.119 6 -17802393.393 8
  21579949.178    -3110927.657 2   3415240.113 1
  18533620.037   -27656768.728 7 -21327334.128 6
  19084482.467   -15032857.132 6 -11158661.692 7
  18109288.248   -25002153.419 7 -19305262.640 8
  17952108.522   -28060259.464 7 -21674614.711 9
  20968678.076   -19864458.807 5 -15277393.668 5
 94  1 27  5 42 29.9900000  0  7  9 24 13  5 12  4  7
  18262320.701   -25656263.132 6 -19801542.965 8
  18075774.147   -23170976.335 6 -17853521.337 8
  18540209.748   -27622135.074 7 -21300346.862 7
  19066523.490   -15127229.829 6 -11232198.868 7
  18101413.514   -25043542.838 7 -19337514.141 8
  17953302.443   -28053990.184 7 -21669729.555 9
  20978887.647   -19810803.225 5 -15235584.125 4
 94  1 27  5 42 59.9900000  0  7  9 24 13  5 12  4  7
  18262607.693   -25654760.898 6 -19800372.404 8
  18063385.357   -23236072.061 6 -17904245.261 8
  18546839.186   -27587293.256 7 -21273197.390 7
  19048595.428   -15221448.154 6 -11305615.734 8
  18093644.826   -25084367.439 7 -19369325.527 8
  17954601.467   -28047168.047 7 -21664413.606 9
  20989094.842   -19757136.006 5 -15193765.530 4
 94  1 27  5 43 29.9900000  0  7  9 24 13  5 12  4  7
  18263000.553   -25652696.623 6 -19798763.912 8
  18051099.756   -23300645.841 6 -17954562.479 8
  18553509.342   -27552241.005 7 -21245883.954 7
  19030696.772   -15315496.824 6 -11378900.431 8
  18085984.022   -25124621.440 7 -19400692.286 8
  17956005.529   -28039786.894 7 -21658662.051 9
  20999320.928   -19703442.543 5 -15151926.475 4
 94  1 27  5 43 59.9900000  0  7  9 24 13  5 12  4  7
  18263497.975   -25650084.727 6 -19796728.672 8
  18038907.568   -23364707.186 6 -18004480.396 9
  18560217.428   -27516981.706 7 -21218409.180 7
  19012830.818   -15409387.596 6 -11452062.071 8
  18078430.670   -25164304.707 7 -19431614.321 8
  17957513.186   -28031860.042 7 -21652485.277 9
  21009539.584   -19649732.466 5 -15110074.486 4
 94  1 27  5 44 29.9900000  0  7  9 24 13  5 12  4  7
  18264097.404   -25646932.236 6 -19794272.195 8
  18026817.334   -23428255.915 6 -18053998.877 8
  18566970.701   -27481517.656 7 -21190774.854 7
  18994991.084   -15503132.920 6 -11525110.374 8
  18070988.107   -25203416.003 7 -19462090.664 8
  17959122.975   -28023404.768 7 -21645896.754 9
  21019755.107   -19596013.651 5 -15068215.697 4
 94  1 27  5 44 59.9900000  0  7  9 24 13  5 12  4  7
  18264800.170   -25643250.215 6 -19791403.101 8
  18014820.170   -23491295.849 6 -18103120.885 9
  18573755.467   -27445852.830 7 -21162984.081 7
  18977180.233   -15596738.489 6 -11598049.772 8
  18063653.920   -25241955.922 7 -19492121.777 8
  17960827.959   -28014434.804 7 -21638907.166 9
  21029980.615   -19542284.120 5 -15026348.554 5
 94  1 27  5 45 29.9900000  0  7  9 24 13  5 12  4  7
  18265602.287   -25639023.603 6 -19788109.645 8
  18002922.818   -23553817.013 6 -18151838.661 8
  18580578.709   -27409987.616 7 -21135037.164 7
  18959394.725   -15690193.458 6 -11670871.822 8
  18056432.201   -25279921.212 7 -19521705.126 8
  17962634.584   -28004957.991 7 -21631522.635 9
  21040211.365   -19488545.448 5 -14984474.272 4
 94  1 27  5 45 59.9900000  0  7  9 24 13  5 12  4  7
  18266513.834   -25634240.310 6 -19784382.422 8
  17991125.295   -23615813.106 6 -18200147.293 8
  18587440.717   -27373932.016 7 -21106941.899 7
  18941638.732   -15783506.254 6 -11743583.092 8
  18049314.678   -25317318.718 7 -19550846.045 8
  17964528.787   -27994991.372 7 -21623756.439 9
  21050441.615   -19434813.276 5 -14942605.086 5
 94  1 27  5 46 29.9900000  0  7  9 24 13  5 12  4  7
  18267534.256   -25628874.420 6 -19780201.226 8
  17979433.186   -23677251.072 6 -18248021.019 9
  18594344.607   -27337665.714 7 -21078682.443 7
  18923915.529   -15876642.845 6 -11816157.053 8
  18042309.584   -25354124.818 7 -19579526.131 8
  17966524.678   -27984496.157 7 -21615578.347 9
  21060667.084   -19381064.755 5 -14900723.139 5
 94  1 27  5 46 59.9900000  0  7  9 24 13  5 12  4  7
  18268663.061   -25622931.695 6 -19775570.541 8
  17967844.162   -23738149.184 6 -18295474.083 9
  18601278.982   -27301208.971 7 -21050274.604 7
  18906225.459   -15969604.281 6 -11888594.538 8
  18035415.850   -25390356.363 7 -19607758.504 8
  17968624.576   -27973472.266 7 -21606988.294 9
  21070888.529   -19327326.077 5 -14858848.853 5
 94  1 27  5 47 29.9900000  0  7  9 24 13  5 12  4  7
  18269909.397   -25616389.839 6 -19770472.995 8
  17956358.967   -23798505.051 6 -18342504.614 9
  18608255.889   -27264557.037 7 -21021714.657 7
  18888573.639   -16062369.455 6 -11960879.091 8
  18028630.389   -25426005.215 7 -19635536.841 8
  17970823.287   -27961904.517 7 -21597974.464 9
  21081118.107   -19273602.726 5 -14816986.528 5
 94  1 27  5 47 59.9900000  0  7  9 24 13  5 12  4  7
  18271266.772   -25609271.329 6 -19764926.115 8
  17944975.022   -23858333.378 6 -18389124.082 9
  18615264.943   -27227716.148 7 -20993007.476 7
  18870956.115   -16154946.970 7 -12033017.413 9
  18021958.889   -25461074.289 7 -19662863.400 8
  17973131.686   -27949773.392 7 -21588521.642 9
  21091335.826   -19219890.959 4 -14775133.232 5
 94  1 27  5 48 29.9900000  0  7  9 24 13  5 12  4  7
  18272725.709   -25601590.746 6 -19758941.263 8
  17933688.740   -23917643.745 6 -18435339.946 9
  18622311.342   -27190688.531 7 -20964154.793 7
  18853374.498   -16247345.753 7 -12105016.467 9
  18015395.186   -25495562.823 7 -19689737.595 8
  17975550.803   -27937068.565 7 -21578621.774 9
  21101558.279   -19166180.623 5 -14733281.029 5
 94  1 27  5 48 59.9900000  0  7  9 24 13  5 12  4  7
  18274293.389   -25593352.189 6 -19752521.622 8
  17922497.404   -23976448.671 6 -18481161.946 9
  18629391.123   -27153480.524 7 -20935161.542 7
  18835824.186   -16339571.913 7 -12176881.009 8
  18008941.951   -25529473.609 6 -19716161.589 8
  17978074.350   -27923809.465 7 -21568290.010 9
  21111780.592   -19112461.756 5 -14691422.186 5
 94  1 27  5 49 29.9900000  0  7  9 24 13  5 12  4  7
  18275962.428   -25584577.638 6 -19745684.326 8
  17911401.670   -24034751.970 6 -18526593.080 8
  18636504.584   -27116096.814 7 -20906031.383 7
  18818304.061   -16431635.134 7 -12248618.583 9
  18002600.936   -25562808.332 6 -19742136.700 8
  17980702.350   -27910010.495 7 -21557537.566 9
  21122004.865   -19058720.573 4 -14649545.953 4
 94  1 27  5 49 59.9900000  0  7  9 24 13  5 12  4  7
  18277736.553   -25575277.911 6 -19738437.806 8
  17900403.662   -24092549.389 6 -18571630.019 8
  18643652.803   -27078535.572 7 -20876762.886 7
  18800813.014   -16523548.747 7 -12320239.579 9
  17996366.529   -25595561.939 7 -19767658.997 8
  17983425.514   -27895681.473 7 -21546372.093 9
  21132233.693   -19004942.154 4 -14607640.712 4
 94  1 27  5 50 29.9900000  0  7  9 24 13  5 12  4  7
  18279608.553   -25565433.378 6 -19730766.757 8
  17889506.193   -24149821.420 6 -18616257.575 8
  18650833.857   -27040789.600 7 -20847350.451 7
  18783356.186   -16615295.557 7 -12391730.601 9
  17990245.217   -25627724.157 7 -19792720.478 8
  17986251.647   -27880843.318 7 -21534809.895 9
  21142482.811   -18951121.132 4 -14565702.267 5
 94  1 27  5 50 59.9900000  0  7  9 24 13  5 12  4  7
  18281581.279   -25555053.368 6 -19722678.453 8
  17878703.740   -24206585.748 6 -18660489.502 8
  18658051.107   -27002878.171 7 -20817809.076 7
  18765926.584   -16706879.506 7 -12463094.714 9
  17984237.631   -25659311.295 7 -19817333.840 8
  17989167.467   -27865514.196 7 -21522865.127 9
  21152723.779   -18897286.582 5 -14523753.271 5
 94  1 27  5 51 29.9900000  0  7  9 24 13  5 12  4  7
  18283657.561   -25544133.498 6 -19714169.477 8
  17868002.701   -24262826.439 7 -18704313.420 8
  18665298.201   -26964793.369 7 -20788132.613 7
  18748533.334   -16798278.949 6 -12534315.059 9
  17978336.670   -25690312.221 7 -19841490.416 8
  17992181.217   -27849684.371 7 -21510530.200 9
  21162971.108   -18843441.959 5 -14481796.446 5
 94  1 27  5 51 59.9900000  0  7  9 24 13  5 12  4  7
  18285842.006   -25532673.918 6 -19705239.948 8
  17857402.701   -24318529.539 7 -18747718.418 8
  18672578.654   -26926537.310 7 -20758322.703 7
  18731176.014   -16889487.354 6 -12605386.546 9
  17972547.740   -25720726.008 7 -19865189.474 8
  17995286.529   -27833349.603 7 -21497801.805 9
  21173217.568   -18789603.493 5 -14439844.403 5
 94  1 27  5 52 29.9900000  0  7  9 24 13  5 12  4  7
  18288126.811   -25520677.088 6 -19695891.775 8
  17846904.303   -24373689.439 7 -18790700.150 8
  18679890.272   -26888112.390 7 -20728381.220 7
  18713862.897   -16980478.858 6 -12676289.017 9
  17966874.803   -25750551.976 7 -19888430.493 8
  17998491.920   -27816503.928 7 -21484675.306 9
  21183453.803   -18735784.853 4 -14397907.830 5
 94  1 27  5 52 59.9900000  0  7  9 24 13  5 12  4  7
  18290510.584   -25508152.361 6 -19686132.266 8
  17836513.436   -24428307.237 7 -18833259.461 8
  18687232.600   -26849519.392 7 -20698308.750 7
  18696589.311   -17071250.736 6 -12747020.354 9
  17961308.928   -25779788.011 7 -19911211.832 8
  18001797.928   -27799134.464 7 -21471140.659 9
  21193694.365   -18681992.669 5 -14355991.864 4
 94  1 27  5 53 29.9900000  0  8  9 24 20 13  5 12  4  7
  18292989.928   -25495105.878 6 -19675966.201 8
  17826223.209   -24482366.088 7 -18875383.240 8
  21669779.045          -0.45912
  18694607.881   -26810762.861 7 -20668108.858 7
  18679356.725   -17161813.885 6 -12817589.038 8
  17955859.006   -25808435.809 7 -19933534.804 8
  18005201.662   -27781255.158 7 -21457208.736 9
  21203927.928   -18628220.030 5 -14314091.122 4
 94  1 27  5 53 59.9900000  0  8  9 24 20 13  5 12  4  7
  18295568.631   -25481544.389 6 -19665398.820 8
  17816043.787   -24535869.911 7 -18917074.523 8
  21647089.529     -119221.189 3        -0.28012
  18702012.084   -26771848.790 7 -20637786.209 7
  18662160.998   -17252182.863 7 -12888006.421 8
  17950517.748   -25836498.360 7 -19955401.735 8
  18008698.506   -27762875.688 7 -21442887.070 9
  21214154.834   -18574464.743 5 -14272203.905 4
 94  1 27  5 54 29.9900000  0  8  9 24 20 13  5 12  4  7
  18298249.045   -25467458.223 6 -19654422.590 8
  17805962.764   -24588836.492 7 -18958347.179 8
  21624398.475     -238468.018 3    -92919.910 3
  18709448.733   -26732776.432 6 -20607340.223 6
  18645000.740   -17342358.795 7 -12958273.384 8
  17945291.139   -25863972.359 7 -19976810.053 8
  18012291.686   -27744002.852 7 -21428180.972 9
  21224379.162   -18520716.938 5 -14230322.526 4
 94  1 27  5 54 59.9900000  0  8  9 24 20 13  5 12  4  7
  18301032.443   -25452837.156 6 -19643029.568 8
  17795986.647   -24641265.860 6 -18999201.230 8
  21601697.850     -357735.663 3   -185855.708 1
  18716914.131   -26693543.942 7 -20576769.456 7
  18627874.068   -17432355.563 7 -13028400.735 8
  17940174.701   -25890852.690 7 -19997755.776 8
  18015976.811   -27724642.600 7 -21413095.061 9
  21234613.842   -18466963.541 5 -14188436.789 4
 94  1 27  5 55 29.9900000  0  8  9 24 20 13  5 12  4  7
  18303918.209   -25437673.764 6 -19631213.953 8
  17786109.545   -24693173.449 7 -19039648.686 8
  21579001.358     -477019.277 3   -278803.983 3
  18724410.162   -26654149.736 6 -20546072.675 6
  18610782.404   -17522176.720 7 -13098391.259 8
  17935173.186   -25917135.345 7 -20018235.781 8
  18019750.334   -27704799.007 7 -21397632.525 9
  21244846.240   -18413192.492 4 -14146537.284 3
 94  1 27  5 55 59.9900000  0  8  9 24 20 13  5 12  4  7
  18306903.131   -25421978.806 6 -19618984.131 8
  17776323.584   -24744589.559 7 -19079713.188 8
  21556297.365     -596325.028 3   -371769.495 2
  18731937.865   -26614603.833 7 -20515257.687 6
  18593722.483   -17611825.132 7 -13168247.163 8
  17930285.357   -25942827.171 7 -20038255.391 8
  18023620.647   -27684468.922 7 -21381790.902 9
  21255072.029   -18359422.728 4 -14104638.792 4
 94  1 27  5 56 29.9900000  0  8  9 24 20 13  5 12  4  7
  18309994.631   -25405744.522 6 -19606334.062 9
  17766633.912   -24795513.930 7 -19119394.508 8
  21533592.295     -715647.884 3   -464748.348 1
  18739491.795   -26574904.345 7 -20484323.025 6
  18576697.287   -17701295.126 7 -13237964.043 8
  17925509.873   -25967924.041 7 -20057811.405 8
  18027581.631   -27663641.753 7 -21365561.943 9
  21265305.522   -18305653.543 4 -14062740.742 4
 94  1 27  5 56 59.9900000  0  8  9 24 20 13  5 12  4  7
  18313183.670   -25388980.060 6 -19593270.865 8
  17757041.654   -24845929.631 7 -19158679.463 8
  21510880.482     -834991.557 3   -557743.411 2
  18747074.451   -26535058.439 7 -20453274.273 6
  18559706.693   -17790578.656 7 -13307535.632 8
  17920845.772   -25992430.032 7 -20076906.992 8
  18031641.162   -27642318.253 7 -21348946.232 9
  21275537.162   -18251892.273 4 -14020848.862 3
 94  1 27  5 57 29.9900000  0  8  9 24 20 13  5 12  4  7
  18316470.717   -25371694.351 6 -19579801.492 9
  17747548.084   -24895821.586 7 -19197556.300 8
  21488171.186     -954353.854 3   -650752.986 2
  18754685.295   -26495067.316 7 -20422112.370 6
  18542753.326   -17879665.899 7 -13376954.269 8
  17916294.123   -26016343.840 7 -20095541.141 8
  18035794.178   -27620490.761 7 -21331937.792 9
  21285765.373   -18198141.196 4 -13978964.950 3
 94  1 27  5 57 59.9900000  0  8  9 24 20 13  5 12  4  7
  18319860.920   -25353893.557 6 -19565930.757 8
  17738158.529   -24945160.759 7 -19236002.402 8
  21465448.623    -1073732.482 3   -743775.298 1
  18762319.803   -26454932.153 6 -20390838.219 6
  18525840.115   -17968535.474 7 -13446203.287 9
  17911856.443   -26039663.935 7 -20113712.655 8
  18040046.584   -27598151.847 7 -21314530.851 9
  21295994.951   -18144403.581 4 -13937091.491 3
 94  1 27  5 58 29.9900000  0  8  9 24 20 13  5 12  4  7
  18323346.076   -25335569.185 6 -19551652.041 8
  17728876.061   -24993937.101 7 -19274009.936 8
  21442728.561    -1193127.410 3   -836810.344 2
  18769986.053   -26414656.136 6 -20359454.309 6
  18508973.092   -18057180.979 7 -13515277.717 9
  17907532.522   -26062390.897 7 -20131421.989 8
  18044391.600   -27575311.659 7 -21296733.307 9
  21306213.240   -18090674.043 4 -13895224.359 3
